GFSGL_sfc_wetblb_027.txt.gz
Wetbulb
46.37 45.13 44.43 44.45 44.58 44.99 44.86 44.74 44.60 44.73 44.53 43.99 43.43 42.87 41.77 39.29 40.53 41.22 39.28 38.29 37.06 37.36 37.05 35.52 34.71 35.11 34.22 34.11 33.79 32.65 31.08 30.49 26.61 29.41 31.56 32.74 32.73 33.56 34.80 36.55 37.98 39.36 39.65
43.13 43.15 43.21 43.90 44.31 43.43 42.97 42.94 43.40 42.40 42.54 41.92 41.85 41.09 41.35 41.61 40.83 39.88 37.53 37.38 36.07 35.35 34.65 34.10 33.72 33.49 32.93 33.25 32.26 31.07 30.35 30.34 27.53 25.67 29.15 29.75 31.00 32.85 33.75 34.51 35.93 37.31 38.47
42.51 42.39 42.78 43.04 42.40 41.67 41.91 42.14 41.99 41.50 41.80 41.99 40.93 41.22 40.30 39.51 37.50 37.06 36.01 34.88 34.01 33.80 33.94 33.34 32.80 32.35 31.09 31.12 30.50 29.61 29.22 28.33 27.74 26.40 26.30 29.53 30.14 31.77 31.82 33.73 34.61 35.80 37.01
41.35 41.46 41.69 42.06 41.70 41.68 41.67 41.12 40.78 41.20 41.32 41.65 41.04 39.08 38.36 36.66 36.12 35.03 33.95 34.18 34.24 33.67 33.01 32.14 31.12 30.09 29.25 28.89 28.07 27.58 27.58 27.08 26.28 25.29 25.60 26.25 28.09 30.08 31.16 30.34 30.61 34.13 34.28
40.48 39.73 41.09 41.84 41.85 41.11 40.53 40.32 40.55 40.69 40.83 39.05 36.08 35.47 35.67 35.41 34.53 35.09 34.63 33.43 32.50 31.04 30.40 29.32 29.09 28.35 27.93 27.75 27.34 26.88 26.17 24.95 25.18 25.47 25.20 25.32 25.76 26.72 26.23 29.24 28.89 30.81 33.01
39.31 38.73 40.63 41.17 40.41 40.09 39.81 39.68 39.56 39.48 39.44 38.79 35.77 35.06 33.85 34.16 32.63 31.27 31.48 31.53 30.01 28.43 27.36 27.56 27.51 26.77 27.19 26.64 26.51 26.97 27.16 26.16 25.98 24.97 24.83 25.48 25.58 27.63 28.23 27.71 27.91 27.46 26.30
37.48 38.55 39.42 39.33 38.89 38.68 38.53 38.04 37.73 38.39 37.92 36.72 34.83 33.83 33.18 32.97 29.93 29.49 28.82 30.18 28.10 27.39 26.55 26.23 26.00 26.71 26.54 26.79 26.81 27.56 28.22 27.74 27.16 27.13 25.05 26.04 25.59 27.81 27.94 27.40 28.09 27.55 27.15
37.34 38.42 38.42 38.38 37.54 37.76 37.21 36.62 36.83 37.75 36.84 36.26 33.80 32.70 32.37 30.21 28.35 27.78 27.33 28.46 27.61 26.79 26.50 26.34 26.00 25.74 26.35 25.74 27.29 26.66 26.72 27.20 27.54 28.27 28.67 28.72 29.09 29.51 29.14 28.68 29.04 29.16 29.75
37.27 37.43 37.94 37.63 36.48 36.37 35.52 35.54 36.06 36.46 36.74 34.56 33.16 31.42 29.97 29.45 26.83 26.87 27.42 27.90 26.72 26.15 26.55 26.76 25.96 25.18 25.37 26.81 25.64 24.96 24.80 25.55 28.00 28.05 28.52 29.30 29.44 29.64 29.76 28.65 27.03 26.77 26.48
36.77 36.93 37.36 36.95 36.02 35.08 35.09 34.65 34.54 35.69 34.44 33.45 31.22 30.52 27.56 28.47 25.44 26.24 27.22 28.14 26.13 25.76 26.03 25.81 24.29 24.32 25.17 25.29 24.47 24.20 22.77 24.19 25.11 26.08 27.25 28.42 29.21 29.65 28.68 29.25 28.00 25.10 26.05
36.38 36.68 36.70 36.27 35.21 35.08 34.72 33.98 33.32 33.56 32.58 31.08 29.65 29.77 28.70 27.74 27.50 25.61 26.17 27.43 26.14 25.01 24.15 23.69 24.33 23.57 24.17 23.60 23.74 24.33 23.38 24.20 24.43 24.95 25.89 27.42 28.08 28.56 29.34 30.30 29.90 28.32 26.67
36.41 35.96 35.53 35.28 34.62 33.97 33.78 33.48 32.73 32.13 30.82 29.17 27.62 28.50 29.15 28.58 25.83 25.63 25.83 26.26 25.57 24.67 23.54 23.43 23.49 22.77 22.57 22.00 22.75 22.81 22.10 22.93 24.09 23.91 24.10 24.64 25.32 26.52 28.54 30.06 31.52 31.41 31.06
34.28 34.52 34.88 34.72 34.42 34.21 32.99 32.49 31.47 30.98 29.85 29.45 28.59 28.81 28.58 28.94 28.46 24.78 24.87 25.75 24.89 24.30 24.67 22.46 21.24 20.92 20.54 21.17 20.51 20.88 20.52 21.46 21.60 21.38 21.69 22.78 24.62 26.70 29.15 30.99 32.05 32.85 31.57
33.39 34.32 34.57 34.00 33.88 34.21 33.27 32.28 31.03 30.33 29.51 28.96 28.85 28.13 28.51 27.93 27.98 27.61 27.24 27.68 24.39 23.81 22.17 21.98 19.52 19.30 18.51 19.52 20.90 21.02 20.07 19.48 19.18 20.12 20.98 22.94 25.12 26.11 27.24 28.95 29.24 30.52 30.87
32.86 33.72 33.88 33.89 33.51 32.98 33.00 31.73 30.80 31.42 30.88 30.49 29.87 28.90 28.38 27.85 27.98 26.62 26.80 26.70 26.02 23.55 20.20 20.93 20.02 18.87 18.50 19.28 19.97 19.28 19.04 17.95 18.51 19.68 20.17 21.10 22.53 23.96 25.29 27.44 27.57 28.99 28.21
31.40 32.62 33.37 33.39 32.90 32.54 32.05 31.45 30.14 29.58 28.61 29.42 29.22 28.33 30.36 27.26 25.74 26.18 26.86 25.25 23.35 20.39 21.11 19.60 18.18 17.33 16.98 17.18 17.65 17.78 18.23 15.72 16.45 18.20 19.29 19.89 20.15 21.77 22.77 25.44 26.20 25.86 25.81
31.27 31.83 33.05 32.12 32.70 31.78 31.15 30.53 29.63 31.30 28.66 29.85 30.48 30.30 30.10 29.14 26.59 27.52 27.03 25.22 22.89 20.54 20.82 20.26 18.96 18.06 17.32 17.45 17.24 17.11 16.44 16.25 15.02 16.21 17.72 18.01 19.08 20.51 22.27 22.93 23.75 24.21 24.09
31.83 31.46 32.78 33.29 33.29 32.45 32.03 31.40 30.68 29.48 28.82 29.49 28.52 28.25 28.81 29.02 29.27 28.40 26.99 24.94 23.19 21.31 21.02 20.35 19.66 19.50 18.77 17.88 17.39 16.56 16.22 16.31 15.42 14.29 16.28 16.65 16.97 18.61 20.12 20.72 21.84 21.24 22.31
32.01 32.22 31.83 32.89 32.61 31.74 31.71 30.90 29.83 29.26 28.97 28.08 28.87 25.81 26.71 26.97 28.47 28.96 27.02 25.64 24.35 23.50 22.42 21.12 21.40 20.18 19.54 19.05 18.26 16.86 15.84 15.64 13.97 13.91 14.55 15.01 15.91 16.59 18.12 18.78 19.62 18.79 19.43
32.97 31.87 31.86 31.67 31.38 31.00 30.43 29.41 29.33 29.16 28.71 28.26 28.01 27.81 28.80 22.85 26.77 27.19 26.60 25.54 24.28 23.84 24.06 22.35 22.07 21.40 20.73 19.87 19.00 17.49 16.86 17.11 15.52 15.12 14.35 15.20 15.65 15.92 16.01 16.91 18.02 18.55 19.29
32.72 31.84 30.71 31.24 31.48 30.81 30.13 29.90 29.42 28.77 28.65 28.27 28.58 30.28 24.94 26.09 27.18 27.57 27.09 25.89 24.14 24.62 24.78 23.91 23.41 22.41 21.54 20.20 18.84 18.53 16.78 16.86 15.46 13.97 14.34 15.50 14.91 15.00 15.48 16.79 17.57 18.11 18.04
31.73 31.41 30.91 30.52 31.36 31.15 30.11 29.73 29.96 29.15 28.19 27.84 28.11 29.03 21.21 22.74 26.31 27.12 27.28 27.27 26.97 25.44 25.88 25.19 24.14 23.46 22.57 21.32 20.57 19.50 17.13 15.96 16.30 14.96 13.89 13.40 14.75 15.83 15.43 15.45 15.76 16.65 16.93
31.94 31.72 31.16 29.99 30.66 30.70 29.72 29.53 29.03 28.59 28.17 27.85 27.77 27.62 27.96 25.76 25.67 26.04 26.78 27.23 27.18 25.53 24.91 23.93 23.51 22.48 22.58 20.42 20.40 19.73 17.69 17.63 17.47 14.81 12.55 13.48 14.49 15.64 15.35 15.36 14.69 14.71 14.69
31.58 31.26 31.03 30.13 30.57 30.43 29.19 28.57 28.34 26.07 26.81 27.38 27.54 27.65 27.91 28.35 27.70 26.90 27.01 27.74 26.58 25.77 25.08 21.81 21.58 21.42 22.13 21.12 20.48 19.16 18.04 17.45 17.04 15.15 11.13 12.51 13.79 14.66 14.58 14.56 15.12 14.02 14.05
29.60 29.68 30.04 31.65 31.68 30.76 29.38 27.79 27.51 27.90 28.06 27.49 27.30 27.62 28.12 28.41 28.25 28.00 27.99 26.85 25.07 25.01 23.71 20.27 20.26 20.60 19.24 18.14 19.27 17.88 17.10 13.88 13.78 10.68 13.17 12.43 12.81 12.24 12.78 13.92 13.96 14.66 13.59
29.45 29.95 30.64 30.41 31.06 30.90 29.55 28.85 29.07 29.21 28.50 28.81 29.06 29.24 29.63 29.35 28.95 28.90 28.26 27.10 25.33 23.87 23.61 23.18 21.25 19.18 19.35 19.26 18.66 16.57 12.05 10.80 12.02 7.51 12.01 13.73 13.25 14.20 14.31 13.45 12.57 14.54 13.33

GFSGL_sfc_wetblb_033.txt.gz
Wetbulb
51.99 51.77 50.31 48.61 48.80 48.49 47.54 47.18 46.22 46.39 45.97 44.84 44.60 44.64 44.53 44.25 44.55 44.19 43.81 43.60 42.33 41.37 41.54 40.76 39.54 39.87 38.61 38.98 39.01 38.28 37.16 36.23 32.77 35.16 36.24 36.70 35.79 35.55 36.33 37.34 37.75 37.88 38.24
51.22 49.02 48.05 48.66 47.87 47.30 46.62 45.95 46.23 45.50 45.52 44.43 44.33 44.10 43.98 43.83 43.39 42.75 42.04 40.78 40.36 39.31 39.01 38.67 37.83 38.25 37.46 37.39 37.04 35.34 35.39 35.15 33.55 30.30 32.57 32.85 33.09 34.32 35.19 34.60 35.68 35.79 36.88
49.31 48.18 47.87 47.29 47.06 46.85 46.02 45.98 45.88 45.20 44.31 44.13 43.98 43.44 42.71 42.16 41.07 40.98 40.42 39.40 39.25 38.77 38.63 37.95 37.23 36.52 35.08 34.95 34.37 33.37 33.28 33.08 32.92 30.38 29.46 31.87 32.46 33.49 32.87 33.77 34.07 34.93 35.63
47.59 46.80 46.47 46.43 46.76 46.18 45.97 45.69 45.17 44.60 43.42 43.47 43.55 43.24 42.20 41.36 40.33 39.78 39.36 39.08 38.65 38.41 38.11 37.27 36.05 34.94 33.70 32.29 30.89 30.98 31.09 29.94 29.44 28.36 28.21 28.89 30.59 32.23 31.91 31.06 30.71 33.75 33.21
47.30 45.96 45.93 46.25 46.08 45.68 45.26 45.07 44.48 43.62 43.31 43.35 42.73 42.13 41.01 40.19 39.43 38.69 38.90 38.26 36.99 36.54 36.77 36.02 35.48 33.07 30.66 30.22 29.54 29.13 28.34 27.28 26.90 26.61 26.51 27.71 28.14 28.67 28.70 30.54 29.79 31.09 32.50
45.93 45.12 45.39 44.92 44.33 44.53 44.31 43.83 43.07 42.61 42.63 42.47 42.00 41.07 40.33 39.28 31.71 31.44 31.37 35.60 35.69 35.10 34.26 34.47 34.54 34.08 33.12 30.95 30.45 28.88 28.69 26.44 26.33 27.02 26.21 25.80 26.31 28.00 29.84 29.26 29.46 28.54 26.70
44.62 44.67 44.24 43.59 43.49 43.09 42.86 42.32 41.71 41.76 42.10 41.53 41.28 40.39 39.76 39.53 31.56 30.09 29.18 33.47 34.35 34.59 34.09 33.26 32.76 33.05 31.93 31.51 30.19 29.18 28.84 29.74 28.64 28.70 26.93 27.10 27.13 28.46 29.20 27.91 28.19 28.18 28.27
43.96 43.59 42.92 42.90 41.84 42.20 41.64 41.20 41.31 41.54 41.13 40.37 40.17 39.94 39.41 37.32 30.97 29.43 28.66 32.42 34.57 34.43 33.86 33.21 32.29 31.84 30.48 27.29 27.10 27.15 28.07 28.96 29.78 29.77 28.99 28.13 28.41 29.03 28.78 28.85 28.87 29.42 30.54
42.48 42.01 41.84 41.77 41.03 41.08 40.31 40.52 41.13 40.57 40.11 39.71 39.87 39.62 38.39 36.36 30.51 29.60 28.28 32.73 33.11 32.93 33.23 32.94 31.86 30.40 27.54 26.00 25.11 24.67 25.50 27.27 30.17 30.12 28.95 29.16 29.85 30.37 30.47 30.05 28.26 27.48 27.04
41.43 40.79 41.19 41.42 40.72 40.19 40.46 40.29 40.74 40.02 39.23 39.17 38.47 38.96 34.62 36.99 30.16 29.52 28.56 32.13 31.33 31.21 32.37 32.02 29.15 26.83 24.89 24.70 24.17 23.66 22.75 25.44 25.70 25.80 26.70 28.73 30.19 30.85 30.82 30.73 30.32 27.71 27.32
40.91 40.92 40.74 40.93 40.52 40.56 40.41 40.07 39.48 39.05 38.84 38.14 36.89 37.31 37.01 35.93 34.79 29.54 28.29 29.69 30.74 30.06 29.41 29.91 30.94 26.67 25.02 24.04 23.95 23.68 23.88 23.83 23.96 25.35 26.77 27.64 28.80 29.56 30.11 31.41 31.72 30.87 28.77
39.67 39.56 39.68 40.02 39.92 39.83 38.86 38.78 39.20 38.63 37.36 36.32 36.01 35.16 35.52 35.77 32.12 30.04 28.84 27.49 28.21 28.12 28.33 29.86 29.93 26.09 24.22 23.82 24.09 24.19 23.31 23.49 26.61 25.73 25.60 25.70 26.13 26.94 28.45 30.63 32.43 33.04 33.88
38.70 38.29 38.97 39.79 39.57 38.92 38.20 38.22 37.46 37.52 36.22 35.47 34.14 34.22 34.09 35.47 35.53 31.29 29.54 27.93 26.98 27.65 29.57 28.90 25.98 25.75 24.83 25.31 25.29 24.10 23.61 25.91 24.20 23.70 23.48 24.12 25.96 27.97 29.46 30.81 31.92 32.97 33.22
37.04 37.80 38.63 37.95 37.48 38.71 38.12 37.90 36.82 35.23 35.42 34.07 33.45 33.28 33.52 33.65 34.35 34.35 31.40 30.51 28.26 28.56 29.14 29.77 27.62 26.25 25.70 24.84 26.05 27.65 27.02 26.33 23.69 23.27 23.24 24.97 26.91 27.20 27.46 29.17 29.12 30.15 30.81
37.21 36.98 36.75 36.98 37.26 37.06 37.35 37.54 36.45 36.85 35.62 34.28 34.26 34.25 34.58 33.61 32.77 32.78 31.99 31.84 31.56 29.75 26.69 27.78 27.89 28.00 26.93 27.23 27.27 26.91 26.82 26.18 24.53 23.66 23.01 23.54 24.30 24.77 25.52 27.94 27.92 28.64 27.63
34.85 35.28 36.46 36.24 36.37 36.52 35.60 35.65 34.58 32.37 32.67 31.98 31.70 32.30 36.20 32.51 31.00 30.17 29.57 28.49 28.04 27.18 26.15 26.29 27.13 27.68 26.62 25.81 25.90 25.76 26.13 25.04 24.41 23.27 23.28 22.87 22.40 22.83 23.71 25.71 26.44 26.17 25.49
34.75 34.83 35.45 34.86 35.86 35.08 35.07 34.71 32.97 35.18 32.68 31.97 31.55 31.19 31.20 31.70 31.80 31.20 30.16 28.90 28.47 26.95 24.97 26.30 27.59 27.89 27.05 26.16 26.47 25.93 24.87 24.99 23.72 24.01 23.18 23.16 22.25 22.16 23.39 24.09 24.22 24.46 23.93
35.57 32.92 35.49 36.55 36.08 34.45 34.00 33.84 34.18 33.34 32.87 34.19 32.71 31.32 31.39 31.30 30.99 31.06 30.79 29.23 27.31 27.34 26.49 26.74 26.99 27.91 27.22 26.61 26.74 26.11 25.50 25.00 24.56 23.30 22.85 23.04 22.81 22.00 21.46 21.69 22.90 22.84 22.60
36.24 36.68 37.61 37.52 36.32 34.68 34.48 33.03 33.86 33.10 32.70 32.98 34.22 32.18 31.91 30.97 30.98 30.80 30.55 29.20 28.06 27.66 27.91 28.33 29.96 29.00 27.84 27.43 27.75 26.41 25.38 24.19 23.73 22.79 22.97 22.53 22.75 22.32 21.80 21.10 21.80 22.20 22.47
38.19 34.32 33.84 36.04 35.89 34.74 34.18 32.53 32.73 32.92 32.75 32.67 32.40 32.77 33.36 31.96 30.94 30.26 30.94 30.67 29.82 29.38 29.29 28.63 29.59 29.83 29.43 28.40 27.99 27.26 25.90 25.13 24.43 23.80 23.36 23.03 22.95 22.53 21.89 21.37 21.00 20.24 21.37
37.94 37.26 33.91 35.50 35.19 34.91 33.92 33.64 33.17 32.83 32.58 32.37 32.95 33.73 32.49 31.58 32.22 32.20 31.70 31.82 31.19 30.75 30.59 29.84 30.48 30.71 30.15 28.96 27.24 26.46 25.61 25.23 24.44 23.65 23.09 22.70 21.87 20.93 22.59 22.50 22.03 21.34 20.77
37.27 36.27 35.81 35.29 35.32 35.16 33.92 33.74 33.61 32.62 32.34 31.95 32.92 33.94 31.39 31.91 31.44 31.79 32.35 32.39 32.72 32.97 32.84 31.93 31.10 30.61 30.05 28.93 28.43 27.59 26.04 25.38 24.59 23.95 23.08 21.72 21.29 22.06 22.15 21.92 21.93 21.13 21.06
34.86 34.24 34.32 34.32 33.50 33.18 33.62 33.64 32.99 33.05 32.86 32.79 32.63 32.89 33.67 32.61 32.47 31.95 31.72 32.71 33.01 32.82 33.09 32.64 32.17 31.16 31.16 31.10 30.63 28.28 26.13 25.59 25.56 25.12 22.78 21.35 21.10 21.79 21.39 21.34 20.86 20.53 19.54
34.39 34.27 33.29 32.62 32.52 32.12 32.32 32.00 32.78 32.39 32.93 32.75 32.43 32.55 32.61 32.80 32.25 32.43 32.60 32.96 33.10 32.95 32.87 32.29 31.73 30.72 30.39 30.67 30.30 28.59 27.75 27.53 26.15 24.30 21.54 20.45 20.14 20.98 20.70 20.09 20.03 20.01 19.70
33.70 32.98 32.24 32.09 32.05 32.36 31.87 32.01 32.07 32.07 32.07 32.25 32.07 32.07 32.90 32.61 32.80 32.43 32.80 32.98 32.98 32.25 32.42 32.24 32.08 31.12 30.32 30.12 29.35 27.95 27.52 26.07 24.60 23.86 22.65 20.39 19.28 18.59 17.97 18.94 18.81 18.85 19.45
32.11 32.74 32.80 32.42 32.35 31.77 31.48 30.64 30.64 30.91 30.95 31.35 31.89 32.25 32.43 32.74 32.93 32.80 32.98 32.74 32.78 32.96 32.80 32.61 32.19 31.26 30.45 30.21 29.39 28.60 27.22 24.68 21.19 20.12 21.38 21.47 19.92 19.94 20.30 19.50 18.50 18.32 19.07

GFSGL_sfc_wetblb_036.txt.gz
Wetbulb
51.51 51.01 50.23 49.40 48.23 47.46 47.12 45.98 44.73 44.26 43.98 43.42 42.67 42.15 41.94 41.67 41.75 40.12 39.92 40.29 38.95 38.33 37.98 37.43 36.55 36.74 35.63 35.15 34.34 33.65 31.37 30.41 27.15 29.39 31.39 31.57 30.67 30.48 32.23 33.02 34.03 33.00 33.67
51.21 50.68 48.80 48.23 47.79 46.91 46.65 46.02 44.73 43.47 43.85 42.69 42.33 41.92 42.20 41.46 40.20 38.94 38.62 39.39 37.53 36.44 36.09 35.50 35.13 37.36 33.68 32.39 30.93 29.46 29.18 29.25 27.45 25.71 28.11 28.48 28.32 29.98 30.58 30.31 32.58 34.21 32.94
50.49 48.09 47.39 47.35 46.82 45.79 46.07 44.84 44.28 43.66 42.69 42.12 42.04 41.53 41.22 40.06 38.98 38.89 38.19 37.56 36.95 36.14 35.49 35.09 34.35 32.67 29.77 29.30 28.09 26.91 27.42 29.55 27.53 25.48 24.84 27.37 27.74 28.73 28.97 30.21 30.50 31.15 33.63
48.68 47.43 46.54 45.61 46.00 45.62 45.16 44.02 43.69 43.44 42.27 41.69 41.84 42.01 41.67 40.17 39.34 38.94 38.52 37.02 35.73 35.28 35.36 34.41 32.58 31.43 28.61 26.75 27.02 25.37 26.54 24.93 25.00 24.37 24.32 24.88 26.09 27.95 28.25 26.51 26.66 28.94 28.69
48.17 45.83 45.20 45.89 46.03 45.19 44.14 43.71 43.31 42.80 41.98 42.03 41.54 41.13 39.98 38.93 38.88 36.83 35.91 33.74 32.96 32.13 32.62 33.32 32.05 31.65 32.97 30.12 27.09 25.00 24.53 23.83 23.48 22.87 22.88 24.08 24.28 24.03 23.60 26.55 26.37 27.33 27.81
46.66 45.41 45.48 45.38 44.36 43.98 43.18 42.98 42.36 41.97 41.55 41.29 40.19 40.22 38.45 38.88 33.40 32.75 32.27 30.42 31.87 31.34 29.72 30.24 30.71 33.05 32.21 32.11 31.18 30.23 27.73 23.39 22.55 22.67 23.07 22.60 23.42 25.44 26.78 24.49 24.27 23.59 21.89
45.12 44.95 44.46 43.91 43.15 42.67 42.32 41.79 40.98 40.35 40.11 39.57 39.44 39.05 37.65 36.37 33.39 31.91 30.03 29.63 29.22 29.60 29.35 29.21 29.81 31.99 28.88 26.44 27.77 27.89 27.24 28.86 27.85 25.72 24.06 25.03 25.54 23.90 24.08 23.08 22.96 22.99 23.07
43.26 43.59 44.13 42.92 42.21 41.27 41.14 40.53 40.14 40.06 39.29 38.31 37.59 38.02 37.85 37.50 33.24 31.96 30.23 27.64 28.43 29.61 29.82 29.26 28.04 27.52 24.60 24.89 23.94 22.67 23.85 24.61 25.47 27.07 24.21 23.27 24.44 25.60 25.48 25.66 25.10 25.16 26.30
42.56 42.70 42.21 41.55 40.32 40.33 39.96 39.33 39.39 38.89 38.33 37.65 37.55 37.14 36.99 33.18 32.56 31.43 28.91 27.65 28.58 28.71 30.25 29.87 29.24 27.15 26.15 26.66 23.31 22.18 22.11 23.03 27.91 28.27 27.41 28.20 29.10 30.42 30.39 28.19 25.40 24.25 22.61
40.07 39.99 40.71 40.62 39.79 39.03 39.27 38.89 38.78 38.53 38.15 37.68 36.76 36.40 34.55 33.42 31.95 31.00 28.92 27.61 27.03 27.58 28.22 28.30 28.03 25.75 25.79 25.45 21.28 20.61 19.03 21.41 21.94 21.85 23.54 26.01 27.56 28.37 30.09 29.37 27.16 24.89 24.73
40.94 40.17 39.59 39.77 39.47 39.50 39.14 38.54 37.12 36.67 36.16 34.72 33.51 33.71 34.14 33.83 30.73 31.35 30.32 27.21 26.84 26.96 26.46 25.80 26.60 26.76 26.27 25.85 24.75 21.52 20.89 22.98 22.59 22.10 23.88 24.55 26.35 27.04 26.80 27.24 27.60 27.69 27.15
38.91 38.64 38.99 38.66 38.78 38.71 37.60 36.86 36.79 36.10 34.31 33.45 32.53 32.41 31.95 32.37 33.07 31.69 30.80 29.28 29.32 24.28 25.72 26.02 26.48 27.98 27.33 26.07 24.39 25.01 25.22 23.87 20.69 19.61 21.48 22.77 23.82 24.84 26.21 26.71 28.39 28.94 30.40
38.30 37.37 37.39 38.08 38.19 37.93 36.38 35.65 34.77 34.33 32.40 32.00 31.55 32.14 32.39 31.64 31.19 32.61 31.28 30.17 28.88 24.23 25.95 27.69 28.58 27.70 27.89 25.84 27.30 26.21 22.39 21.03 18.65 15.33 19.12 20.07 22.41 25.06 26.75 26.52 27.63 28.75 29.70
36.32 36.30 37.06 36.37 36.04 36.36 36.23 35.31 34.41 32.95 31.83 31.23 31.81 31.91 30.34 30.36 31.29 31.43 28.78 28.28 28.77 27.22 26.44 27.13 25.46 24.78 22.26 22.56 21.71 24.58 23.25 21.23 19.05 17.19 16.78 19.92 22.23 22.88 23.29 25.00 24.25 26.08 25.91
36.34 36.13 35.74 35.61 35.57 35.38 35.72 35.16 32.21 33.10 32.67 31.02 31.46 31.50 29.27 31.04 30.14 32.34 31.61 30.71 29.87 28.73 22.20 21.73 21.20 23.78 23.06 22.52 22.88 22.77 22.28 21.88 19.66 17.87 16.67 17.64 20.15 21.58 21.57 23.22 24.76 24.51 23.07
34.56 34.24 33.69 33.82 33.84 34.35 34.21 34.10 34.93 32.28 33.06 32.80 32.73 30.04 30.51 33.73 32.77 32.20 31.85 31.18 29.98 28.24 21.90 18.92 18.17 20.47 20.19 20.74 19.24 20.39 20.31 19.89 19.99 18.78 17.49 18.68 18.93 18.22 20.03 21.77 23.96 23.00 21.91
33.20 33.17 32.99 32.30 33.08 32.90 31.67 31.04 29.93 32.51 34.05 32.78 32.81 32.48 32.21 31.65 32.73 31.85 31.19 30.76 29.75 27.75 20.58 19.80 21.01 22.49 23.61 21.82 20.74 20.29 18.32 18.80 19.19 19.34 16.57 16.83 17.35 19.81 18.36 20.11 20.51 21.42 20.02
34.36 32.74 33.00 33.33 33.54 33.32 33.17 32.45 31.44 30.52 29.53 30.25 32.58 31.85 32.11 31.88 31.77 31.83 31.61 30.96 26.87 26.94 25.01 22.99 23.17 23.57 24.51 22.82 21.83 20.84 19.50 17.63 17.08 17.57 14.62 14.76 12.79 16.06 18.26 17.26 18.83 18.41 19.01
34.90 34.49 34.35 34.71 34.01 32.76 31.71 31.92 31.23 30.51 30.21 30.21 30.74 29.85 29.42 32.24 32.24 31.60 31.12 27.90 26.19 25.15 25.58 25.09 24.61 24.85 26.49 23.67 21.17 20.31 17.04 17.23 15.24 11.86 14.19 15.29 11.66 15.71 14.02 18.50 14.81 16.46 17.78
36.50 34.07 32.91 34.28 33.46 33.45 32.36 31.87 31.27 31.02 30.58 30.02 30.05 30.38 29.82 30.63 29.86 28.11 27.91 27.19 26.26 25.72 26.04 27.39 26.43 25.67 27.44 25.29 22.63 21.62 21.85 16.46 15.94 16.77 15.55 11.58 15.28 12.27 13.81 15.00 12.76 11.63 16.28
35.15 35.12 33.59 33.67 33.24 33.30 33.29 32.68 32.32 31.92 31.16 30.34 30.42 30.83 30.04 31.10 31.04 29.91 28.03 27.89 27.58 27.01 26.82 26.51 26.37 26.38 26.47 26.11 23.38 22.88 24.31 18.89 20.87 16.53 15.22 14.07 10.37 9.98 14.94 16.26 16.00 14.75 16.46
33.20 33.51 33.11 32.58 32.60 32.55 32.10 31.90 31.01 30.78 30.85 30.23 29.67 30.18 29.88 31.45 31.55 30.45 30.24 29.17 30.80 30.26 29.83 28.41 27.63 27.32 27.79 27.06 25.71 23.73 23.31 20.29 17.36 15.70 15.10 14.52 12.28 12.58 13.01 12.25 14.25 12.05 13.48
31.07 31.38 32.05 32.07 31.88 31.83 31.34 30.10 29.68 29.37 29.77 31.10 31.26 30.66 30.15 30.80 31.61 30.58 30.34 30.69 30.74 31.05 31.20 30.32 29.82 28.74 28.46 28.03 27.95 26.53 24.86 22.72 20.95 18.29 14.76 12.88 12.24 12.21 11.11 10.46 11.19 11.74 10.01
29.12 29.11 29.72 30.35 31.17 31.09 30.36 29.79 29.47 27.94 29.34 30.96 31.89 30.73 30.20 30.66 31.07 31.88 31.86 31.96 31.17 31.12 31.79 31.77 31.12 30.02 30.00 29.80 29.00 28.11 26.15 25.67 23.95 19.34 14.59 11.98 11.39 12.46 11.40 10.55 10.06 9.06 8.81
28.08 28.53 28.99 29.67 29.93 30.66 30.73 29.40 28.62 28.74 29.36 29.86 30.02 30.73 30.42 30.82 30.71 31.26 32.00 32.12 31.88 31.88 31.91 31.91 31.70 31.38 30.80 29.88 29.29 28.08 26.55 25.64 24.32 18.49 17.28 12.63 10.15 8.26 8.56 9.04 7.66 10.03 9.08
26.33 26.47 29.02 29.41 29.49 30.25 28.96 27.12 26.24 26.33 25.30 25.15 25.61 26.11 26.46 27.14 28.44 30.53 30.82 30.25 30.36 30.58 31.43 32.33 32.11 31.91 30.97 30.47 29.60 28.98 26.35 25.56 23.09 19.78 19.57 17.41 14.17 9.93 9.57 11.33 9.56 8.44 10.54

GFSGL_sfc_wetblb_042.txt.gz
Wetbulb
48.00 46.64 46.24 47.01 46.52 46.88 46.53 44.87 44.23 42.78 42.93 42.41 41.68 39.53 39.45 37.83 38.38 36.84 36.25 36.93 35.46 34.60 34.10 34.18 34.18 33.92 31.55 29.56 29.09 27.55 25.37 24.72 21.70 23.24 24.78 24.95 24.06 24.62 27.24 28.19 29.59 28.99 30.01
46.69 46.06 45.04 46.12 45.92 45.61 44.73 43.72 43.85 43.06 43.26 41.33 39.59 39.07 39.06 38.96 37.29 36.28 35.47 35.40 34.60 33.74 33.70 33.13 33.09 34.30 29.13 28.54 26.72 24.90 24.06 23.73 22.98 20.93 21.93 22.50 23.05 24.77 25.56 25.16 28.61 30.80 28.76
46.24 46.12 45.60 45.30 45.05 44.51 44.20 43.30 41.63 41.05 40.52 39.43 39.08 38.84 38.91 38.25 36.91 36.63 35.99 35.54 34.85 34.14 33.05 31.02 31.36 30.49 27.94 27.17 26.12 24.57 23.42 26.15 22.77 21.45 21.74 22.81 22.65 23.65 24.26 25.71 26.08 25.92 29.72
46.58 46.05 45.16 44.85 44.21 43.67 42.66 40.84 40.70 40.27 38.41 38.64 38.84 38.74 38.91 38.06 37.68 37.71 36.59 35.33 34.21 32.51 31.97 31.00 30.60 29.37 27.29 25.95 25.38 23.70 23.80 22.33 22.33 21.57 21.89 22.21 22.15 24.11 23.96 22.75 23.94 25.33 24.74
45.49 45.38 45.53 44.74 42.91 42.90 41.55 40.51 40.56 39.42 39.63 38.61 38.12 39.08 38.95 38.40 37.95 37.16 36.01 33.23 31.57 31.13 30.94 30.65 30.24 30.29 33.27 29.91 25.26 23.12 22.87 21.63 21.06 20.82 20.53 21.17 21.69 21.53 21.63 23.71 23.61 22.65 23.26
44.35 43.52 44.29 44.50 42.30 41.58 40.38 40.90 40.36 39.91 39.45 38.36 38.70 38.70 37.94 37.78 36.60 36.88 34.82 31.45 31.63 29.81 28.49 28.35 28.43 31.09 31.27 32.14 30.77 29.11 25.90 21.17 19.79 18.73 19.99 19.12 19.69 20.90 21.93 21.19 20.93 20.14 19.75
44.16 44.10 42.48 41.16 39.97 39.53 39.98 39.21 38.31 37.49 37.94 37.62 37.27 37.16 37.07 37.11 35.82 36.32 34.79 30.47 29.50 28.81 27.56 27.88 28.08 29.42 28.69 26.02 27.84 27.02 25.35 25.97 24.23 20.52 18.83 19.28 19.03 20.42 20.86 20.84 21.68 22.01 21.87
41.50 41.37 39.55 38.64 38.68 38.80 38.73 38.32 38.33 37.99 37.17 36.47 36.46 36.62 35.88 36.08 35.43 35.56 33.70 28.64 27.68 27.98 28.40 28.23 26.54 25.77 25.40 24.82 23.41 22.53 22.69 22.57 22.77 23.31 21.56 20.60 20.94 23.03 24.59 25.59 25.71 26.33 25.47
37.32 37.95 38.71 38.46 38.31 38.94 38.97 38.81 38.12 36.81 35.56 34.80 35.50 35.02 34.17 33.79 35.37 34.50 31.86 27.72 27.20 27.23 29.02 28.91 27.32 25.92 26.81 28.64 23.73 22.60 21.74 21.79 24.93 26.34 26.56 27.07 27.23 27.62 27.95 25.92 22.73 21.50 19.84
37.53 38.71 39.63 39.93 39.63 38.68 37.13 35.93 35.46 34.36 34.57 34.25 33.92 33.99 34.47 32.52 34.33 34.64 31.93 27.93 27.14 26.87 26.89 27.46 29.73 26.24 27.72 27.25 22.12 20.74 17.94 20.34 21.17 21.81 22.21 22.88 24.31 24.42 26.77 25.11 23.42 21.26 21.14
39.24 39.50 39.64 38.20 37.08 36.55 35.24 34.13 33.38 32.86 32.07 30.49 30.57 30.56 31.00 31.27 30.53 34.61 33.91 27.29 27.14 26.75 26.57 25.90 25.55 28.59 28.08 27.87 27.76 21.61 19.45 22.21 22.40 22.49 21.39 21.24 21.88 22.97 23.09 23.90 24.20 22.95 21.77
39.02 36.83 36.10 35.64 35.18 35.35 32.96 31.90 31.91 30.93 29.54 29.44 26.11 29.02 28.69 30.15 32.01 32.85 34.11 32.28 28.90 25.78 26.35 27.21 26.43 28.72 28.92 28.72 27.52 26.64 27.19 24.71 18.01 17.40 17.56 18.64 18.93 19.73 21.46 22.54 23.64 24.44 24.93
34.68 33.74 33.38 33.74 33.81 33.33 31.10 30.27 29.48 29.20 26.71 27.68 27.89 26.78 27.25 30.19 30.61 32.71 33.04 32.95 31.76 26.66 27.22 27.59 27.93 28.67 29.48 28.18 29.00 28.41 24.30 20.56 17.43 10.97 16.39 16.36 17.35 19.38 22.16 22.10 23.13 23.47 23.63
32.38 32.14 32.42 31.65 31.25 31.08 31.05 30.44 29.66 26.39 26.41 28.53 27.70 27.50 26.94 26.99 27.29 27.69 28.99 30.12 32.64 29.92 26.76 27.77 26.32 24.56 20.97 21.64 21.41 24.16 22.68 20.53 19.36 17.77 14.32 15.26 17.09 17.60 17.87 19.16 18.68 20.58 20.89
32.07 31.96 31.00 30.30 29.98 29.75 30.45 30.71 30.00 29.87 29.29 28.42 26.95 27.03 24.50 25.66 27.34 30.83 30.25 28.40 28.08 29.55 27.76 24.47 23.15 21.67 20.77 21.52 21.37 21.78 21.52 20.75 18.83 16.60 12.85 13.36 15.62 17.30 17.00 18.84 19.32 19.74 16.77
30.44 29.89 29.13 28.77 28.31 28.96 29.45 30.13 32.41 31.82 32.21 32.38 32.33 28.57 27.68 30.60 31.93 32.87 33.67 33.21 32.37 30.81 25.93 23.19 22.91 20.98 20.75 20.68 18.98 19.01 19.54 18.56 19.29 17.66 12.86 14.53 14.15 13.38 14.79 18.11 19.01 16.14 16.23
29.53 29.64 29.62 28.99 29.32 29.18 29.48 29.03 28.43 31.71 32.71 32.86 33.08 33.07 33.46 33.06 32.94 33.15 33.24 33.48 32.73 31.71 26.32 19.13 22.30 19.09 18.96 19.51 20.89 20.81 20.57 20.12 18.58 18.20 16.47 14.28 11.83 14.41 12.81 14.95 15.57 15.65 15.15
29.75 29.34 28.29 28.30 28.49 29.26 30.51 30.70 30.92 30.28 29.43 30.53 32.39 32.17 33.11 32.69 32.87 33.04 33.05 32.64 30.59 30.44 26.65 22.20 21.55 19.16 19.05 19.77 20.36 20.36 21.15 16.87 16.66 16.58 13.44 9.15 3.86 8.90 9.80 12.24 14.01 7.98 12.83
27.95 27.48 27.23 26.94 27.26 27.20 28.04 28.84 29.84 30.60 30.85 30.40 31.26 27.95 28.02 30.82 31.87 32.33 32.58 30.68 29.39 26.18 26.79 24.51 23.27 22.02 20.66 20.80 20.32 18.05 17.10 16.14 15.04 10.25 11.85 8.87 1.93 8.69 7.26 9.50 9.10 9.87 9.15
26.60 25.50 24.99 26.00 25.24 24.91 25.23 25.41 26.01 27.24 29.13 30.08 29.65 26.90 23.36 19.57 18.41 24.84 26.02 29.97 30.27 27.94 26.21 26.10 25.73 23.91 22.53 21.12 21.09 19.64 15.79 15.87 15.94 13.17 9.49 6.13 1.81 4.48 5.44 4.67 3.85 5.46 11.97
20.91 21.68 21.44 23.27 23.61 24.22 23.37 23.95 24.70 25.61 26.56 28.36 29.88 27.25 22.35 23.02 25.78 28.50 28.19 28.62 29.75 28.97 27.54 26.60 26.35 25.09 24.62 23.22 22.80 22.45 20.74 19.13 20.13 18.70 14.93 12.71 5.08 5.01 7.80 5.39 4.64 7.99 11.39
20.39 20.95 21.73 22.42 22.80 21.80 22.11 24.60 25.60 26.22 27.93 27.82 27.97 22.15 18.89 20.06 26.70 27.79 28.96 29.60 27.50 28.33 29.26 28.56 27.40 25.85 25.78 25.54 25.07 23.83 22.32 21.03 19.56 18.21 15.56 12.70 10.88 8.70 5.02 5.46 4.07 2.76 6.64
18.40 17.53 17.14 17.24 17.30 17.26 18.95 21.32 21.41 20.69 23.22 25.37 25.67 24.53 23.47 22.65 23.66 26.26 28.18 27.01 27.56 30.69 30.62 29.62 28.99 27.39 27.53 27.34 27.07 25.88 23.00 22.38 22.51 20.22 17.78 12.69 10.70 10.03 3.64 4.03 4.67 3.21 3.22
13.68 14.75 12.53 12.05 12.40 13.09 14.24 14.99 16.79 16.97 17.30 17.82 17.90 18.27 18.65 18.71 19.41 21.92 22.92 22.13 21.67 23.33 29.85 31.21 29.27 29.09 28.68 27.87 28.58 28.41 27.24 25.96 25.37 22.37 21.63 17.52 14.59 10.77 6.31 4.12 4.44 1.48 1.40
9.24 10.16 7.99 8.33 8.91 9.38 9.98 11.32 11.62 12.00 12.81 13.55 14.29 15.02 15.35 16.84 15.72 14.66 15.91 16.87 17.66 18.54 19.67 22.59 30.96 30.67 30.02 29.08 28.41 28.22 27.91 27.93 26.74 25.03 23.20 20.63 17.87 14.37 11.39 9.19 2.84 4.43 1.08
9.20 9.21 6.97 6.02 6.58 6.68 6.87 7.72 7.65 8.51 8.68 10.32 11.68 12.30 12.50 13.89 12.62 11.69 13.12 12.84 14.48 16.19 18.21 19.34 21.75 29.19 30.94 30.42 29.96 29.24 28.60 27.90 26.38 25.27 23.24 21.32 17.76 14.29 11.85 11.03 8.04 3.24 5.35

GFSGL_sfc_wetblb_045.txt.gz
Wetbulb
48.14 47.16 46.93 46.93 46.83 46.82 45.83 44.90 44.09 43.42 42.05 42.63 42.80 41.92 40.57 38.70 37.96 36.47 35.82 36.65 36.10 34.90 34.50 34.33 33.93 33.66 32.35 30.84 29.74 28.17 26.17 24.98 22.29 23.29 24.20 24.05 23.25 23.35 25.00 25.32 27.26 26.71 27.77
47.89 46.69 47.18 46.33 46.45 45.12 44.21 43.30 42.56 42.03 43.96 43.02 42.01 39.92 39.24 38.40 37.23 36.69 36.26 36.30 34.42 32.99 33.32 32.42 32.68 34.39 30.22 29.25 27.76 26.27 24.94 24.41 23.24 21.39 21.98 22.10 22.37 23.37 23.45 23.47 26.60 28.95 27.34
47.25 46.95 47.01 46.22 45.42 44.67 43.74 43.33 43.09 42.05 39.73 38.65 38.11 39.03 38.83 37.80 37.59 36.07 35.41 34.59 34.02 33.65 33.42 32.52 31.79 30.86 27.92 27.08 26.18 25.14 24.03 25.69 23.12 21.18 21.26 22.42 22.04 22.33 23.08 24.04 24.74 25.35 27.83
46.45 45.37 45.72 44.10 44.51 44.79 43.06 42.08 40.99 40.57 38.86 39.02 39.50 39.38 39.26 38.67 37.24 36.25 35.30 33.97 34.01 33.57 32.36 30.90 30.26 29.36 28.47 26.81 25.81 24.48 24.07 22.28 21.91 21.05 20.98 21.39 21.19 22.86 22.76 21.81 22.39 24.63 24.16
45.48 46.03 43.83 43.18 43.34 42.66 41.52 39.44 39.92 40.16 39.47 39.46 39.19 38.97 38.78 38.12 37.83 36.70 35.79 33.86 32.74 31.09 31.10 31.04 29.69 30.41 32.20 28.90 26.00 23.44 22.37 21.45 20.72 20.01 19.50 19.62 20.15 19.63 19.96 21.44 20.70 21.40 22.69
45.46 43.50 43.95 43.76 42.10 40.46 40.41 39.73 39.22 38.83 38.88 38.99 38.94 38.51 37.72 37.48 36.60 37.20 35.80 32.30 31.57 30.35 29.13 28.75 30.09 31.90 32.15 33.69 32.81 29.80 25.57 21.58 20.06 18.24 18.29 17.81 18.03 19.04 19.52 19.30 19.60 19.82 19.47
43.21 43.24 41.45 40.53 39.25 39.24 39.63 39.35 39.17 39.42 39.65 38.70 37.64 37.01 35.94 35.34 36.69 37.13 36.55 31.58 29.97 28.44 27.93 27.36 27.55 29.18 30.38 28.42 31.00 29.84 27.95 27.28 24.37 19.88 17.54 18.25 18.25 19.61 19.96 20.56 21.12 22.16 22.09
39.85 39.23 38.81 38.62 37.86 38.69 39.05 39.51 39.38 39.36 36.92 34.65 34.14 33.79 33.53 34.56 35.91 36.27 35.38 30.04 27.95 28.00 27.96 28.70 26.45 27.44 27.39 26.03 24.04 23.20 23.06 23.39 23.49 22.69 20.52 20.51 20.88 21.82 22.36 24.06 24.85 24.33 23.96
37.91 38.19 39.03 39.58 39.45 40.07 39.61 39.62 38.55 36.15 34.11 32.58 33.18 32.76 32.35 32.26 34.90 35.44 33.61 28.08 26.99 27.04 28.19 27.74 28.40 26.80 28.61 30.44 24.28 23.17 22.58 23.05 25.70 26.50 26.74 27.11 27.28 27.05 26.12 21.44 20.19 20.28 18.34
37.93 38.69 39.64 40.19 40.46 39.55 38.25 36.22 34.21 33.26 33.05 32.53 31.87 31.64 32.49 31.07 33.57 35.09 34.04 27.55 26.90 27.52 26.74 27.80 31.47 28.51 29.01 29.41 23.97 21.62 19.33 21.69 21.30 21.29 22.06 23.14 24.05 23.81 25.73 23.06 21.41 19.19 19.12
40.49 41.52 40.86 38.76 37.38 36.27 34.03 32.83 31.71 30.75 29.97 29.03 29.46 29.50 29.84 30.32 30.53 34.25 35.16 28.80 28.29 28.02 27.31 27.22 27.90 30.14 29.72 29.57 28.16 22.24 20.77 22.85 21.69 21.50 22.15 21.39 21.61 22.16 22.82 22.91 22.64 21.00 19.04
37.95 36.56 34.75 34.00 33.85 33.92 31.73 30.68 30.24 29.26 28.28 28.29 25.58 27.92 28.32 29.16 31.53 32.49 34.32 34.10 30.63 27.25 27.58 27.69 28.10 29.91 30.42 29.51 28.07 27.71 28.14 24.51 20.76 19.36 18.54 18.64 18.43 19.13 21.09 21.65 22.65 23.05 23.24
33.20 32.57 32.40 32.46 32.35 31.52 29.93 29.49 28.70 28.33 26.75 27.60 27.72 27.87 28.82 28.60 28.03 32.50 33.51 33.44 33.13 28.70 29.23 28.76 29.30 30.10 30.43 28.99 29.43 29.20 25.79 22.73 19.24 12.99 16.61 17.51 16.47 19.07 21.38 21.60 22.70 22.49 22.62
31.26 31.12 31.06 30.55 30.34 29.87 29.55 29.28 28.39 26.75 27.29 28.76 28.54 28.32 28.41 28.24 26.60 26.76 27.58 27.82 31.67 31.72 28.43 28.31 28.91 28.11 27.01 25.83 24.95 26.59 22.91 21.43 19.97 18.87 16.67 15.40 16.39 16.34 16.28 18.08 16.24 18.34 18.87
30.40 30.08 30.08 29.44 28.98 29.35 29.34 29.15 29.58 30.13 29.71 30.07 29.72 29.15 28.64 27.88 28.60 29.47 28.48 26.35 26.33 28.50 30.29 28.10 25.95 24.98 23.90 24.45 23.80 23.13 21.74 19.95 18.64 15.17 14.41 14.39 15.55 16.51 15.65 16.69 17.77 18.21 13.74
29.62 29.20 27.96 28.04 28.02 28.53 28.67 28.82 31.77 31.52 32.40 32.59 32.60 31.30 32.05 32.12 32.12 32.49 33.22 33.04 33.19 31.80 28.06 26.05 24.61 23.36 23.09 23.55 22.65 22.16 19.95 18.38 20.54 18.51 15.14 15.65 15.92 14.11 13.50 16.01 16.98 13.80 13.61
27.05 28.13 27.22 26.77 26.61 26.30 26.60 26.32 24.92 27.96 31.30 32.14 32.72 32.99 33.11 33.13 33.46 33.70 32.77 33.39 32.89 32.01 28.21 26.12 23.73 24.30 24.13 23.95 23.00 21.27 20.45 19.91 20.71 19.29 17.13 15.59 15.37 14.35 11.97 13.53 12.98 13.26 12.45
25.98 26.16 24.38 24.60 24.63 24.83 23.62 23.59 23.97 23.64 23.45 24.94 29.40 31.77 32.94 33.18 32.85 33.24 32.87 32.53 30.43 30.42 29.45 28.26 24.67 25.01 23.99 23.32 22.49 21.88 20.75 19.73 16.74 16.05 13.52 13.59 11.04 10.53 9.44 11.74 12.21 6.70 10.63
22.83 21.89 21.96 21.79 22.31 21.85 22.83 22.82 22.49 22.81 23.32 23.84 25.14 27.31 27.49 30.62 31.07 31.95 32.03 29.61 28.64 28.65 28.60 28.33 27.81 25.67 24.37 23.92 22.74 21.50 20.42 18.24 12.90 9.85 15.11 13.88 8.74 10.55 8.39 9.56 8.32 8.04 7.98
20.86 20.43 19.66 21.13 21.23 21.68 21.91 21.28 21.54 21.78 21.74 23.77 23.78 24.84 27.30 18.75 26.14 16.49 16.45 18.64 26.24 28.66 28.95 26.23 26.82 26.05 25.36 24.24 22.41 20.28 17.54 15.30 13.18 13.48 12.89 15.16 11.21 8.46 8.91 6.14 1.20 3.26 10.31
19.46 19.49 17.77 19.23 19.08 17.93 17.59 17.68 19.47 20.34 18.42 17.83 18.85 23.57 25.10 27.13 24.48 25.03 26.94 27.48 27.65 27.59 29.23 27.75 26.19 27.10 26.11 24.69 23.06 21.59 20.27 18.49 18.08 17.32 16.85 15.94 10.22 7.06 9.06 7.29 3.10 7.07 10.11
16.83 16.43 15.67 13.81 14.98 13.79 13.49 15.68 15.52 15.10 15.47 15.57 16.29 17.52 18.36 19.43 20.19 22.08 23.27 21.85 23.96 28.71 29.89 27.36 27.92 27.59 26.91 25.73 24.45 23.08 22.27 20.43 19.20 18.81 17.60 16.76 14.97 12.89 7.75 4.14 2.84 2.64 5.73
12.57 12.08 10.10 11.28 10.57 9.48 10.18 10.25 12.04 10.81 11.09 12.12 13.47 14.85 15.27 16.03 16.06 14.77 16.06 15.87 17.36 18.49 19.72 21.81 27.25 28.85 27.90 27.33 27.46 26.71 24.80 23.41 22.47 21.35 19.41 17.14 15.96 13.75 5.73 5.19 4.20 2.23 2.71
9.66 7.68 7.75 6.20 6.21 6.74 5.38 5.89 7.53 6.94 7.43 7.78 9.23 11.32 12.16 12.77 13.05 12.30 13.22 13.00 12.52 13.98 15.93 17.51 19.60 21.09 27.86 27.56 28.03 27.70 26.89 26.53 26.20 23.49 22.31 19.27 17.58 14.51 11.94 6.07 6.59 1.45 0.37
0.85 -0.74 -1.47 2.59 1.24 1.62 1.54 3.55 3.11 3.80 3.82 4.52 6.10 7.30 9.78 10.95 10.76 10.42 11.19 10.99 10.79 10.33 12.04 14.16 16.82 17.89 20.34 24.83 28.11 28.11 27.90 27.36 26.57 25.23 23.60 20.99 19.31 16.32 15.23 12.62 6.16 5.48 3.03
4.31 2.19 0.60 -1.81 -1.65 -1.05 -1.13 0.48 -0.51 0.69 1.26 2.43 3.79 4.78 5.51 8.21 7.96 8.17 8.92 8.70 8.86 8.76 9.96 11.42 13.83 16.28 16.93 23.14 28.83 27.79 27.94 27.93 27.56 26.03 24.90 22.65 20.27 17.75 14.94 13.38 11.02 9.33 8.82

GFSGL_sfc_wetblb_048.txt.gz
Wetbulb
52.21 51.17 49.86 49.51 49.08 50.02 49.31 47.97 46.43 43.63 44.24 42.77 41.61 41.92 41.61 40.35 39.52 38.26 35.64 36.44 35.92 34.53 34.79 33.86 33.44 33.94 33.04 32.31 31.72 30.82 30.24 28.94 25.40 26.09 26.51 26.74 25.62 25.69 26.74 26.74 27.59 27.31 28.20
49.76 48.34 49.07 49.08 49.62 48.69 47.44 44.98 44.65 43.75 42.71 42.75 43.53 41.85 40.32 39.08 37.99 36.54 37.05 35.96 35.48 34.52 33.39 33.04 32.77 33.90 31.07 29.75 28.54 27.58 26.44 25.99 24.47 22.29 23.67 23.95 24.10 25.27 25.03 24.63 26.39 28.09 28.22
49.03 48.07 48.23 48.09 47.22 44.49 43.80 43.73 42.89 42.83 42.53 41.75 41.07 40.14 39.28 37.96 38.23 38.03 37.06 35.94 34.99 33.99 33.60 32.34 32.01 31.59 29.80 27.69 27.33 26.43 25.54 26.51 24.38 22.78 22.30 23.82 24.15 24.20 24.07 25.17 25.38 26.53 27.56
48.33 47.92 46.83 46.26 45.53 43.93 43.75 42.96 42.50 41.73 40.29 40.04 39.97 39.42 39.42 39.46 38.69 37.19 36.10 34.76 33.93 33.44 33.07 32.18 31.44 29.56 28.57 28.00 27.40 25.90 25.30 23.66 22.96 22.04 22.15 22.36 22.35 23.49 23.68 22.04 22.45 24.30 24.06
45.86 44.56 44.49 45.14 43.61 41.79 40.54 40.85 40.71 40.16 39.08 39.44 39.51 40.51 39.59 38.78 37.95 36.72 35.56 33.60 32.32 32.04 31.89 31.03 29.92 30.64 32.94 30.72 27.14 26.08 24.34 22.55 22.16 21.87 21.00 20.86 20.71 19.91 19.45 22.12 20.55 21.85 23.50
43.99 42.87 42.54 42.76 41.62 40.38 39.03 39.08 39.40 39.14 39.87 41.25 40.46 40.07 39.40 38.54 36.95 37.18 35.63 32.56 32.45 31.14 30.25 29.67 29.40 33.17 33.69 34.71 34.31 32.19 27.31 23.34 22.17 20.32 20.11 19.38 19.12 19.23 21.27 20.23 20.01 20.17 19.18
41.55 41.32 40.38 40.09 39.14 39.39 39.83 39.60 39.59 40.38 40.74 39.99 39.89 38.34 35.75 35.18 36.04 36.91 36.51 33.31 31.86 30.87 30.10 29.07 28.61 29.61 31.20 28.52 30.99 33.15 30.97 29.23 24.68 22.58 20.05 19.62 18.82 20.81 21.38 20.34 21.61 21.90 21.95
37.96 38.64 39.31 39.50 39.23 39.75 40.03 40.45 40.23 40.20 39.53 38.57 35.72 34.27 33.02 33.35 35.31 35.92 35.51 32.83 30.92 29.84 28.86 28.22 27.88 27.95 28.02 27.90 27.04 26.26 25.57 25.10 25.22 24.72 22.73 21.34 21.47 23.00 22.65 23.43 23.08 22.85 23.53
38.16 39.18 39.80 40.21 39.79 40.19 39.83 40.01 40.11 38.90 36.06 33.67 32.72 32.25 31.46 31.55 34.19 34.69 34.06 30.98 29.66 28.68 28.95 28.30 28.87 28.22 29.58 31.97 26.11 24.23 23.88 24.12 27.10 28.48 27.84 26.72 27.23 27.56 27.09 23.72 20.42 19.72 17.94
38.41 39.17 39.98 40.55 40.89 40.38 38.23 37.13 34.69 33.10 32.36 31.95 30.91 30.95 31.74 30.58 33.02 34.40 34.06 29.52 28.24 28.64 27.59 27.78 31.42 29.33 30.64 30.94 28.26 24.25 21.73 23.18 23.60 22.56 22.34 23.96 25.76 24.53 25.85 24.20 22.18 18.70 18.48
40.69 40.33 39.16 38.01 36.42 35.11 33.55 32.41 31.28 30.28 29.49 29.11 29.42 29.31 29.65 30.00 30.58 33.74 34.58 30.20 29.35 28.94 28.30 27.97 28.14 30.95 32.05 31.69 30.54 24.51 23.23 24.45 23.30 21.97 21.74 22.52 23.13 23.18 23.39 23.96 23.72 21.93 19.50
36.11 35.24 33.86 33.27 32.81 32.49 30.54 30.04 29.88 28.78 27.96 28.14 26.10 28.15 28.80 29.50 31.38 32.52 33.80 33.86 31.70 28.32 28.35 28.56 28.46 30.82 31.75 31.94 30.28 28.43 27.52 25.22 23.10 21.21 20.48 20.59 20.83 21.06 22.42 23.11 23.48 23.81 23.94
31.80 30.70 30.40 30.80 30.42 29.80 29.07 28.73 28.32 27.71 26.80 27.27 27.92 28.09 28.99 30.25 27.95 31.76 32.69 33.22 32.98 30.62 29.79 29.50 30.42 31.12 31.81 31.15 30.93 29.64 27.69 25.53 23.14 20.72 20.64 20.65 20.88 21.68 22.76 22.56 23.56 23.36 23.37
29.80 29.46 29.18 28.78 28.84 28.67 28.58 28.38 27.27 25.65 26.36 28.18 28.37 28.41 28.63 29.38 29.50 27.81 28.23 28.80 30.45 31.26 28.87 30.84 28.43 28.34 28.58 29.98 28.73 30.00 28.07 25.75 23.68 22.10 21.17 20.97 19.50 18.94 19.20 20.50 19.20 19.89 19.76
28.53 28.66 28.04 27.68 27.04 26.94 27.02 26.98 27.44 27.10 26.95 27.48 27.66 28.28 28.29 27.77 29.63 31.90 31.45 30.75 28.90 28.98 29.16 29.06 28.86 27.22 26.78 26.42 25.93 26.33 26.59 24.74 22.07 21.24 19.00 18.46 17.82 18.24 18.54 19.59 19.12 19.47 17.09
27.07 26.87 25.51 24.92 24.11 24.80 24.56 24.05 27.49 27.57 28.51 28.84 29.25 27.68 28.18 30.28 31.57 32.73 33.54 33.63 33.27 32.93 28.52 28.25 26.63 26.32 25.28 25.39 24.74 24.67 24.97 24.25 23.30 21.75 19.57 19.12 18.43 17.52 17.51 18.07 18.63 17.15 15.97
24.32 24.22 23.32 23.14 22.99 22.90 22.33 21.85 20.27 22.90 25.84 26.45 26.93 27.83 28.48 29.31 29.98 31.19 32.32 32.99 33.11 32.04 29.46 28.28 27.29 26.62 25.38 24.76 25.00 24.80 23.82 23.47 23.45 21.73 20.67 18.13 17.80 17.41 16.21 16.75 16.75 15.94 15.74
21.85 21.54 20.24 20.56 19.91 20.40 18.98 21.42 20.35 20.12 19.78 19.69 23.05 24.95 25.88 25.29 28.48 30.13 30.93 31.98 29.79 29.79 29.95 28.82 28.43 27.28 26.91 25.87 25.33 24.93 24.32 23.35 21.10 20.36 17.82 17.72 15.52 16.45 15.30 15.39 16.24 12.88 14.25
20.55 19.31 19.68 18.62 19.25 19.42 18.87 17.74 17.99 18.09 19.26 18.10 17.99 18.94 19.60 21.92 24.72 28.21 30.03 28.37 28.22 26.68 27.49 27.15 28.68 28.86 28.17 27.44 26.39 25.22 24.83 22.83 20.27 16.48 18.27 15.86 12.89 15.02 13.56 14.85 14.72 10.19 11.17
19.46 19.22 17.21 17.54 16.77 15.85 15.60 14.45 16.07 15.54 15.18 14.88 14.53 14.94 16.37 16.74 16.49 16.94 20.59 21.06 23.03 25.23 26.76 26.81 27.69 28.39 28.68 26.35 25.54 25.22 23.79 21.81 19.25 16.81 16.16 15.94 13.54 13.29 13.94 13.09 10.81 12.11 14.89
16.48 16.95 13.81 14.41 13.88 13.48 12.27 12.88 11.97 12.89 10.58 11.33 11.55 12.80 13.45 13.73 15.46 14.55 15.15 15.20 14.69 16.30 18.04 18.05 26.07 28.96 27.35 26.20 26.20 24.30 22.58 21.15 20.91 19.13 18.44 16.50 14.27 13.94 13.60 13.96 12.41 12.19 14.03
13.42 12.23 11.94 11.08 11.02 9.30 8.88 9.81 9.46 8.38 7.91 7.54 7.96 10.31 10.23 10.80 12.82 12.30 12.49 13.17 13.33 14.01 15.06 16.54 17.96 20.13 25.16 27.43 26.14 24.54 22.81 21.69 20.96 20.25 19.01 18.03 16.65 16.23 15.96 13.19 11.08 10.60 12.61
10.10 6.76 6.70 8.21 5.99 4.13 3.02 4.25 5.50 4.18 4.87 4.27 4.91 6.31 7.29 8.10 9.17 9.74 9.77 11.10 11.63 11.79 12.64 13.17 14.24 16.38 18.56 18.89 24.62 26.50 24.63 23.39 23.50 22.48 19.96 18.49 17.61 17.62 15.70 13.72 11.63 10.34 10.42
6.40 0.38 5.21 1.57 -1.43 1.47 -5.69 -6.05 -2.83 -0.59 2.00 1.50 0.99 2.91 4.09 4.94 6.40 6.06 7.63 9.00 9.70 9.82 10.93 11.09 11.72 12.72 14.22 16.30 17.82 22.95 27.95 27.40 26.67 24.02 22.36 20.11 19.01 17.74 16.38 14.85 13.11 12.12 10.88
-3.54 -6.05 -5.88 -3.51 -5.87 -10.04 -12.03 -7.88 -8.95 -9.69 -4.04 -2.30 -1.10 0.42 2.29 1.73 4.29 3.89 4.70 6.03 7.44 7.36 8.37 9.40 10.17 10.22 11.90 12.56 15.84 18.19 23.34 27.85 27.27 26.12 24.27 22.06 20.44 18.09 17.43 16.72 14.62 12.71 10.72
2.46 -1.79 -5.34 -7.68 -10.22 -12.76 -14.93 -13.67 -11.67 -12.40 -7.61 -4.77 -3.27 -2.43 -0.65 -0.67 1.99 1.80 2.22 3.22 4.06 4.42 6.48 8.06 8.49 8.19 9.61 12.09 15.99 16.61 17.41 27.13 27.13 26.35 25.20 23.66 21.29 19.26 18.28 17.15 14.68 14.14 12.81

GFSGL_sfc_wetblb_051.txt.gz
Wetbulb
60.52 60.44 59.39 57.62 56.99 55.90 53.79 51.65 48.99 47.08 45.49 45.76 45.86 44.11 42.37 43.10 42.44 41.66 41.11 41.33 42.29 42.46 42.12 41.78 41.63 42.05 41.29 41.29 41.15 40.43 38.74 38.20 34.26 36.06 36.22 36.37 34.91 34.48 34.68 34.73 33.64 32.82 33.23
59.42 57.73 56.99 55.07 53.51 52.53 51.27 49.63 47.47 46.01 46.50 45.66 43.33 42.75 43.72 42.01 41.37 40.13 41.51 42.45 42.13 41.35 41.56 41.14 40.60 40.37 40.18 40.48 39.69 38.42 37.50 37.56 34.62 31.97 34.60 33.68 32.86 33.95 33.59 32.17 31.44 31.78 32.60
56.07 54.94 53.34 52.02 51.79 50.88 48.50 47.42 47.48 46.54 44.28 43.52 43.50 42.52 42.57 42.70 41.61 42.83 42.96 43.00 42.73 41.52 41.59 41.02 40.43 40.45 39.44 39.47 38.66 37.50 37.02 35.27 34.90 32.48 31.83 33.69 32.44 32.93 31.69 31.71 30.85 31.55 31.54
51.53 51.57 50.24 50.19 49.50 47.83 46.37 45.89 45.24 45.31 45.25 45.19 44.81 42.61 42.68 41.50 42.56 42.90 43.32 42.17 41.70 41.22 41.51 41.20 40.78 39.93 39.52 39.42 38.10 36.84 35.71 34.37 33.67 31.91 31.54 31.38 31.69 32.02 30.52 28.15 28.20 30.63 29.78
49.20 48.25 47.63 47.77 46.24 45.08 44.72 42.74 43.16 42.82 44.42 41.37 42.23 41.58 42.13 41.91 40.97 41.94 42.74 41.96 41.39 41.06 41.12 40.33 40.32 39.90 38.25 38.05 36.76 36.87 35.09 33.78 32.43 31.17 30.50 30.61 29.75 29.54 27.93 28.19 26.96 28.18 29.57
48.13 45.54 44.14 42.85 42.75 41.15 40.91 41.45 42.61 41.11 43.43 42.77 42.02 42.22 41.29 40.91 39.20 38.44 38.50 41.04 40.85 39.90 39.74 40.75 40.13 37.36 36.59 35.06 34.75 33.64 33.62 33.31 31.64 31.08 30.27 29.08 29.05 29.25 28.48 27.03 26.39 25.29 23.96
43.96 43.00 41.55 40.66 39.92 40.66 41.33 41.92 43.28 42.38 42.88 41.70 41.48 41.27 41.51 42.49 37.60 36.84 36.44 39.49 40.08 40.35 39.95 39.54 38.84 36.96 35.21 36.33 34.12 33.87 33.89 32.30 29.88 32.67 29.99 29.91 28.83 29.21 27.61 26.33 26.70 26.06 25.71
41.74 40.85 41.27 41.23 40.53 42.48 42.72 41.53 41.26 41.28 41.36 41.28 41.65 42.27 41.00 39.58 35.69 35.67 35.23 39.00 39.25 39.16 39.25 39.04 38.46 38.26 37.39 35.51 34.61 34.23 33.95 34.90 33.02 30.71 31.51 31.30 31.04 29.79 28.37 28.09 27.52 27.14 27.95
40.99 41.25 41.48 41.78 41.51 41.24 40.56 40.65 41.41 41.84 41.70 40.80 39.58 38.75 38.45 38.62 35.32 34.67 34.67 38.24 37.90 37.90 38.31 38.30 37.55 37.11 35.46 33.38 33.54 32.25 32.31 32.69 31.54 30.49 29.80 29.22 28.31 27.01 28.43 29.00 26.38 25.32 23.94
41.23 41.91 42.35 42.42 40.95 39.45 39.37 39.65 39.80 39.08 37.56 37.40 36.83 37.49 36.13 36.84 35.43 34.39 34.75 37.14 36.15 36.60 37.61 37.09 33.21 34.92 33.04 32.01 33.62 32.42 30.97 31.45 31.29 30.08 30.18 29.72 28.87 29.35 27.68 28.40 27.71 24.44 24.12
40.77 39.40 37.75 36.94 37.03 37.42 37.36 37.06 36.77 36.47 35.86 35.76 34.83 36.20 36.33 36.07 36.70 34.77 34.55 35.51 36.13 35.62 35.78 35.40 36.11 32.27 32.32 32.36 32.41 33.42 32.33 32.80 30.22 30.04 29.61 29.08 28.45 28.75 29.15 29.61 29.34 27.31 24.71
37.35 36.04 35.50 35.71 35.48 35.53 35.74 35.66 35.58 35.14 34.11 33.78 33.71 33.57 34.81 35.24 33.87 34.23 34.12 33.58 33.88 34.55 34.35 36.30 36.73 33.25 32.21 32.36 32.39 32.35 31.25 30.03 30.78 29.38 28.19 27.08 27.10 27.94 29.26 29.79 29.47 28.86 28.79
35.23 34.14 33.62 33.30 32.71 32.52 32.18 31.78 31.41 31.26 30.39 30.02 29.80 29.92 30.25 32.19 32.85 32.95 32.46 32.28 32.00 32.57 35.24 35.27 33.59 32.84 32.13 31.74 31.55 31.90 31.05 29.57 29.70 28.38 27.80 27.17 28.57 29.65 29.51 28.36 28.03 28.30 27.69
32.32 31.41 30.95 30.37 30.04 30.16 30.30 30.07 29.25 28.82 28.15 27.72 27.20 27.18 27.89 28.73 30.81 31.65 31.72 31.02 32.15 33.52 33.04 33.80 32.93 32.03 32.10 32.75 31.98 32.00 32.48 31.80 30.34 28.68 28.45 28.86 29.35 27.89 27.20 28.20 26.08 26.53 25.28
30.01 28.82 28.21 28.11 27.65 27.71 28.07 27.60 27.29 28.24 27.22 26.09 26.45 26.36 27.10 27.11 28.35 28.75 29.32 30.37 31.78 31.25 32.32 32.34 31.95 31.45 30.50 30.58 30.96 31.12 31.70 31.45 29.43 29.32 28.90 27.87 26.88 26.65 26.70 27.72 25.96 25.52 23.33
26.89 26.54 25.48 26.09 26.11 26.19 25.72 25.72 26.13 25.42 25.45 25.99 25.89 25.12 26.64 25.14 25.32 26.28 27.88 29.94 30.83 30.84 31.28 30.65 30.74 31.59 30.34 30.38 29.60 28.72 29.56 29.68 29.77 29.18 28.60 27.73 26.89 26.16 26.39 26.01 25.66 24.94 23.31
24.37 24.10 24.56 24.10 24.25 24.04 23.38 23.13 21.65 24.37 24.06 24.41 23.87 23.31 23.10 22.54 23.47 25.11 25.47 26.61 30.29 30.71 30.14 30.04 31.16 31.63 30.94 30.18 30.11 28.72 27.91 29.58 30.22 28.44 28.31 27.64 27.30 26.70 25.61 25.44 25.28 24.34 23.13
23.43 21.57 22.69 23.01 22.98 22.17 21.58 20.93 21.28 20.35 19.68 20.66 21.81 20.75 20.24 20.43 21.59 22.66 22.77 23.38 22.22 23.06 27.29 29.58 31.11 31.96 31.44 30.78 29.78 28.83 28.92 29.98 29.11 28.26 27.98 28.24 27.52 26.77 25.51 24.60 24.69 23.46 22.95
22.64 21.59 21.24 21.25 20.65 19.56 19.64 19.20 19.39 18.77 18.06 17.64 18.44 18.75 17.77 17.85 19.45 20.21 19.89 19.06 17.66 17.85 19.47 20.18 21.38 26.08 29.00 29.61 30.77 31.23 30.98 30.15 29.38 27.87 27.72 27.55 26.80 25.80 25.37 25.21 25.01 21.39 20.09
21.20 18.81 18.05 19.04 18.43 17.55 17.20 16.74 16.10 16.49 15.39 15.23 14.84 14.44 15.12 14.72 15.23 16.57 17.05 16.72 16.44 16.13 16.59 16.85 18.57 20.35 22.27 29.90 31.71 31.46 30.67 29.68 28.74 27.42 27.28 27.30 26.72 25.98 25.74 24.41 24.65 23.61 22.19
19.19 17.88 14.62 16.90 15.92 14.99 14.37 14.14 13.97 13.69 12.72 12.70 12.69 13.01 9.69 11.39 13.07 14.03 14.23 14.29 14.30 14.78 14.55 14.84 16.25 17.78 19.39 22.07 22.66 29.96 29.53 29.30 28.19 27.30 26.60 26.62 25.78 24.83 25.65 25.61 25.34 23.13 22.87
15.75 14.66 14.71 13.88 13.46 12.04 10.78 11.77 11.58 10.74 10.39 10.31 10.56 11.27 8.85 11.74 11.56 11.72 12.54 12.23 12.51 13.95 14.35 14.39 14.50 14.74 15.97 17.88 19.02 21.36 25.98 27.95 27.83 26.64 26.58 26.13 24.93 25.33 25.13 24.65 24.24 23.59 22.46
13.46 11.77 11.84 11.18 10.31 8.16 8.61 8.46 8.61 8.57 8.07 8.36 8.21 8.10 8.85 9.13 8.79 9.06 10.29 10.27 10.68 11.39 12.49 12.22 12.95 13.64 14.91 15.40 17.19 18.61 20.61 23.01 28.50 27.96 26.34 25.94 24.81 25.24 24.84 24.05 23.03 22.31 22.01
11.02 9.97 9.56 8.72 8.03 6.98 6.12 5.55 6.09 4.75 4.52 5.73 6.11 6.42 6.48 6.89 7.20 6.91 8.13 8.78 8.37 9.15 10.44 10.11 10.84 11.79 12.99 13.22 14.96 16.70 19.84 20.62 19.41 28.54 27.45 26.46 25.83 24.72 24.72 24.26 23.45 22.41 21.45
9.79 8.75 7.84 7.68 5.78 4.67 3.76 3.84 3.57 3.48 3.50 3.54 3.95 4.59 4.96 5.11 5.62 5.98 6.68 6.59 6.16 6.62 6.74 7.76 9.92 10.68 10.88 10.91 12.09 14.23 16.31 15.40 18.29 23.88 28.10 27.45 26.48 25.07 24.26 24.02 23.47 22.27 20.87
10.01 8.05 7.29 6.93 5.79 4.14 3.24 1.66 1.49 1.47 1.01 1.72 2.38 2.56 2.69 3.09 3.80 4.32 4.40 4.81 4.61 3.91 4.74 7.06 7.79 8.15 8.94 11.18 12.59 13.13 12.13 14.14 16.55 18.06 28.85 27.58 26.35 25.01 24.59 24.09 22.49 21.95 19.67

GFSGL_sfc_wetblb_054.txt.gz
Wetbulb
64.28 64.11 63.41 63.17 62.95 61.05 59.34 58.02 54.41 51.24 48.60 47.70 47.51 48.06 44.75 44.28 44.93 43.42 42.75 42.94 42.12 45.88 47.43 45.72 44.69 45.54 44.68 44.61 44.53 43.66 42.26 41.48 37.88 39.93 41.73 42.16 40.46 39.35 39.39 39.70 39.06 38.04 37.36
64.16 63.87 63.20 60.82 58.99 57.83 55.59 53.72 51.32 48.19 47.98 49.26 47.90 44.77 43.98 44.97 43.49 42.95 41.82 42.84 45.18 45.68 45.43 45.11 44.31 44.00 44.16 44.37 43.66 42.57 41.98 41.93 39.56 37.05 39.52 39.60 39.39 39.61 38.90 37.69 36.93 36.70 36.33
62.83 61.33 57.53 54.96 53.68 52.66 50.84 48.92 48.15 47.19 47.38 47.13 45.04 44.33 44.29 42.91 42.82 42.28 43.21 45.26 46.10 45.67 45.25 44.58 44.24 44.15 43.26 43.62 43.23 42.14 41.95 40.86 40.14 38.12 37.38 39.17 38.92 38.79 37.20 37.47 36.46 36.05 35.85
56.84 54.94 52.59 51.78 51.12 50.25 49.19 47.99 48.26 47.23 46.52 44.73 44.70 44.92 43.66 43.34 43.54 43.53 44.15 44.63 45.53 45.62 44.88 44.46 44.28 43.79 43.48 43.39 42.50 41.95 40.62 39.63 39.51 37.14 36.26 36.41 36.56 37.33 36.36 34.46 33.42 35.01 34.27
51.95 50.79 49.58 49.72 49.24 48.96 49.22 50.08 48.20 46.14 45.67 46.71 44.37 44.05 42.66 42.23 43.13 42.94 42.74 43.17 44.36 44.06 44.34 44.49 44.75 43.79 41.38 41.23 41.90 41.78 40.55 38.74 37.70 35.67 34.62 34.21 33.73 33.48 33.78 34.92 32.62 32.85 33.86
49.69 47.65 46.81 47.19 46.81 46.61 47.41 47.10 44.64 44.63 44.87 43.49 41.74 41.85 42.20 42.61 39.63 39.15 40.72 44.48 43.60 43.46 43.20 43.92 44.24 41.86 40.89 37.67 37.38 36.88 38.27 39.34 36.98 35.50 34.43 32.24 33.23 34.23 35.10 33.54 31.89 30.07 28.51
48.04 46.03 46.19 46.07 44.51 45.64 45.17 45.08 43.86 44.34 43.60 42.71 42.59 42.67 42.23 42.76 40.09 39.26 37.29 41.51 42.05 42.71 42.90 42.75 42.23 42.05 40.44 41.86 38.04 35.04 34.51 33.50 32.94 38.18 35.09 33.79 33.75 35.34 34.76 32.58 31.11 30.61 30.22
45.94 44.93 44.99 45.30 45.71 46.32 45.35 43.90 44.15 43.02 43.24 43.24 43.05 44.86 44.63 44.11 37.41 36.39 35.29 40.60 41.56 41.69 42.01 41.80 41.45 41.38 41.47 40.63 40.74 39.75 39.39 37.94 37.88 36.05 35.78 36.80 36.71 36.49 35.05 33.00 31.42 31.22 31.96
45.34 45.52 45.88 45.92 45.14 44.08 44.95 45.04 44.44 44.73 45.19 44.47 43.25 42.16 41.93 42.08 36.91 35.83 35.57 39.48 39.20 39.75 40.48 41.02 40.84 40.54 38.21 37.58 39.06 38.13 37.80 38.34 37.27 34.84 34.78 33.89 30.11 29.10 29.76 31.98 29.64 28.81 28.06
45.03 44.94 46.06 45.69 43.34 42.45 43.11 42.94 43.05 43.49 41.68 41.50 40.25 40.57 38.61 39.87 37.17 35.90 36.37 38.22 37.85 38.90 39.58 39.62 36.56 37.45 35.59 34.42 37.90 37.10 35.50 36.45 36.72 35.79 34.58 32.56 31.71 32.42 29.17 30.81 30.96 27.72 28.15
44.81 43.60 42.03 40.66 40.95 41.46 41.07 41.09 40.95 40.88 40.35 39.97 38.80 39.50 39.07 38.15 37.68 34.56 34.34 34.77 34.33 34.60 34.77 35.79 38.34 35.51 34.23 34.16 33.49 36.54 36.09 37.65 35.27 34.92 33.89 33.80 34.49 34.04 33.23 32.17 32.05 30.98 28.86
42.44 41.17 40.45 40.14 39.17 39.76 39.51 39.50 38.63 37.56 36.10 35.14 35.81 34.68 35.98 36.07 33.11 33.04 32.96 32.63 32.42 32.64 32.42 35.49 36.25 34.48 34.87 34.50 33.66 33.35 33.14 33.20 35.29 34.71 32.42 32.06 32.50 32.35 32.71 33.31 33.37 33.27 33.18
39.58 38.54 37.98 37.37 36.77 36.30 35.90 35.05 35.21 34.71 33.50 32.63 31.79 31.79 32.16 32.96 33.57 31.86 30.45 29.69 29.91 32.11 33.51 33.16 31.87 32.58 32.48 32.52 32.78 31.90 31.93 34.45 33.99 31.97 31.47 31.39 32.46 33.71 32.93 32.55 32.47 32.67 32.11
36.96 35.93 35.54 33.44 34.07 33.93 34.62 33.61 33.24 32.20 30.83 29.91 29.69 29.04 29.54 30.21 30.89 29.29 28.93 30.13 29.74 31.44 31.76 34.60 32.80 31.21 31.65 32.26 32.68 33.99 33.06 34.12 33.63 31.96 31.85 32.86 33.82 32.07 30.78 31.07 29.54 29.95 29.03
34.07 32.97 32.76 32.69 32.33 32.61 32.02 31.53 30.32 30.47 27.89 27.98 28.22 27.46 26.76 26.29 26.50 25.27 26.31 27.06 28.04 28.51 29.91 32.75 31.46 33.02 33.41 33.68 32.76 33.52 34.58 34.43 32.60 33.19 32.57 32.39 31.78 30.90 29.89 30.37 28.95 28.77 27.47
31.61 31.22 30.21 31.31 31.55 31.56 31.44 31.24 25.67 25.20 24.80 25.25 24.36 24.37 25.58 24.05 23.08 23.51 24.58 24.32 25.04 26.15 29.26 29.91 32.07 33.36 33.16 32.93 33.10 33.29 33.12 31.51 31.85 32.04 32.09 31.48 30.71 29.91 29.53 29.78 28.64 27.53 27.14
29.66 28.97 29.06 29.01 29.82 28.97 29.04 28.26 27.28 27.60 24.49 24.02 23.03 22.27 21.64 20.74 21.42 22.64 23.01 22.76 24.94 25.10 25.05 25.51 26.74 27.29 28.23 33.24 32.29 32.66 31.97 31.69 31.37 31.13 32.00 31.50 31.14 30.54 29.53 28.98 27.90 26.79 26.66
26.62 24.16 28.31 28.78 28.17 28.36 27.57 26.68 26.68 24.94 24.14 24.61 24.12 21.85 20.66 19.86 20.06 21.31 21.81 22.98 22.97 23.84 23.69 22.74 22.75 24.09 24.81 26.39 28.81 31.71 31.96 32.10 31.41 31.30 31.69 31.57 32.03 30.09 29.42 28.05 27.36 26.90 26.94
27.35 26.44 26.54 26.99 25.69 24.15 25.54 25.20 24.44 23.71 22.95 22.56 23.15 22.85 21.34 18.27 19.79 20.71 21.11 21.66 19.73 20.21 20.86 20.78 21.08 21.25 22.33 22.96 25.75 27.70 31.85 33.12 32.90 32.22 31.57 31.03 31.13 30.20 29.60 28.71 27.49 26.94 26.28
24.42 20.42 22.07 25.32 24.71 24.05 23.86 22.85 22.17 21.71 21.04 21.02 20.52 20.18 19.42 16.99 19.30 20.17 20.64 20.47 19.08 18.57 18.72 18.74 19.41 19.73 20.77 20.98 22.83 24.13 25.89 30.83 32.58 31.70 31.29 31.28 31.13 30.72 29.44 28.33 27.56 26.81 25.57
25.80 23.45 18.34 23.58 23.17 21.72 21.06 20.57 20.20 19.86 19.01 18.62 19.07 18.85 12.14 13.60 17.57 17.94 17.45 18.42 17.43 17.08 16.90 17.18 17.60 18.13 19.69 19.73 20.09 20.77 20.79 24.34 30.57 31.28 31.07 30.71 30.75 29.05 29.10 28.32 27.56 26.90 26.75
22.17 21.72 21.55 20.70 20.67 19.99 17.58 18.64 18.35 17.47 17.00 16.38 17.17 17.13 13.33 16.41 16.70 16.14 16.12 16.45 16.52 16.47 16.36 16.15 16.25 16.48 17.31 18.66 17.11 17.12 18.82 20.61 25.45 25.60 29.72 29.45 29.88 29.52 28.86 28.03 27.31 26.47 26.10
19.97 19.60 19.02 18.47 18.41 14.26 17.46 16.38 16.17 15.76 15.18 14.76 14.89 14.84 14.92 14.82 14.20 14.72 14.46 14.71 15.39 14.82 15.37 15.03 14.91 14.52 16.34 17.31 17.42 17.31 17.50 19.31 22.20 21.55 21.72 28.04 29.04 29.08 28.94 27.27 26.79 25.97 25.34
17.86 17.98 17.01 17.26 16.45 15.47 15.40 14.10 14.47 12.18 12.01 13.01 13.52 13.81 13.46 12.86 12.95 12.78 12.79 13.69 13.01 13.30 13.45 13.28 12.46 12.74 14.02 14.47 16.27 16.34 17.37 19.43 19.22 18.41 21.19 21.15 28.96 28.82 28.86 27.31 26.80 26.10 25.79
17.84 17.15 16.29 16.03 14.68 14.10 13.31 13.10 12.32 12.21 12.09 12.01 12.11 12.07 12.13 11.86 11.66 11.88 12.26 11.64 10.73 11.40 10.93 11.07 12.15 12.82 12.61 12.37 12.94 14.29 16.70 16.22 15.56 15.98 19.72 20.43 28.39 29.21 28.57 27.63 27.35 26.25 25.75
16.63 15.19 14.88 14.28 13.86 12.81 11.84 10.82 10.44 10.44 9.80 10.03 10.21 10.41 10.35 10.19 10.38 10.42 9.80 9.73 9.56 8.48 9.25 11.36 11.39 11.41 11.29 12.65 14.21 15.00 13.98 13.49 15.39 15.62 17.17 19.01 28.17 28.58 28.75 28.18 27.23 26.60 25.24

GFSGL_sfc_wetblb_057.txt.gz
Wetbulb
65.35 65.37 64.02 63.27 63.10 63.02 61.37 60.69 59.99 57.62 53.74 51.55 49.76 48.48 47.21 47.26 45.92 44.93 43.65 42.58 42.49 43.12 42.49 43.65 47.21 47.53 46.55 46.18 46.31 44.85 43.31 42.54 39.40 41.29 42.67 44.25 44.27 43.24 42.47 42.14 41.60 40.85 40.75
66.10 65.28 63.81 62.87 60.80 59.93 59.01 57.12 55.08 52.86 50.71 49.06 49.09 47.93 46.78 44.82 44.67 44.30 42.27 41.99 41.87 41.49 43.67 46.58 45.86 45.50 45.54 46.06 45.44 44.53 43.72 43.71 41.80 39.48 41.92 42.19 42.36 43.13 42.76 41.29 39.83 39.37 39.18
65.01 59.80 58.98 57.17 55.70 54.21 52.01 50.68 49.77 48.61 48.24 48.93 46.58 44.94 44.77 45.48 44.74 43.95 42.65 42.22 42.98 44.76 46.39 45.64 45.30 44.98 43.92 45.13 44.99 44.22 44.41 42.95 43.45 41.16 40.18 42.03 41.89 41.86 40.87 40.80 39.35 39.63 38.66
59.82 56.92 54.28 53.60 52.01 50.99 49.68 48.87 48.19 48.16 47.27 46.30 45.77 45.15 44.25 42.95 43.08 42.44 42.95 43.45 44.70 44.44 45.01 45.24 45.52 44.94 44.96 45.10 44.56 44.61 44.00 43.02 42.40 40.48 40.08 39.69 39.97 40.48 40.09 37.17 36.54 38.61 37.20
53.56 52.28 51.08 50.91 50.76 50.73 50.05 48.60 47.86 47.27 45.76 45.98 45.42 44.81 43.86 43.25 43.19 43.24 43.53 43.07 43.21 43.95 44.19 45.48 46.27 45.19 42.32 42.11 43.00 43.66 43.47 42.01 41.11 39.73 38.70 38.54 37.63 36.77 35.65 36.97 35.46 36.41 36.61
51.15 49.77 49.99 50.62 51.70 51.31 50.62 49.61 48.57 47.28 46.77 45.54 44.12 43.18 42.13 42.77 39.74 39.35 40.38 42.51 43.77 43.99 43.26 43.89 44.59 42.86 42.87 38.68 38.88 38.28 40.06 41.16 39.61 38.61 38.15 36.57 37.07 36.92 37.35 35.97 34.81 32.78 30.33
50.81 50.96 51.07 50.67 49.19 48.99 48.85 48.49 47.45 46.41 46.39 45.56 43.21 44.43 43.77 44.07 40.06 40.01 38.77 43.35 42.00 41.84 42.04 42.67 42.29 42.93 41.27 43.54 40.63 36.71 37.05 36.35 34.18 38.85 37.33 37.82 36.25 37.59 37.01 34.71 33.82 32.78 31.89
50.17 49.11 48.98 48.94 48.31 48.17 47.64 47.32 46.88 47.19 46.59 46.11 45.50 45.38 45.26 45.57 39.64 37.64 35.60 40.50 40.44 40.72 41.03 41.33 42.04 42.32 42.83 41.30 41.31 40.93 41.38 41.11 40.39 38.08 37.34 38.19 39.11 39.39 37.71 36.19 34.43 33.33 32.69
48.81 48.87 48.77 48.19 46.83 47.15 46.22 45.90 46.21 45.19 45.26 45.04 44.85 43.76 42.70 42.76 37.19 35.82 36.25 39.48 39.25 39.20 40.06 40.35 40.52 40.80 38.56 37.36 37.68 37.72 38.66 39.18 39.63 37.50 37.73 37.49 33.57 32.13 31.89 35.05 32.05 30.35 29.57
48.14 47.69 47.52 47.78 47.23 46.17 45.61 45.10 44.80 44.06 42.63 42.89 41.52 41.49 38.05 40.89 34.70 34.43 34.35 35.62 34.04 34.98 35.82 36.12 34.49 35.06 33.62 34.11 36.15 36.41 35.23 36.85 38.28 38.24 37.81 35.96 33.95 33.42 30.09 32.32 32.20 29.29 28.78
47.80 47.15 45.80 45.49 44.92 44.72 43.69 43.18 42.30 41.90 41.71 40.87 39.17 39.11 38.67 37.55 37.01 33.68 33.14 32.90 32.49 31.47 32.03 33.18 34.80 33.06 33.02 33.81 32.49 33.52 33.92 36.29 35.84 37.00 37.21 37.44 36.87 35.40 35.16 33.75 32.93 31.10 29.35
45.21 44.30 43.78 42.89 41.75 42.09 41.79 40.87 40.01 38.97 37.72 36.80 35.56 35.68 36.73 36.47 33.42 31.43 29.59 29.36 29.23 29.58 29.47 32.07 32.94 32.31 31.98 31.72 32.07 32.57 32.60 32.43 35.21 34.83 34.43 34.44 34.20 33.79 34.38 34.58 34.09 33.71 33.85
43.11 41.64 40.60 39.99 39.29 38.96 38.29 37.36 37.38 36.76 35.10 33.95 32.96 32.82 33.15 33.65 34.15 30.91 29.07 27.94 28.59 29.35 30.10 30.38 29.97 30.53 31.46 31.88 32.14 32.15 31.58 32.83 32.20 31.49 32.80 33.46 34.83 35.38 34.87 33.83 34.34 34.72 34.11
40.18 39.02 38.27 37.69 36.35 36.48 36.49 35.54 34.88 33.60 32.08 31.65 31.43 30.64 30.59 30.63 31.01 28.92 27.08 27.85 27.89 27.95 27.88 29.62 28.54 28.63 30.24 30.70 31.76 33.50 35.22 33.01 32.15 31.96 33.02 33.89 35.03 34.30 34.15 34.06 31.92 31.88 30.18
37.65 36.53 35.92 35.08 35.27 34.62 34.01 33.24 32.10 30.18 28.30 29.12 29.77 28.23 27.29 26.58 26.48 23.98 24.05 25.25 25.94 25.62 26.59 28.69 30.41 30.34 30.45 31.64 32.36 34.06 34.93 34.45 32.50 32.93 34.20 33.52 33.01 33.14 33.22 33.10 31.81 30.16 28.45
34.83 34.51 34.00 33.87 33.59 34.07 33.31 30.95 25.99 26.34 25.22 25.37 24.31 24.15 25.57 24.01 22.74 22.65 23.57 24.08 23.93 25.43 25.52 26.87 26.36 26.63 26.15 26.64 28.93 29.30 33.45 33.35 33.17 32.90 33.68 32.46 31.98 32.32 31.48 31.41 30.93 29.44 27.81
33.71 32.14 30.82 31.66 32.14 31.29 30.98 30.40 30.35 26.16 25.64 25.48 23.98 22.41 22.30 21.26 21.54 21.72 22.83 23.20 24.32 24.81 24.27 24.50 24.81 24.85 24.34 24.76 26.24 26.25 27.88 31.29 33.49 32.23 32.09 32.19 32.25 31.99 31.50 30.57 30.21 29.55 27.82
30.73 27.49 31.77 31.47 30.86 30.16 30.53 29.40 29.39 27.98 26.60 27.60 25.26 23.51 22.29 21.51 20.62 21.53 22.62 23.22 24.07 24.03 23.46 22.43 22.52 22.11 22.70 22.44 23.41 23.99 25.85 27.78 28.66 32.68 32.34 32.06 31.91 32.23 31.18 30.08 29.97 29.01 27.44
30.58 30.22 30.21 29.66 28.49 27.05 27.62 27.60 27.26 26.27 25.80 25.22 25.87 25.91 24.84 21.31 20.48 22.56 22.98 22.75 21.27 20.97 21.29 20.84 21.29 21.05 20.61 21.31 22.58 22.84 23.83 24.90 26.64 27.32 32.74 31.98 32.04 31.74 31.18 30.70 30.28 29.33 28.29
26.34 23.25 25.89 27.58 26.64 26.51 26.20 25.48 25.36 24.71 24.12 23.93 23.50 23.45 23.18 19.00 18.55 21.19 22.05 21.37 20.37 20.05 19.48 18.72 18.72 19.36 19.36 20.08 21.19 21.98 21.92 22.11 23.34 25.49 27.80 32.04 32.22 31.75 30.70 30.55 30.16 28.84 27.70
27.95 24.73 21.55 26.11 25.41 24.35 24.02 23.49 23.05 22.50 21.89 21.81 21.89 22.01 13.94 15.82 17.68 19.75 19.53 19.61 18.90 18.53 17.89 17.77 17.56 18.28 18.98 19.09 19.09 20.03 19.20 19.64 21.24 22.77 24.68 26.01 31.47 30.67 31.21 31.24 30.14 29.03 27.93
24.37 23.57 23.51 23.34 22.92 22.29 21.06 21.29 20.81 20.68 20.41 19.89 20.01 20.32 17.29 18.07 19.14 18.25 18.19 18.34 17.93 17.57 18.70 17.29 16.61 16.81 17.33 17.10 17.43 18.07 17.74 17.62 18.79 20.31 21.57 21.17 23.57 28.30 30.88 29.84 29.41 28.95 27.80
21.97 21.53 21.54 21.23 20.82 16.77 19.53 20.17 19.24 19.69 18.69 18.24 18.14 18.10 18.37 17.93 17.17 16.68 16.43 16.56 16.36 16.23 15.99 15.59 15.38 15.50 16.11 16.57 17.27 16.85 16.86 17.20 17.68 19.53 18.41 18.71 20.20 22.41 29.45 29.14 28.93 28.00 27.21
20.83 20.89 19.92 19.96 19.75 17.28 18.65 17.81 18.20 16.27 15.77 16.44 16.93 17.26 16.73 16.30 15.84 15.37 15.32 15.41 14.78 14.52 14.83 14.76 14.06 13.14 14.37 15.64 16.26 16.68 16.69 17.36 18.23 18.04 17.37 16.96 17.79 20.07 23.12 29.24 28.97 27.94 27.40
20.22 19.75 18.66 18.00 17.78 17.36 16.83 17.03 16.24 16.10 16.08 15.76 15.69 15.49 15.39 15.11 14.40 14.49 14.25 13.70 12.93 13.01 12.78 12.33 13.32 13.88 13.53 13.08 13.84 14.17 16.02 16.64 15.94 15.17 15.75 16.89 17.57 18.06 20.14 27.80 28.86 28.15 27.17
18.87 17.72 16.88 17.00 16.63 16.41 15.63 14.83 14.79 14.67 13.94 14.31 13.79 13.65 13.77 13.12 12.83 12.56 12.15 11.46 11.60 10.52 10.20 12.58 12.16 11.81 12.18 13.88 14.79 15.54 14.99 14.64 14.38 14.71 16.74 16.66 16.79 18.56 20.89 28.59 28.67 28.08 26.83

GFSGL_sfc_wetblb_060.txt.gz
Wetbulb
64.72 63.69 62.89 63.26 63.40 61.66 61.25 60.28 59.66 56.81 55.18 54.38 51.58 49.09 48.55 47.69 46.31 45.11 44.05 42.87 41.93 42.52 42.93 42.77 42.55 44.07 44.92 43.12 42.57 42.16 39.95 38.66 34.71 35.88 37.84 38.27 37.50 37.48 38.54 38.13 39.09 36.28 36.31
64.60 64.00 62.63 61.76 61.34 59.58 58.57 57.63 55.99 53.45 52.40 50.69 49.08 47.87 47.19 45.28 44.87 43.26 42.21 41.98 42.06 41.76 42.07 41.60 42.90 46.22 44.00 43.74 41.98 40.07 39.03 38.37 36.09 34.89 36.74 36.43 36.22 37.03 36.92 35.96 38.77 38.77 35.93
61.90 61.63 59.32 57.21 55.05 53.09 51.48 50.21 49.29 49.12 48.96 48.60 47.72 45.69 45.09 44.68 43.94 43.06 42.66 42.30 42.01 42.08 42.50 43.49 44.89 43.70 41.99 42.28 42.10 40.85 39.07 41.51 38.48 37.13 35.95 36.02 35.93 35.84 34.90 35.60 35.95 34.61 37.55
58.82 57.21 54.02 52.74 51.15 49.84 49.21 48.72 48.67 48.04 46.73 45.54 45.49 44.82 44.83 44.11 43.39 42.94 42.38 42.23 42.81 43.56 43.84 42.99 43.32 43.29 42.61 41.88 40.99 39.50 40.11 37.88 38.22 37.28 36.84 35.35 34.18 35.68 34.78 31.78 32.04 33.04 32.10
54.13 52.25 50.64 50.08 50.52 49.30 48.03 47.86 47.02 46.09 45.58 44.94 44.37 43.97 43.73 43.44 42.61 42.33 43.25 43.09 42.39 42.23 43.17 44.02 43.53 43.31 42.76 41.42 41.43 38.16 36.98 37.24 37.06 35.64 34.93 34.59 33.01 31.86 31.30 33.51 32.35 31.26 31.00
51.24 50.45 50.75 50.63 50.18 49.50 47.70 46.54 45.84 45.53 45.39 45.11 43.12 42.53 42.37 42.81 40.38 40.48 40.98 41.58 42.27 42.35 40.66 39.38 39.87 40.74 40.40 39.26 38.51 38.25 38.33 37.31 35.82 35.46 35.19 33.78 33.67 33.71 33.39 32.21 31.86 30.86 27.34
50.08 50.12 50.94 51.02 49.65 48.89 48.48 47.39 46.45 45.04 44.61 42.92 42.06 42.20 42.89 42.87 39.17 39.62 38.60 40.85 39.26 37.26 36.99 37.29 38.41 40.40 38.43 38.95 37.82 37.12 36.31 36.20 33.60 35.45 33.52 34.21 33.90 35.02 35.50 32.36 31.24 31.43 29.84
50.77 50.14 49.36 48.67 47.68 47.28 46.25 45.54 45.69 45.54 44.57 44.28 43.46 43.21 43.06 43.28 38.77 36.93 35.41 35.84 36.10 36.63 36.83 36.58 35.38 35.02 35.09 34.32 32.88 31.73 32.87 34.94 36.22 36.21 33.39 34.61 35.01 35.70 35.80 34.28 33.42 30.71 27.82
48.23 48.17 48.30 47.66 46.23 46.32 45.64 45.37 45.03 44.43 44.05 44.07 43.98 42.25 38.84 34.92 34.06 33.57 34.74 33.78 33.45 32.24 34.18 33.68 33.30 31.85 33.65 34.23 30.93 29.75 31.00 32.17 35.86 36.86 36.94 36.75 36.82 36.94 35.83 33.45 30.19 25.72 21.68
48.15 47.72 47.53 47.56 46.90 45.23 44.77 44.59 44.62 44.06 41.69 40.62 39.91 39.73 37.19 32.21 33.66 32.94 32.25 29.57 28.60 27.79 28.89 30.12 31.64 31.40 32.26 32.20 29.74 28.95 27.64 27.83 28.93 30.71 31.49 33.13 35.33 33.93 33.40 32.56 30.62 28.25 26.10
47.99 47.56 47.22 46.69 45.66 45.03 43.38 41.88 40.71 39.62 39.89 36.41 34.60 34.51 35.75 34.02 30.94 30.97 30.22 27.00 25.79 25.56 25.94 26.36 27.26 30.48 30.75 30.48 30.25 27.71 27.67 29.49 29.67 30.11 30.24 31.28 33.22 32.69 31.55 30.86 29.76 29.69 27.58
46.41 45.17 44.26 43.92 43.00 41.88 40.11 39.01 38.46 36.61 34.24 32.58 31.11 30.98 31.87 31.20 30.89 29.56 28.97 27.62 27.22 25.19 25.21 25.76 26.66 28.75 29.40 29.67 29.54 30.51 31.28 30.22 29.88 30.15 29.31 29.04 30.13 32.51 34.34 32.03 30.92 29.63 29.84
43.55 42.22 40.94 40.47 40.39 39.82 37.12 35.39 34.33 34.01 31.12 29.68 28.89 29.11 28.99 28.90 28.52 28.24 27.17 26.59 26.88 24.92 25.31 25.99 26.80 27.58 28.52 28.97 30.91 31.52 29.89 29.81 28.98 29.39 29.47 29.33 30.82 33.27 34.14 32.11 31.97 30.14 29.08
40.53 39.25 38.31 36.35 35.43 35.13 34.86 34.22 33.01 30.16 28.96 28.68 28.60 27.19 26.65 26.52 25.55 23.91 23.38 22.93 25.29 24.76 24.07 23.56 24.03 25.78 25.27 26.14 26.25 27.60 28.21 29.37 29.41 31.18 30.74 31.16 32.81 31.81 32.08 32.42 29.73 28.86 27.36
38.60 36.85 34.86 33.92 33.94 33.24 30.38 30.06 28.39 25.81 26.47 26.92 26.31 25.80 22.63 21.22 22.38 22.39 22.30 22.13 21.80 23.14 21.58 22.47 23.26 23.37 22.69 22.91 23.11 24.23 25.04 25.66 26.06 29.76 30.88 30.65 31.69 30.89 31.23 32.12 30.61 29.47 27.48
34.87 33.83 32.38 31.75 31.22 32.19 29.37 27.09 28.08 25.96 26.40 25.84 24.96 23.76 23.91 23.34 22.80 22.75 22.98 23.74 24.10 24.39 21.27 20.37 18.76 18.90 19.39 20.13 20.15 20.67 21.30 22.37 24.23 25.80 29.53 31.09 30.33 29.19 30.09 31.33 29.99 27.63 26.71
31.31 31.90 30.40 30.60 30.21 29.14 28.32 28.19 23.58 24.73 25.97 25.92 24.94 23.74 22.76 21.32 21.94 22.33 22.62 23.62 24.09 24.49 17.28 18.06 15.96 16.94 17.81 19.19 19.22 19.60 19.52 20.85 22.79 23.28 25.20 28.11 26.81 26.91 26.47 29.30 28.83 27.78 27.08
29.72 30.54 30.34 29.69 28.97 28.60 27.80 27.02 26.67 26.16 24.19 23.27 24.81 24.14 23.71 21.81 21.52 22.11 22.93 23.14 20.25 20.79 19.10 17.42 15.64 16.64 17.53 17.61 17.44 17.90 19.03 19.71 20.06 20.56 22.23 24.34 27.60 24.43 23.95 27.68 28.54 27.66 26.54
29.72 29.25 29.16 27.83 26.19 25.68 26.56 26.47 26.01 24.88 24.54 23.96 24.62 23.37 21.15 21.19 21.14 22.02 23.67 18.39 14.90 16.35 17.87 17.05 15.65 16.10 15.64 16.16 16.30 16.70 17.18 18.01 17.30 18.02 19.90 21.69 21.99 27.84 28.73 27.81 29.13 28.02 27.96
24.97 25.79 27.46 26.52 24.85 25.69 25.53 24.84 24.71 24.27 23.80 23.31 22.16 21.52 20.43 16.05 12.30 14.08 16.13 13.32 13.00 14.87 14.93 15.48 15.70 15.57 15.01 15.20 15.24 15.05 15.10 15.57 16.11 16.64 17.49 19.58 19.89 20.17 27.03 23.33 27.23 28.89 27.46
23.33 22.54 22.22 24.83 24.56 23.59 23.45 23.12 22.85 22.36 21.61 21.01 20.02 15.82 11.92 13.91 13.21 16.04 15.44 13.72 13.99 13.58 12.08 14.11 13.80 13.04 13.67 13.25 14.21 13.21 13.42 13.23 13.83 16.24 16.25 17.09 17.18 16.85 20.06 22.50 27.86 28.99 27.74
23.79 22.99 23.22 22.68 22.57 21.96 20.98 20.79 21.02 20.20 20.16 19.40 18.98 18.77 15.14 14.36 16.68 15.58 14.20 12.09 9.96 11.58 12.99 12.48 12.27 12.67 12.43 12.66 11.42 10.73 12.01 11.12 12.36 14.41 14.14 14.80 15.58 15.94 17.14 19.34 24.08 27.78 27.20
22.01 21.13 21.01 20.38 20.41 16.10 18.42 20.00 19.45 19.07 18.57 17.24 16.88 16.62 16.59 14.97 13.80 12.75 11.92 9.33 10.90 9.73 11.08 11.71 10.31 11.08 11.19 10.29 11.69 13.15 11.39 11.66 12.07 12.91 13.10 13.59 13.68 13.87 14.10 15.80 18.38 27.00 26.44
20.89 20.45 19.50 19.76 19.61 16.66 17.85 18.57 17.46 16.58 16.38 15.58 15.77 15.13 14.91 13.50 10.57 9.42 9.29 8.80 7.91 6.93 7.77 10.36 9.43 8.19 10.02 11.82 11.90 12.39 12.54 12.26 13.09 14.20 14.45 11.83 11.12 12.27 14.28 15.58 16.86 21.09 26.35
20.29 19.68 18.89 18.38 18.01 17.80 17.25 16.91 16.69 15.79 15.60 15.14 14.40 14.27 13.27 12.95 12.47 10.01 7.78 8.40 6.49 7.36 8.38 6.26 8.09 10.04 9.07 8.76 9.05 10.21 12.33 14.16 12.64 12.73 12.88 12.36 11.45 12.01 12.83 14.43 15.93 17.60 26.23
18.84 17.80 17.19 17.32 16.75 16.57 15.97 14.81 14.07 14.21 13.58 13.03 13.03 11.19 11.27 11.16 10.39 7.57 9.12 6.38 8.64 5.61 5.01 7.37 7.15 7.27 7.91 9.88 11.34 12.34 12.40 12.85 12.86 13.45 14.30 13.91 12.51 11.72 12.96 14.72 17.17 18.03 25.61

GFSGL_sfc_wetblb_063.txt.gz
Wetbulb
59.77 60.08 60.08 60.03 59.76 58.79 60.21 60.04 57.95 56.05 55.75 54.70 52.14 50.29 49.36 48.77 47.39 45.79 44.41 43.68 43.28 43.29 43.46 43.01 43.03 43.67 43.25 43.81 42.89 41.32 40.88 39.58 37.06 36.10 35.64 36.56 35.10 35.63 37.49 38.23 37.88 38.12 38.28
60.56 60.32 60.62 60.27 59.70 58.70 58.26 57.94 56.55 54.41 53.81 51.48 49.78 48.83 48.08 46.67 45.29 44.26 43.24 42.85 42.38 41.99 42.35 42.33 42.00 43.45 43.94 44.39 43.00 41.58 40.76 40.20 38.75 36.37 35.10 34.19 34.90 35.97 36.07 35.42 37.70 39.14 37.04
60.90 60.08 58.82 57.18 55.15 53.70 51.91 52.16 51.69 50.74 49.24 48.74 48.07 46.80 45.56 44.73 44.04 43.46 42.96 42.69 42.60 42.39 42.35 42.10 43.07 44.58 42.49 41.70 41.24 41.08 41.15 41.27 37.53 36.44 36.95 34.88 35.04 36.86 37.02 36.54 36.41 35.50 36.58
57.51 56.19 53.73 52.28 50.44 49.61 50.47 49.08 48.90 48.20 47.12 46.48 45.98 45.53 44.94 44.30 43.80 43.32 42.65 41.87 41.85 42.32 43.20 43.61 43.08 40.86 39.57 39.94 40.73 37.73 38.34 35.91 35.82 35.39 34.68 33.42 33.33 35.87 34.71 33.74 31.95 32.12 32.72
52.96 51.21 49.58 49.35 49.36 48.77 47.62 47.03 46.43 45.79 45.37 45.24 44.84 44.37 44.09 43.59 43.00 42.10 42.02 41.97 42.28 42.35 42.43 43.11 41.63 41.59 41.77 40.81 40.97 38.19 36.83 36.69 34.51 34.35 33.66 34.10 31.94 29.63 29.84 32.49 30.96 32.56 31.94
50.72 49.35 49.01 48.14 47.44 46.96 46.13 45.67 45.30 44.65 44.46 44.18 43.27 42.43 42.09 42.21 39.73 40.24 41.70 42.06 41.85 41.49 38.68 36.85 36.68 38.43 37.49 36.73 35.01 34.63 33.63 30.87 29.35 29.03 31.32 31.98 32.94 31.11 30.35 30.92 32.60 31.72 30.95
49.93 49.85 49.51 48.79 47.16 46.25 45.76 45.12 44.54 43.79 43.13 40.94 39.82 40.04 40.14 41.34 39.57 39.88 38.54 39.35 38.31 34.83 33.61 33.50 34.38 35.21 33.34 32.73 32.69 32.58 31.91 33.50 30.70 29.80 29.48 30.35 30.91 32.29 33.54 32.19 30.15 33.06 31.73
49.73 49.86 49.22 48.31 46.83 45.98 45.58 43.71 42.22 41.42 40.19 39.54 39.41 40.04 40.45 41.39 37.73 37.38 35.65 33.68 32.45 31.82 31.65 31.11 29.97 29.42 30.27 31.39 29.33 28.26 28.61 29.32 30.23 31.57 30.40 31.20 32.01 34.54 34.04 33.67 33.38 33.25 33.93
48.03 47.36 47.32 46.14 43.98 43.75 43.25 43.66 44.08 42.99 41.79 41.10 41.75 37.51 32.98 31.95 34.04 34.03 32.21 29.41 29.64 28.50 29.74 28.96 28.70 27.70 31.14 31.56 27.81 25.56 25.16 26.30 30.66 32.30 32.79 32.87 33.04 33.63 33.43 32.31 32.52 31.86 29.44
46.18 45.78 45.40 45.36 44.72 44.86 43.99 43.78 42.94 41.57 41.23 38.65 36.12 33.46 32.49 30.77 33.05 33.10 29.80 26.48 24.69 24.26 25.66 27.16 28.77 28.44 29.88 29.60 26.17 25.38 24.81 25.90 27.27 27.64 28.56 29.85 31.26 31.13 32.52 32.38 32.66 31.13 29.52
45.84 45.71 45.21 45.16 44.85 44.50 42.21 39.92 38.22 36.79 34.55 31.18 31.88 31.38 30.52 29.81 29.78 30.48 29.05 24.74 24.28 24.86 24.49 24.17 24.22 27.41 27.92 28.97 29.49 26.98 27.19 29.34 29.87 29.44 29.32 30.10 30.37 30.27 31.22 31.72 32.17 33.10 29.77
45.45 44.63 43.62 43.67 43.01 40.71 36.87 35.73 35.91 33.27 30.36 28.68 28.85 27.71 27.30 26.63 28.99 28.74 27.89 26.91 26.33 24.19 23.83 23.62 24.08 26.86 27.89 28.43 27.92 28.88 28.37 27.73 28.06 27.47 27.58 28.61 28.45 30.05 30.09 32.37 32.50 32.72 33.44
42.83 41.40 40.25 39.44 38.55 36.91 33.94 32.20 31.83 31.01 28.15 27.65 27.81 26.62 25.39 25.40 23.71 25.72 25.50 25.14 25.25 23.42 24.06 24.22 25.44 26.17 26.81 25.92 26.57 26.04 24.64 24.11 22.87 23.16 24.08 25.12 29.96 31.33 32.12 32.52 33.19 31.53 31.68
38.84 37.03 35.12 33.90 33.01 31.86 32.72 32.01 29.70 27.32 25.61 27.02 26.50 24.86 23.44 22.49 21.36 20.83 21.72 20.41 23.14 23.07 22.84 22.39 22.53 24.20 22.60 22.17 22.38 23.09 22.46 21.61 21.07 22.39 21.90 24.69 30.10 30.48 30.91 32.40 31.03 29.68 26.92
36.39 34.32 32.80 31.67 29.87 27.68 28.20 27.81 25.36 24.77 26.41 25.28 23.80 24.44 19.84 17.09 21.30 21.31 21.87 21.97 18.00 22.92 19.45 19.12 20.01 19.89 20.06 20.24 20.13 20.48 20.28 20.37 19.25 19.45 20.99 21.83 23.92 28.66 31.07 31.44 30.67 29.38 26.35
32.24 31.32 29.40 29.18 28.15 27.17 26.32 24.59 26.77 26.69 27.80 27.36 26.40 23.81 23.67 23.86 22.83 22.75 23.13 23.56 24.10 24.55 18.69 14.41 9.31 6.96 11.51 17.07 16.65 16.57 17.08 17.10 18.48 18.82 18.37 20.20 21.54 22.95 28.11 30.46 30.47 28.52 27.30
29.96 30.51 28.51 27.80 27.31 26.60 24.84 23.59 21.83 25.31 26.73 26.05 25.54 24.81 24.59 22.78 22.19 22.50 22.69 23.35 23.82 22.26 14.04 12.81 6.22 5.33 8.98 16.38 15.75 15.13 14.26 15.92 18.10 17.87 16.26 17.84 19.54 22.46 21.06 26.64 28.61 28.16 26.61
28.70 29.39 28.49 27.73 27.61 27.13 26.11 26.30 24.21 23.10 22.00 22.89 25.27 24.29 24.32 22.75 21.73 22.30 22.97 22.91 17.96 18.51 17.60 14.83 10.10 10.47 13.50 14.41 14.35 14.07 14.21 14.10 14.87 15.39 14.74 15.76 17.46 19.09 18.27 19.18 25.83 25.97 26.21
28.10 26.95 25.92 25.16 25.65 25.61 25.77 25.00 25.20 24.75 24.38 23.66 23.41 23.51 22.59 21.60 20.80 20.56 21.84 15.86 12.64 14.12 16.05 15.27 11.70 12.27 11.43 12.63 6.85 9.08 7.52 11.09 11.59 12.54 12.64 14.47 15.15 16.92 15.68 17.44 19.28 27.37 26.43
26.07 26.55 25.30 25.08 25.18 24.86 24.96 24.44 24.36 23.69 23.17 22.51 21.64 20.09 18.25 15.82 11.25 8.86 9.01 6.72 8.18 12.51 11.52 13.18 13.56 13.20 7.32 8.49 3.07 4.55 10.12 8.30 10.88 10.16 10.67 13.19 13.25 14.90 14.50 15.34 16.61 18.22 25.22
23.41 24.35 24.64 25.14 24.02 23.27 22.70 22.62 22.21 21.44 20.87 20.33 18.47 15.72 15.19 14.44 11.82 10.83 14.86 10.51 10.19 9.64 5.57 8.54 7.09 1.50 2.35 3.42 10.72 8.51 6.90 6.54 9.78 9.09 10.86 10.47 11.75 11.87 14.14 14.28 14.89 16.10 18.95
23.80 23.85 23.63 22.58 22.36 21.21 19.91 19.97 20.09 19.20 19.10 18.45 17.44 16.11 14.92 11.43 13.46 15.23 12.74 7.68 3.92 5.52 5.60 3.62 1.86 3.60 4.56 8.84 7.16 5.12 7.36 8.28 8.23 9.57 8.10 8.67 10.74 12.27 12.12 11.31 11.94 14.35 16.39
21.71 21.19 20.92 20.20 19.55 17.58 17.68 18.74 18.20 17.32 16.28 15.76 15.70 15.47 15.17 11.82 11.49 11.22 8.19 2.48 4.86 3.58 1.65 1.60 -2.40 3.98 4.56 1.95 4.46 10.26 8.66 8.07 8.73 8.69 8.74 9.19 10.47 9.96 10.26 9.89 11.81 13.64 14.61
20.57 19.34 19.10 18.68 17.56 16.24 15.47 15.21 15.19 15.76 15.55 13.60 11.95 12.53 11.51 11.67 7.87 4.94 3.05 1.43 0.03 -4.41 -6.94 -1.89 0.53 3.18 5.95 7.31 6.15 7.24 9.27 9.84 10.47 11.40 11.34 9.40 8.96 10.26 10.55 10.78 11.58 12.14 13.55
18.72 17.66 16.78 16.76 16.13 15.35 14.13 14.05 12.94 11.95 11.09 10.79 9.18 9.94 10.30 6.61 7.51 2.68 -1.27 -3.15 -3.41 -5.68 -2.61 -3.02 -2.19 1.79 2.24 2.40 4.45 6.14 8.61 11.22 11.40 11.81 11.58 10.67 9.40 9.66 10.21 10.96 11.34 11.90 13.71
18.26 17.22 16.18 15.47 14.08 12.33 10.71 8.56 8.02 7.85 7.55 7.76 6.48 4.38 3.39 4.28 2.30 -5.13 -3.94 -4.40 -0.18 -3.45 -4.57 -4.47 -0.31 0.34 1.83 5.35 7.24 10.32 9.43 8.98 9.26 10.33 10.93 10.86 9.95 10.66 11.40 11.01 10.95 11.76 13.36

GFSGL_sfc_wetblb_066.txt.gz
Wetbulb
56.44 56.62 56.46 57.61 58.70 58.32 58.33 58.43 57.93 57.73 58.76 57.85 55.69 53.20 51.37 51.03 49.47 48.39 46.42 45.05 44.53 43.95 44.13 44.02 43.65 43.85 43.47 43.56 43.79 43.12 40.89 39.76 38.37 39.93 37.82 36.13 34.40 35.21 37.22 37.13 38.27 37.68 38.81
58.40 58.27 57.78 58.33 59.05 59.17 59.33 58.44 57.82 57.09 55.13 54.64 53.28 51.60 50.10 48.77 47.47 46.08 44.50 44.44 43.39 43.14 43.08 42.97 43.15 43.84 42.56 43.41 43.06 42.54 41.50 40.03 39.49 37.80 38.93 34.05 34.08 35.84 36.02 36.05 38.09 39.04 37.62
60.47 59.38 58.78 59.11 58.62 58.35 57.59 57.41 56.41 54.29 52.31 50.77 50.62 49.15 47.94 46.55 45.61 44.82 43.87 43.72 43.60 43.26 42.89 42.67 42.41 43.29 43.22 42.00 40.51 38.43 39.37 41.55 39.41 35.69 36.37 35.74 34.37 34.31 34.42 35.10 36.29 34.81 37.56
57.58 58.80 58.53 59.46 59.39 58.18 54.66 52.73 51.57 51.52 49.51 48.75 48.80 47.14 45.76 44.99 44.59 44.09 43.78 43.07 42.67 42.66 42.71 42.93 43.53 42.50 38.92 37.62 37.72 36.17 35.97 33.10 33.59 32.68 33.34 33.52 31.56 33.14 32.84 32.24 33.71 31.57 34.04
55.87 56.49 53.24 52.53 53.00 52.18 50.97 50.19 49.27 48.62 48.01 47.11 45.72 45.07 44.63 44.36 44.05 43.10 42.51 41.95 41.62 42.35 42.83 42.78 41.79 40.17 37.88 36.03 33.13 29.54 28.62 27.84 28.19 27.49 28.08 29.23 29.86 29.30 29.12 31.29 30.80 31.86 34.16
52.60 50.72 50.46 50.12 49.90 49.45 48.69 47.54 46.80 45.93 45.61 45.03 44.23 43.78 43.45 43.29 39.27 39.97 41.22 42.43 42.26 41.55 39.50 35.43 34.70 33.27 33.76 34.21 33.85 33.65 31.37 27.09 25.46 24.94 25.87 26.30 27.19 28.55 30.33 30.82 31.99 31.75 30.31
50.93 50.02 49.43 48.91 47.63 47.13 46.59 46.73 44.80 44.14 44.07 43.01 42.81 42.50 41.48 41.31 39.35 39.84 39.08 40.58 37.39 33.63 30.53 30.08 31.65 31.51 30.89 29.99 29.97 29.80 29.08 29.91 28.60 26.06 24.80 25.91 26.27 27.16 28.97 28.35 29.19 29.70 29.64
49.83 49.20 48.70 47.53 46.95 46.18 45.58 44.20 43.88 42.99 42.14 41.53 40.49 39.94 39.99 40.65 38.44 37.20 35.17 32.03 30.12 29.93 28.74 27.69 26.98 26.77 29.07 27.97 26.77 25.36 25.51 25.83 26.66 27.47 26.78 27.13 27.77 28.25 27.75 28.50 28.14 28.31 28.92
48.97 48.08 47.90 46.80 45.64 44.76 43.82 42.85 42.14 40.87 39.69 39.19 38.87 36.06 34.26 36.06 35.55 33.81 31.19 28.65 27.51 26.41 27.27 27.36 27.12 26.29 28.71 29.36 26.35 24.76 25.14 26.30 30.09 31.47 32.04 32.42 32.53 32.51 32.32 30.45 27.45 26.54 25.70
48.16 48.21 47.16 45.81 44.27 43.71 43.12 41.50 41.03 40.74 40.29 39.47 35.01 33.80 32.48 31.82 33.32 32.31 29.00 25.63 23.75 23.85 25.27 26.22 27.43 26.53 27.61 28.49 25.91 25.18 24.82 24.55 25.08 27.20 28.07 29.06 30.46 31.08 31.77 30.57 29.43 27.07 27.78
46.38 45.74 44.43 44.23 43.52 43.20 42.83 41.66 39.43 36.58 35.41 31.91 29.94 29.81 29.26 29.88 29.76 30.34 28.66 24.70 24.45 24.80 24.08 23.29 23.53 26.35 27.65 28.49 28.20 25.38 24.17 24.69 25.45 23.64 24.15 25.64 26.68 28.10 29.97 31.13 30.94 29.58 28.22
44.60 44.01 43.59 43.85 43.90 43.84 39.28 36.60 34.75 32.48 30.57 28.60 27.58 26.17 26.22 26.78 29.33 29.00 28.21 26.88 25.75 24.23 23.31 23.33 23.53 26.46 27.34 27.45 25.12 25.77 25.30 24.17 21.59 20.61 22.16 22.31 22.23 23.88 27.26 31.11 32.03 31.33 32.30
43.36 41.96 40.91 39.52 38.51 37.28 35.54 33.50 31.81 30.52 28.96 27.85 26.77 24.47 23.78 24.36 24.93 26.67 26.06 25.67 24.83 23.42 24.20 24.00 24.85 25.50 26.05 24.87 24.45 24.15 22.79 20.85 18.78 17.78 18.53 19.41 21.39 23.16 26.06 28.36 32.17 32.26 32.53
38.85 36.73 36.09 34.52 31.78 31.71 31.90 31.75 30.03 27.46 27.91 27.88 26.65 24.60 23.65 22.30 21.47 21.91 22.15 22.16 23.39 23.36 22.85 22.80 22.20 23.87 21.51 21.87 21.96 22.29 21.16 19.97 18.57 17.37 17.60 19.00 19.99 20.89 22.40 24.11 28.37 30.87 29.97
34.78 33.26 31.68 30.20 29.83 27.53 25.66 26.26 26.76 26.95 27.62 26.68 25.92 25.52 22.24 21.04 22.55 22.86 23.10 22.97 22.14 23.46 19.62 19.41 20.74 19.75 18.65 18.88 19.48 18.97 18.58 18.03 16.76 16.81 17.27 15.99 16.83 18.79 19.71 23.12 23.42 29.18 27.33
30.62 29.80 27.56 26.85 27.24 25.84 24.24 24.00 28.70 28.42 28.86 28.28 27.30 25.37 24.83 24.93 24.14 23.50 23.25 23.36 24.00 24.55 21.04 17.72 14.60 13.14 14.52 16.65 15.78 15.23 15.82 14.86 15.42 15.20 15.28 15.09 14.96 15.81 18.01 19.46 20.80 23.69 25.52
29.40 28.42 27.67 27.10 26.21 25.35 25.02 24.76 22.90 25.47 26.96 26.73 26.30 25.90 24.93 23.83 23.30 23.15 23.12 23.35 23.51 21.70 17.51 15.53 11.03 9.32 12.48 15.53 14.97 14.02 12.68 13.78 14.85 13.37 12.96 13.00 13.91 14.81 15.89 16.76 17.34 18.24 23.26
29.04 28.82 28.00 27.67 27.42 26.64 25.70 24.98 24.70 23.66 22.47 23.22 25.26 25.00 24.71 23.41 22.71 22.44 23.31 22.91 19.26 19.09 18.10 15.45 12.91 13.40 14.11 13.52 13.37 12.43 12.06 11.21 9.79 10.29 10.75 9.33 10.93 13.03 12.82 14.46 15.77 15.10 16.43
26.33 25.96 26.19 26.10 26.16 26.08 26.17 25.83 25.55 25.06 24.88 24.12 24.17 24.27 23.55 22.89 20.84 20.38 21.07 17.98 16.47 15.91 15.62 14.52 14.18 13.88 12.51 12.11 8.21 5.39 0.73 0.54 4.12 3.64 4.40 5.52 9.56 10.45 10.17 13.04 14.11 14.31 14.90
26.27 26.44 26.58 26.12 25.37 24.94 24.88 24.60 24.34 24.01 23.42 22.56 21.97 19.83 18.59 17.28 14.71 12.97 14.45 12.33 13.57 14.44 13.67 13.69 13.41 12.56 9.38 7.86 2.27 -1.44 -1.10 -1.38 2.27 5.78 2.71 5.49 3.26 7.13 8.66 10.77 12.56 11.87 13.23
25.68 25.43 24.94 24.89 24.01 23.53 23.42 22.88 22.31 21.64 21.11 20.57 19.17 17.78 17.62 15.71 14.61 14.26 16.00 13.00 13.52 13.31 11.39 11.51 10.20 5.08 4.53 2.84 6.19 -1.30 0.07 -2.20 4.04 6.77 6.84 7.25 5.09 6.14 9.05 11.41 11.28 11.65 13.02
24.10 23.71 23.16 22.48 22.26 20.90 20.48 20.74 20.16 19.63 19.43 18.17 17.09 16.82 16.24 14.57 15.33 16.01 14.96 12.80 10.01 11.35 10.64 8.05 5.71 4.60 4.05 4.51 2.05 -3.80 2.04 3.94 0.56 4.66 5.98 6.46 7.29 7.92 9.06 9.42 9.33 10.31 11.41
21.51 20.98 20.76 20.17 19.68 18.88 18.43 19.09 18.05 17.39 16.25 16.05 15.86 15.85 15.74 13.83 13.46 13.03 11.62 8.15 10.53 7.67 6.64 5.68 -2.03 1.14 1.16 -3.65 -3.10 2.50 5.22 4.59 6.46 7.59 6.56 6.26 7.28 7.98 7.22 7.65 9.23 9.73 10.22
19.81 19.02 18.94 17.99 16.98 16.37 15.79 14.73 15.25 16.01 15.50 14.86 13.47 13.46 12.20 11.32 8.49 7.74 7.23 6.50 5.80 0.26 -2.90 -4.19 -3.73 -0.70 1.75 -2.47 -2.84 -0.04 5.80 7.43 8.38 9.14 9.08 8.49 7.79 8.07 7.55 8.22 9.18 9.71 10.07
17.42 16.76 16.22 15.86 14.97 14.32 13.96 13.38 12.37 11.51 11.53 10.50 9.25 8.68 9.83 8.31 8.19 3.29 2.36 0.71 -1.46 -6.38 -3.50 -5.22 -7.08 -3.48 -2.24 -2.32 -0.55 0.85 2.48 7.29 7.36 6.96 7.40 7.55 6.95 6.71 7.10 8.10 8.83 9.83 10.97
16.12 15.29 14.49 14.18 12.80 11.94 10.56 9.01 8.30 8.11 6.74 6.58 5.30 3.50 3.33 3.14 1.16 -5.33 -6.89 -6.52 -7.44 -8.01 -7.01 -7.29 -4.97 -3.08 -2.12 0.34 2.96 6.49 3.91 3.39 4.56 5.69 6.48 6.13 5.78 6.37 7.63 7.87 9.61 10.46 10.89

GFSGL_sfc_wetblb_072.txt.gz
Wetbulb
52.31 52.10 52.22 52.12 52.53 53.13 53.47 54.26 54.63 54.90 54.84 55.62 56.05 56.31 56.39 56.53 55.29 53.74 53.42 50.92 50.65 48.32 47.45 47.32 46.19 45.61 44.71 44.63 44.56 43.88 42.75 42.53 39.82 40.97 40.60 39.28 38.39 37.61 38.24 38.36 38.86 38.09 38.39
52.85 52.53 52.41 52.78 53.16 53.28 53.91 54.30 55.08 55.28 55.93 56.72 56.82 56.59 56.33 55.49 52.49 51.91 49.94 49.35 49.49 47.56 46.62 45.90 44.85 44.97 43.96 44.08 43.79 42.73 42.39 41.92 40.30 38.14 38.55 37.26 36.07 36.86 36.50 35.47 36.54 38.13 37.81
53.47 52.97 53.02 52.91 52.88 53.03 53.00 53.75 55.09 55.74 56.28 56.96 56.99 55.95 55.23 53.26 51.71 51.03 50.39 48.95 48.37 48.66 46.06 45.16 44.18 44.00 42.89 43.12 43.34 41.67 39.88 39.65 37.59 35.86 33.73 33.90 33.81 33.97 33.16 33.29 33.80 34.24 34.99
53.30 52.88 52.34 52.45 53.19 52.86 52.41 53.87 55.58 56.78 56.87 56.21 54.91 53.95 52.46 50.50 49.94 48.66 48.24 47.68 46.17 45.85 45.19 44.58 44.01 43.18 42.68 41.70 39.70 37.61 33.81 31.54 30.29 28.61 28.11 28.61 29.67 30.27 29.66 28.06 27.11 30.13 29.91
52.91 52.92 52.58 52.85 53.19 52.29 53.12 55.44 56.09 56.61 56.82 56.15 53.77 52.33 51.95 49.92 48.80 47.70 46.55 44.85 44.24 43.88 44.39 43.00 41.69 40.75 39.54 38.73 34.81 31.06 30.65 28.85 27.47 25.42 24.59 25.19 23.63 24.06 24.33 26.73 26.87 27.61 28.72
52.83 53.06 53.59 53.68 54.03 54.23 54.79 55.68 57.09 55.97 55.03 52.22 50.11 48.80 46.91 46.15 41.10 42.25 43.71 44.05 43.62 43.10 37.59 35.72 35.44 35.13 34.11 33.96 32.66 31.52 29.67 25.60 23.79 23.04 23.35 23.04 23.64 24.42 26.16 25.57 25.45 24.54 23.73
53.12 53.47 53.91 54.15 54.29 55.18 55.34 53.82 52.58 51.49 49.91 48.30 46.53 46.09 45.50 44.70 40.11 40.44 40.42 43.24 42.12 36.92 33.74 32.07 31.81 32.16 31.31 29.92 29.48 28.93 28.90 29.06 26.75 25.56 23.86 24.33 24.45 25.96 26.40 25.55 26.24 25.90 25.69
53.81 54.06 54.94 54.98 53.96 50.69 49.74 49.54 49.38 48.46 47.74 46.80 45.21 44.79 44.23 41.55 38.72 38.87 37.80 36.37 33.82 32.99 32.61 30.92 30.11 28.74 28.51 27.81 25.98 26.16 26.46 27.13 27.82 27.78 26.70 26.50 26.61 27.28 28.15 28.48 27.61 27.67 28.47
54.59 53.58 53.28 53.13 50.03 48.78 47.56 46.47 45.89 45.84 45.01 43.71 43.42 43.30 41.08 38.57 36.72 35.27 34.22 31.89 29.92 28.75 28.77 28.84 28.27 27.64 29.21 29.59 26.56 25.67 25.60 26.39 27.22 27.55 27.86 27.52 27.81 28.39 28.97 27.97 25.63 24.68 23.91
52.08 51.57 50.35 49.48 48.01 47.32 46.24 44.54 45.00 44.01 42.33 40.77 39.57 40.24 37.69 34.96 34.72 34.13 32.25 29.53 27.01 26.75 27.02 27.41 27.62 26.62 28.59 28.80 26.35 25.07 23.19 23.44 23.54 23.19 23.55 24.06 25.39 26.36 26.67 25.57 25.30 23.16 23.18
50.41 49.30 48.71 48.34 47.25 46.44 44.50 43.30 42.23 39.26 36.43 34.31 33.10 33.85 33.77 33.56 32.96 32.59 31.24 28.75 27.02 25.51 24.37 23.14 25.00 27.39 28.49 28.45 26.46 25.07 23.65 23.01 22.20 21.79 21.30 21.74 22.77 22.53 23.06 23.45 23.84 22.66 21.14
48.50 47.28 47.16 46.96 44.91 43.03 41.43 40.00 37.75 35.34 32.80 31.97 30.59 29.20 29.03 29.48 30.46 30.45 29.51 28.12 27.55 24.57 23.81 23.54 24.78 27.35 28.19 26.39 24.91 24.73 23.03 21.72 20.88 19.47 18.75 18.76 18.98 19.87 20.38 21.15 22.34 23.53 24.60
44.94 44.32 43.32 42.84 41.25 40.22 38.36 36.23 34.91 33.77 31.80 31.04 29.44 26.91 26.26 27.32 28.14 28.89 28.13 27.48 26.56 24.54 24.97 25.43 26.20 27.42 26.48 24.44 23.85 22.77 21.47 20.10 18.12 16.92 16.51 16.66 18.14 19.61 19.72 20.17 20.85 22.34 22.91
42.67 40.97 39.75 38.46 36.88 36.57 36.56 35.63 34.17 32.25 30.53 29.35 28.04 25.98 24.75 24.18 24.17 24.97 24.45 24.61 25.50 24.78 24.10 24.38 24.44 24.51 22.79 22.22 22.10 21.48 19.78 19.12 17.31 16.45 15.45 16.42 17.71 17.09 16.26 17.47 16.62 18.24 18.40
38.53 36.39 34.71 33.28 31.68 29.54 29.52 31.38 31.75 31.70 32.21 29.92 28.32 26.40 23.76 22.23 22.85 23.83 23.83 23.37 23.80 24.11 23.40 22.86 21.32 20.58 19.45 19.56 19.56 18.55 18.11 17.35 15.73 15.79 14.84 14.23 13.94 14.30 13.39 15.80 15.91 16.31 15.24
33.34 33.11 31.89 31.07 30.21 29.63 28.78 27.93 30.61 30.51 30.56 29.88 28.70 26.66 25.97 26.30 25.89 25.63 25.44 25.27 25.36 24.77 21.72 19.47 16.57 16.51 16.54 17.15 16.65 15.98 15.96 14.94 14.70 14.29 13.47 12.34 11.69 11.59 11.20 12.57 13.91 12.94 13.17
31.81 31.05 30.14 29.69 28.60 27.53 27.28 26.55 24.27 27.28 29.51 29.32 28.96 28.37 27.40 26.71 25.87 25.29 24.87 25.03 24.67 23.28 18.57 17.40 14.72 13.98 14.53 16.08 15.84 14.95 13.61 14.00 14.32 12.82 11.11 10.42 10.60 10.21 9.40 10.41 10.16 10.51 10.69
29.42 29.33 28.45 27.79 27.16 26.24 25.33 25.19 25.36 23.93 22.22 22.99 26.53 26.54 26.51 25.74 25.33 24.78 24.87 24.39 20.70 19.94 18.46 15.88 14.36 14.45 14.84 14.56 14.00 12.91 12.32 11.93 11.28 10.16 8.97 8.60 8.06 7.72 7.10 8.07 7.87 7.37 8.64
27.93 27.35 27.22 27.05 26.80 26.79 26.42 25.71 25.09 23.95 23.05 22.88 24.08 24.84 25.88 25.78 25.05 24.68 23.99 20.46 19.00 17.96 18.03 16.87 16.16 15.48 14.47 13.75 12.83 11.23 9.75 8.87 8.71 6.87 5.83 5.51 5.17 5.49 5.21 6.14 5.85 5.06 6.23
27.09 26.97 26.90 26.39 25.92 25.72 25.74 24.97 24.76 24.59 23.89 23.19 22.31 21.58 20.07 19.30 16.94 16.25 16.96 16.63 17.13 17.32 16.77 16.04 15.80 14.92 13.05 11.92 10.74 8.64 7.41 7.30 6.67 5.93 5.74 3.29 1.66 2.09 2.98 3.55 4.21 4.59 6.27
24.28 23.53 23.26 22.94 22.26 22.13 21.99 21.26 21.26 20.95 19.87 18.43 17.43 18.95 19.01 17.56 16.34 16.17 17.04 15.10 15.60 15.52 14.33 14.55 12.98 11.39 10.60 9.88 9.26 8.19 5.95 3.93 3.84 3.64 2.59 3.50 0.44 0.65 3.91 4.78 5.85 6.47 7.08
21.26 20.58 20.20 19.56 19.89 19.25 18.88 19.00 18.19 17.64 17.28 16.54 16.50 16.81 17.18 15.70 16.15 15.97 13.79 12.06 11.41 12.16 11.92 10.64 9.48 9.16 8.32 6.91 5.79 4.01 2.27 -0.11 -0.29 0.85 -0.07 0.46 2.98 4.80 4.78 4.97 5.09 5.74 6.41
18.91 18.20 17.77 17.77 17.43 16.56 15.96 16.06 15.28 14.97 14.45 14.32 14.46 13.75 12.84 11.19 10.64 10.18 8.94 8.72 8.92 7.05 7.13 6.66 3.02 4.08 5.04 3.35 1.31 0.31 -2.04 0.07 1.68 2.00 2.01 2.63 3.40 4.41 4.62 4.28 4.66 4.87 5.85
16.89 16.11 15.25 14.44 14.30 13.35 12.24 11.46 12.13 12.00 11.76 10.61 9.80 9.13 7.35 4.17 1.01 0.45 -1.14 -1.40 -0.36 -3.55 -5.60 -6.30 -2.57 -1.14 0.01 -4.01 -4.40 -2.98 0.35 -0.30 2.58 3.82 3.31 2.31 1.59 2.15 3.04 3.51 4.30 4.66 5.47
13.64 12.47 11.63 10.42 9.57 8.41 7.27 6.19 5.20 4.39 4.30 3.14 -0.41 -1.86 2.08 0.46 2.11 -6.24 -11.11 -9.48 -8.06 -11.29 -7.94 -9.20 -9.50 -6.44 -5.76 -5.97 -5.18 -3.99 -3.81 0.48 0.74 -0.58 0.79 1.15 1.18 1.15 1.64 2.62 2.96 3.96 5.01
10.03 8.74 7.33 6.30 4.79 3.90 1.65 -1.29 -3.36 -3.91 -5.31 -4.58 -7.30 -6.39 -3.86 -2.98 -4.05 -12.01 -11.83 -11.29 -11.48 -10.05 -9.03 -8.13 -7.06 -6.63 -6.38 -4.52 -2.92 -0.83 -2.71 -3.58 -2.19 -1.08 -0.04 0.87 0.27 0.39 1.77 2.13 2.77 4.05 5.27

GFSGL_sfc_wetblb_075.txt.gz
Wetbulb
55.83 56.16 56.09 56.04 55.74 55.89 55.55 55.57 56.66 57.83 57.53 57.18 57.14 57.48 57.91 58.55 58.59 58.18 58.35 58.17 56.82 56.18 53.67 54.10 51.36 49.03 48.29 48.16 47.80 47.33 47.57 46.33 44.74 45.71 45.02 45.83 45.30 47.30 46.73 46.36 44.58 43.28 43.28
55.95 55.85 55.76 56.06 55.97 55.18 55.15 55.94 57.15 56.94 57.84 57.97 57.93 57.94 57.91 56.19 56.60 56.70 56.28 55.52 54.48 52.22 50.77 50.78 50.02 48.32 47.84 47.44 46.70 46.31 47.39 45.50 43.04 41.60 41.41 45.52 41.40 45.11 43.21 41.91 40.05 38.72 38.25
55.84 55.51 55.73 55.89 55.70 55.44 56.16 56.69 56.68 56.85 57.17 57.61 58.18 57.42 57.96 58.97 57.74 57.43 55.08 52.97 52.29 52.50 51.44 50.27 48.79 47.38 45.39 46.05 45.84 45.12 44.44 43.12 41.14 39.67 37.94 42.88 40.46 42.17 40.46 37.39 36.44 36.08 36.47
55.84 55.53 54.91 55.19 55.55 55.95 56.47 56.75 57.06 57.17 57.02 57.44 57.33 57.14 58.04 58.30 56.60 54.81 53.24 52.05 51.39 50.80 49.11 49.00 47.36 47.22 45.15 45.85 43.95 41.88 38.99 35.96 36.68 33.72 33.87 37.11 38.13 38.53 35.55 33.70 33.42 35.31 34.22
55.53 55.08 54.97 55.25 55.60 56.06 56.20 56.37 56.64 57.15 57.32 57.73 57.77 55.70 56.42 55.36 53.48 52.59 52.87 51.34 49.24 46.75 46.12 45.71 45.25 44.83 43.06 42.79 40.30 38.88 35.60 33.18 32.93 30.39 32.45 34.16 34.39 32.62 31.93 33.79 31.60 32.71 33.68
55.61 54.95 55.72 55.66 55.66 55.17 55.28 55.67 56.10 56.56 57.29 58.00 58.04 56.43 53.80 53.17 45.26 44.72 48.52 48.12 46.19 44.73 40.71 39.15 38.95 39.28 36.26 35.54 34.68 34.16 34.75 31.64 30.17 31.35 32.04 31.87 31.74 31.75 32.66 31.50 30.81 30.21 29.36
55.16 55.53 55.59 55.82 55.20 55.44 55.62 55.87 56.30 56.95 57.69 56.45 56.39 54.69 52.50 50.89 41.62 42.51 42.54 46.16 44.32 40.84 37.42 35.63 34.00 33.57 32.90 32.74 31.08 30.58 30.10 29.25 29.30 32.68 31.43 30.94 30.29 31.71 31.13 30.55 30.83 30.49 30.25
55.10 55.03 55.39 55.70 55.64 55.80 55.86 56.43 57.13 56.98 55.92 52.99 50.56 49.96 48.41 45.75 39.95 40.30 39.48 41.58 38.00 36.36 35.08 34.16 32.62 31.20 30.67 29.64 28.28 27.92 28.66 29.15 30.25 30.64 31.75 31.18 31.20 31.60 31.08 30.73 30.74 30.85 31.78
54.98 55.12 55.35 55.80 55.58 54.62 54.66 53.83 51.24 49.87 48.68 47.34 46.42 45.01 42.96 40.21 38.04 37.17 36.87 35.37 33.33 31.87 31.96 31.70 30.51 29.49 30.08 30.26 28.14 27.37 27.48 28.85 28.25 27.70 26.87 26.22 26.61 27.19 28.32 30.16 28.11 26.92 26.56
55.94 55.94 56.46 56.22 51.50 50.25 48.46 47.76 46.95 46.77 44.65 43.22 41.66 41.66 38.74 37.28 35.97 35.81 35.17 32.18 30.05 28.50 28.94 29.11 29.70 29.61 29.75 29.00 28.49 27.95 27.15 27.64 27.11 26.88 27.81 27.04 26.37 27.42 25.36 28.14 27.66 25.10 25.38
54.30 52.16 51.70 51.69 50.58 49.57 47.18 45.20 43.92 40.92 38.23 36.24 34.95 35.61 35.75 35.36 34.33 34.29 33.80 32.04 29.18 27.16 26.46 26.36 27.71 29.34 29.68 28.67 28.32 28.97 27.12 26.77 24.26 25.25 25.08 25.39 25.82 25.17 25.57 25.60 25.47 25.14 24.59
51.23 50.15 49.16 48.80 47.49 46.46 44.36 40.95 38.84 36.87 33.76 32.00 30.92 30.16 31.20 32.04 32.72 32.39 31.42 30.33 29.52 26.34 25.04 25.97 27.91 29.32 28.83 27.04 27.11 25.19 23.51 24.08 25.01 23.92 23.09 22.44 22.15 22.62 23.85 23.57 24.16 24.75 26.17
47.60 46.01 44.34 43.21 42.36 41.80 39.43 36.97 35.35 34.97 33.16 31.54 30.32 28.96 28.12 28.73 29.36 30.44 29.69 28.89 28.03 26.11 26.75 26.99 28.36 28.75 26.71 25.67 24.93 23.52 22.62 23.62 22.73 21.82 21.28 20.88 21.59 22.44 22.67 22.88 23.09 23.67 24.04
43.60 41.93 40.98 38.89 37.32 37.23 37.01 36.15 34.41 33.20 32.02 30.51 29.11 27.15 26.34 25.96 25.86 26.01 26.07 26.17 26.95 27.08 26.92 27.80 27.87 26.72 25.77 24.64 24.16 23.28 23.38 22.68 21.08 21.18 20.62 20.77 21.14 20.72 20.48 20.71 19.54 20.79 20.10
39.46 37.75 35.79 34.51 33.04 31.21 31.34 32.86 32.31 32.63 32.99 31.12 29.44 27.60 25.36 23.90 24.46 25.68 25.74 25.60 26.56 25.78 25.98 26.11 25.12 23.98 22.74 22.68 22.37 21.56 22.39 21.82 20.64 21.01 19.29 19.11 18.64 18.35 18.42 19.11 18.08 19.09 18.07
35.80 34.75 33.65 32.75 31.87 31.09 30.00 28.71 30.65 30.15 30.24 30.07 29.10 27.38 26.77 26.63 27.16 27.42 27.15 26.67 25.72 24.93 24.49 23.61 22.35 22.32 21.54 21.38 21.55 20.97 20.95 18.26 19.26 18.71 18.26 17.25 16.15 15.81 16.09 16.47 16.84 17.14 15.48
34.06 32.57 31.54 31.10 30.33 29.29 28.42 27.13 25.17 28.49 30.17 29.96 29.53 28.91 28.33 28.26 28.27 28.00 27.34 26.78 26.15 24.22 23.28 22.32 21.61 20.70 20.09 20.76 20.78 19.99 18.75 18.80 17.04 16.42 15.76 15.07 14.44 14.15 13.86 14.19 14.36 14.81 14.17
29.64 29.36 28.50 27.56 27.10 26.76 26.59 26.40 25.85 24.35 23.55 25.12 28.01 27.82 27.54 27.42 27.00 26.48 25.84 24.91 23.14 23.07 22.58 21.64 20.86 20.76 20.66 20.03 19.26 18.04 17.29 16.52 15.77 15.11 14.69 13.83 12.96 12.51 12.19 12.00 12.80 12.55 12.86
28.71 28.00 27.95 27.88 27.68 27.28 26.87 26.08 25.71 25.50 25.55 24.97 25.71 26.26 26.59 26.48 25.93 25.25 24.31 24.68 23.14 22.27 22.02 21.13 21.42 20.72 19.97 18.64 17.86 16.65 15.07 14.41 13.56 12.55 12.27 11.21 11.07 11.07 10.50 11.04 11.57 10.08 9.96
26.48 27.10 27.00 26.45 26.35 26.48 26.85 26.87 26.44 25.85 25.33 25.06 24.00 22.52 23.10 23.67 22.45 21.69 22.33 22.12 21.83 20.95 20.68 19.90 19.71 19.19 17.48 16.25 15.49 14.26 13.15 12.77 11.96 11.63 11.63 11.21 11.11 10.80 9.98 10.01 10.66 10.58 11.33
23.30 23.29 23.68 24.04 24.36 24.17 24.49 23.87 23.67 22.98 21.79 21.18 21.07 20.94 20.22 21.29 20.16 20.09 19.94 19.46 18.91 18.24 17.66 17.19 16.22 15.43 14.90 14.16 13.18 12.63 11.50 11.01 10.25 9.74 9.68 9.63 9.54 8.50 9.48 10.25 10.66 10.87 10.84
22.45 22.40 21.74 21.11 21.48 21.27 21.02 21.19 20.84 20.09 19.75 18.99 18.93 18.07 17.69 18.88 18.06 16.52 15.87 15.20 15.28 15.17 15.02 13.84 13.11 12.39 11.97 10.91 9.96 9.27 8.08 7.48 7.85 8.04 7.95 7.42 7.60 8.76 9.24 9.30 9.34 9.88 10.48
20.96 20.11 19.45 18.98 18.58 17.96 18.16 17.70 17.21 17.04 16.43 16.29 16.01 15.39 15.38 14.80 14.22 13.75 12.97 12.93 12.50 11.39 10.99 10.69 9.80 8.68 9.78 8.86 8.62 7.81 6.13 6.31 6.94 7.12 6.16 6.63 7.25 7.96 8.50 8.32 8.14 8.40 9.31
17.87 17.16 15.94 14.89 14.89 14.06 13.89 13.98 13.53 12.69 13.16 13.05 13.28 13.04 12.33 11.60 10.58 8.76 8.55 9.15 8.90 8.68 7.94 6.64 6.15 4.89 5.02 4.88 6.44 6.62 6.24 5.98 6.26 6.03 6.15 5.47 4.83 5.81 6.74 7.20 8.00 8.17 8.22
14.43 13.26 12.33 11.53 10.97 10.59 10.41 10.04 9.67 9.85 9.49 9.55 9.68 9.95 9.52 8.80 7.92 7.29 6.52 6.42 4.95 5.29 4.61 4.04 3.88 3.63 3.10 1.36 1.47 1.96 2.25 1.70 3.21 3.17 3.24 4.09 3.82 4.01 4.51 5.80 6.55 7.50 7.79
10.45 9.81 9.15 9.29 8.39 7.71 7.03 6.22 5.77 5.77 5.51 5.81 5.99 5.99 6.19 5.97 5.69 5.14 4.32 3.67 2.66 2.39 2.07 3.01 2.48 0.92 0.41 1.72 2.25 1.67 -0.53 -0.96 -0.45 0.20 2.44 3.42 3.38 4.49 5.69 5.96 6.36 7.15 7.61

GFSGL_sfc_wetblb_078.txt.gz
Wetbulb
60.05 60.24 59.64 60.05 60.59 60.79 60.86 60.77 60.74 61.18 60.64 60.18 60.33 60.15 59.78 59.69 60.40 61.05 60.73 60.75 60.28 60.16 59.84 59.23 57.07 55.06 54.00 53.91 52.19 52.13 50.77 51.84 49.65 49.01 52.81 51.59 49.39 50.13 48.00 48.85 50.12 49.53 48.59
60.00 60.22 60.26 60.35 59.63 60.65 61.02 61.38 61.82 61.12 61.22 60.27 60.27 59.76 59.73 59.86 60.31 60.59 59.95 59.11 57.88 57.85 57.37 55.09 55.51 53.14 52.12 51.85 51.16 51.73 50.05 49.97 48.84 48.59 47.59 48.68 48.12 47.58 45.93 47.98 47.21 45.59 44.30
59.73 59.89 59.83 59.69 59.39 59.12 59.19 60.25 60.12 60.00 60.42 60.13 60.30 60.69 60.24 60.52 60.30 60.51 59.42 58.03 57.41 57.97 57.04 54.39 53.10 50.81 51.25 50.44 48.64 49.99 48.58 47.45 48.01 49.44 43.35 43.44 41.96 43.67 42.34 44.04 43.62 41.91 40.61
59.61 59.12 58.86 59.38 59.83 59.46 59.57 59.29 59.59 59.31 58.85 58.95 60.18 60.04 60.27 59.86 59.12 59.23 59.30 59.22 59.33 58.22 56.43 53.23 52.92 51.55 51.03 48.83 47.59 47.83 46.83 45.52 42.50 42.93 41.16 39.52 40.10 41.02 39.63 38.85 39.38 40.08 39.16
59.59 59.15 59.59 59.28 59.64 59.71 59.30 59.39 59.75 59.75 58.93 59.01 58.75 59.62 60.41 59.81 59.33 57.78 57.89 57.93 57.18 55.95 53.72 52.10 51.81 50.10 46.36 46.75 46.88 44.44 41.53 40.94 39.12 40.00 37.14 35.71 35.84 35.48 34.96 37.90 36.08 37.66 38.51
59.40 59.55 59.87 59.73 59.21 58.90 59.32 59.49 59.58 59.63 59.29 59.58 59.32 59.67 59.87 58.54 49.27 46.27 53.17 57.23 55.33 52.89 48.57 46.17 45.74 44.47 42.27 40.48 40.86 39.36 40.47 38.51 37.83 38.23 35.99 32.89 34.18 35.84 35.62 36.50 35.82 34.58 33.77
59.56 59.71 59.75 59.83 59.11 59.21 59.07 58.76 58.24 58.54 59.13 58.66 59.31 59.04 58.95 59.67 45.19 43.74 43.92 56.99 53.69 50.13 45.30 40.35 39.42 38.61 38.32 35.08 33.28 31.89 31.04 30.75 31.60 34.88 33.68 34.49 34.07 35.64 35.09 35.31 35.14 35.21 34.99
59.52 59.51 59.71 59.28 59.04 59.23 58.95 58.47 58.68 58.69 58.46 58.93 58.71 59.09 59.16 58.22 42.65 42.65 41.56 49.96 45.66 43.11 40.42 39.58 35.96 34.15 32.78 31.27 30.69 29.67 29.25 29.66 30.53 30.76 33.44 32.89 33.78 34.92 35.79 35.17 34.96 34.60 35.36
58.91 59.03 59.14 59.16 58.54 58.52 58.29 58.26 58.72 58.48 58.39 58.33 57.68 56.80 54.88 48.27 39.91 38.79 41.39 39.39 36.61 35.38 35.65 35.11 33.69 32.00 32.42 33.04 30.11 28.38 28.27 28.00 29.06 28.80 28.34 27.78 27.45 27.32 28.90 32.90 31.59 31.16 30.16
59.07 59.31 59.87 59.71 58.83 58.44 58.45 58.17 55.97 56.85 54.12 47.74 44.11 44.96 41.87 40.62 38.55 38.94 39.14 35.26 32.16 31.37 31.94 31.58 32.31 31.24 30.83 30.40 29.36 28.62 27.14 27.02 27.48 27.64 28.03 27.61 27.31 29.75 26.21 29.28 30.90 28.59 29.38
60.38 60.15 59.48 59.10 58.06 57.25 55.95 52.57 48.91 44.08 40.96 37.83 36.02 36.89 36.96 36.90 36.40 36.76 36.06 33.69 31.46 29.94 29.01 28.76 30.32 30.42 30.15 29.90 30.65 30.20 29.47 29.97 26.52 29.90 29.89 30.69 30.88 30.74 30.88 31.01 30.46 29.08 27.97
57.35 56.63 56.74 56.64 52.68 50.95 47.65 44.80 42.04 39.58 36.24 34.48 33.03 31.88 32.62 33.28 33.76 33.97 33.25 32.18 31.23 28.49 27.43 28.32 29.64 30.13 29.11 28.74 27.84 26.29 25.93 27.64 28.73 28.71 28.27 27.57 28.02 28.20 29.60 29.70 28.85 28.99 29.41
53.70 51.13 48.42 47.27 45.55 44.94 43.53 40.76 37.93 38.01 35.85 32.95 31.92 30.15 29.61 30.96 31.57 31.63 30.89 29.86 28.54 27.38 28.32 29.26 30.11 28.62 27.59 26.57 25.39 24.43 25.27 27.48 27.39 26.27 26.49 26.74 27.40 27.63 27.09 26.53 27.67 27.56 27.48
44.40 42.28 41.38 40.27 39.29 38.19 37.79 37.79 36.54 34.74 32.95 31.28 29.99 27.90 27.03 26.83 27.06 27.14 27.89 27.98 28.27 27.95 28.52 29.15 28.19 27.65 28.42 26.76 24.72 25.00 27.06 27.59 26.41 26.11 25.82 26.47 26.58 25.18 24.32 25.80 24.21 24.21 23.61
40.04 39.13 37.15 35.50 33.64 31.76 31.59 33.98 33.58 34.13 33.84 31.52 29.76 28.32 25.90 24.25 25.59 27.40 27.44 27.58 27.98 27.71 27.72 27.79 26.83 26.64 25.67 26.25 26.91 26.09 26.44 25.73 25.03 25.66 24.31 23.85 23.47 23.37 23.51 24.77 23.13 22.36 20.97
35.79 34.99 33.83 33.16 32.63 30.99 29.56 29.03 30.90 31.07 31.22 30.93 29.79 27.88 27.30 27.86 28.50 28.69 28.52 28.19 27.61 27.83 27.90 27.16 27.38 27.73 26.69 25.69 25.81 25.54 25.45 22.35 24.63 23.28 22.84 22.27 21.17 20.92 20.96 21.77 21.99 20.94 19.76
33.08 32.80 32.46 31.69 30.26 29.27 28.56 27.86 25.91 28.72 30.09 29.44 29.34 29.39 29.24 29.11 29.19 28.91 28.17 27.12 26.30 26.74 27.30 26.48 26.41 26.16 25.56 25.28 25.11 24.67 23.65 22.93 21.00 20.92 20.27 20.19 19.79 19.20 18.49 18.49 19.28 19.25 18.64
31.42 30.55 30.14 29.90 28.64 27.77 27.56 27.26 26.87 25.43 24.19 25.24 28.56 28.78 29.03 28.69 28.38 28.23 27.75 25.45 24.73 25.85 25.94 25.23 24.39 24.41 23.84 23.36 22.72 21.99 21.44 21.06 20.27 19.39 19.12 18.73 17.83 16.81 16.17 16.20 16.92 16.70 17.25
30.40 29.09 28.81 28.38 28.18 27.85 27.17 26.62 26.25 25.87 25.40 25.26 25.97 26.94 27.91 27.58 27.26 26.54 26.76 27.10 25.23 24.03 23.83 23.14 23.15 22.65 22.11 21.46 21.01 19.97 19.26 18.47 17.27 16.85 16.71 16.17 16.35 15.70 14.73 15.49 16.13 14.25 14.43
26.46 26.91 27.18 27.16 27.44 27.62 27.40 27.43 27.00 26.74 26.62 26.03 25.19 25.03 26.36 26.69 25.21 24.47 24.83 24.78 24.02 22.73 22.55 21.66 21.07 20.43 19.82 19.15 18.85 18.03 17.78 17.15 16.57 15.85 15.31 15.04 15.19 14.84 13.65 13.65 13.99 14.05 14.72
25.32 25.68 26.28 26.83 26.41 26.09 25.73 26.34 25.83 24.99 23.60 22.11 21.69 23.65 24.49 24.00 22.80 22.32 21.12 20.85 20.57 19.53 19.39 19.32 18.76 18.38 17.88 17.27 16.66 16.03 14.78 14.52 14.03 13.33 12.88 12.83 12.81 11.92 12.77 13.01 12.93 13.45 13.40
25.37 23.95 23.35 23.04 23.44 23.21 22.96 23.56 23.22 23.11 22.16 20.59 20.09 20.19 20.84 21.56 20.48 19.43 18.40 17.69 17.84 17.54 17.58 16.89 16.64 16.20 15.57 14.46 13.90 13.49 12.28 11.72 11.77 11.50 11.00 10.63 10.84 11.13 11.39 11.48 11.64 11.97 12.29
22.52 21.54 21.29 20.73 20.87 20.87 21.04 21.04 20.82 20.44 19.65 19.53 19.15 18.69 18.22 18.10 17.52 16.33 15.81 15.95 15.68 14.94 14.53 14.60 13.97 12.98 13.75 13.03 12.77 12.00 10.38 9.96 10.26 10.08 8.58 8.40 8.86 9.72 10.26 9.92 9.84 9.89 10.50
19.87 19.15 18.31 17.71 17.65 17.84 18.15 17.40 16.88 16.36 17.45 17.64 17.28 16.42 15.56 15.13 14.45 13.42 13.34 13.26 13.29 13.31 12.90 11.37 11.02 9.55 8.94 9.02 10.65 10.95 10.64 9.90 9.19 8.08 7.71 7.97 7.94 8.24 8.68 9.01 9.44 9.78 10.35
17.77 17.19 16.40 15.61 15.42 15.58 15.53 15.01 14.63 14.63 14.42 14.42 14.13 14.20 13.58 13.40 12.38 12.21 11.87 11.55 9.61 9.86 9.26 8.80 9.35 8.30 7.28 5.42 5.46 5.88 6.50 4.58 4.56 4.53 5.50 6.22 6.66 6.98 7.43 8.04 8.46 9.20 9.92
14.63 14.40 13.82 13.86 13.32 13.17 12.69 12.07 12.27 12.16 11.70 12.04 12.16 11.99 11.69 10.95 10.72 10.29 9.27 8.62 6.70 6.62 7.04 8.12 7.54 6.00 4.91 6.11 6.64 5.03 2.04 0.79 1.22 1.09 3.00 5.69 6.42 7.32 8.30 8.41 8.62 9.30 9.47

GFSGL_sfc_wetblb_081.txt.gz
Wetbulb
61.61 61.37 61.63 61.60 61.39 61.55 62.48 62.46 62.19 62.36 61.51 60.49 60.51 59.97 59.82 60.30 61.00 60.73 60.92 61.33 60.85 60.89 61.17 60.94 60.59 60.49 58.99 58.36 58.59 56.02 53.92 52.41 50.07 52.52 54.60 55.07 52.28 52.96 48.97 50.60 51.53 51.31 49.57
62.08 62.22 62.43 62.99 62.48 61.84 61.96 62.78 63.18 62.19 61.79 60.83 61.10 60.62 60.73 60.89 61.41 60.79 60.57 60.47 60.31 60.18 60.55 60.36 60.11 58.29 58.24 58.53 55.29 53.69 52.24 52.56 51.16 50.23 50.38 51.30 51.99 52.36 49.92 49.46 49.57 48.86 47.14
61.43 61.67 62.50 62.52 62.14 62.15 62.24 62.52 62.30 62.06 61.65 61.67 61.11 60.61 60.56 60.93 61.36 61.55 61.23 60.68 60.74 60.79 61.11 60.36 58.52 58.67 56.35 55.13 53.07 51.38 51.70 51.93 51.38 50.44 48.21 48.20 47.76 47.72 47.84 45.94 43.21 43.12 43.54
61.26 61.48 61.46 62.25 62.04 62.14 62.73 62.51 62.31 61.66 61.58 61.46 61.11 61.02 61.06 61.13 61.01 61.00 60.67 60.38 60.39 60.24 60.86 59.97 57.57 58.02 57.15 53.66 51.48 51.40 50.69 49.28 48.79 49.04 43.78 44.14 42.18 43.28 42.60 40.76 38.61 41.34 38.86
61.38 60.84 61.21 62.78 62.28 61.51 61.72 62.09 62.43 62.37 61.96 61.81 61.66 61.47 61.61 61.04 60.64 60.93 60.81 60.35 60.05 59.59 59.31 58.44 57.17 56.25 50.03 51.13 51.28 50.11 47.40 46.30 44.50 43.96 38.32 39.37 37.37 37.42 36.95 38.26 35.73 35.27 36.53
62.20 61.94 61.65 62.02 61.74 61.35 61.98 61.71 61.48 61.38 61.53 61.43 60.87 60.76 60.70 60.06 50.83 46.87 53.47 60.47 59.26 59.14 56.54 55.60 53.80 48.67 48.13 44.11 43.03 43.13 45.73 44.94 42.23 40.05 38.29 37.34 36.64 37.67 35.42 33.51 33.56 32.88 33.83
62.23 61.82 61.90 62.12 61.36 61.39 61.40 61.03 60.94 60.89 61.15 60.41 60.45 60.30 60.21 60.75 47.29 45.36 44.53 56.83 57.15 58.13 55.36 55.01 48.59 46.30 43.10 40.04 34.71 33.99 34.41 34.97 34.78 38.24 35.66 34.36 33.69 34.15 34.28 34.32 35.83 35.20 35.41
61.55 61.37 61.88 62.35 61.89 61.94 61.36 60.62 60.70 61.16 60.83 60.71 60.55 60.78 60.87 60.55 45.86 44.99 42.92 54.19 55.36 55.92 54.16 49.84 45.25 40.64 38.75 35.82 34.54 32.22 31.41 32.01 32.27 33.62 34.21 33.38 33.86 34.73 36.04 35.78 36.19 36.46 37.09
61.19 61.37 61.75 62.22 61.75 61.89 61.37 61.07 61.32 60.73 60.24 59.81 60.29 59.81 59.86 59.96 41.29 42.02 44.36 49.57 42.49 38.97 38.61 38.42 38.29 35.23 34.48 35.52 32.49 31.02 30.56 29.61 30.83 31.06 30.34 29.87 29.71 29.61 30.03 34.80 32.90 31.60 31.77
61.17 61.50 62.00 62.17 61.82 61.20 61.36 61.46 61.64 60.53 59.35 58.09 55.95 51.31 43.55 51.58 41.29 40.21 42.30 39.27 34.58 33.08 33.69 33.89 33.66 32.97 33.06 33.24 31.75 29.87 27.94 26.95 27.01 26.63 25.99 26.60 27.60 28.26 27.03 29.50 31.46 29.98 29.95
61.67 62.11 61.53 61.58 60.49 61.06 61.14 61.51 60.43 55.73 47.94 42.63 39.02 37.40 37.07 38.87 38.91 38.13 37.89 36.63 32.93 30.88 30.65 30.58 31.36 32.16 32.15 31.57 31.13 30.57 29.35 28.59 28.54 29.43 29.44 30.12 31.14 31.72 30.70 29.86 30.98 30.05 28.21
59.47 60.55 60.54 60.91 60.04 58.63 59.97 54.83 49.93 45.23 39.09 34.70 33.24 32.65 33.92 33.71 34.24 34.47 33.81 32.97 32.26 29.71 29.05 29.37 30.06 30.80 30.16 29.41 28.28 28.80 29.50 29.30 29.26 29.42 28.31 28.33 28.83 29.52 30.45 30.94 31.18 30.38 30.38
55.20 51.73 49.15 47.02 46.35 46.67 46.74 43.95 41.35 40.07 37.15 33.71 32.04 30.55 30.18 31.06 31.70 32.29 31.70 30.79 30.13 29.10 29.57 29.65 29.49 29.06 27.94 26.73 26.39 26.11 28.20 28.66 27.71 27.04 27.48 28.35 29.16 29.18 28.63 28.09 28.51 29.02 28.87
43.55 42.25 41.21 39.99 38.70 38.72 38.64 39.07 38.84 37.11 34.82 32.75 30.45 28.50 27.81 27.89 28.20 28.90 29.04 29.40 29.98 29.65 28.47 27.91 27.82 28.10 27.37 25.40 25.20 27.22 28.10 27.66 26.76 26.43 26.62 27.86 27.98 27.22 26.49 27.07 25.69 26.05 25.21
38.33 36.53 35.24 33.72 32.65 31.55 31.17 32.73 33.05 33.39 33.60 31.49 29.37 28.07 26.17 25.03 26.37 28.06 27.96 27.61 28.53 28.61 27.84 27.66 27.30 26.53 25.98 26.70 27.93 27.46 26.86 26.23 25.49 25.61 24.62 24.67 25.14 25.38 24.71 25.75 24.68 23.74 22.07
33.65 33.11 32.34 31.59 31.15 30.46 29.34 28.26 30.91 30.86 31.11 30.80 30.01 28.21 28.02 29.08 29.82 30.02 30.26 30.00 29.89 29.54 28.54 27.43 27.37 27.85 28.07 27.95 27.06 26.27 25.54 23.87 24.68 23.96 23.52 23.11 22.27 22.09 21.63 22.19 22.07 20.98 20.35
32.29 31.78 30.85 30.58 30.06 28.88 28.15 27.20 25.31 28.38 30.38 30.04 30.01 29.91 29.90 29.88 29.93 29.60 29.19 28.83 28.68 30.39 28.86 28.21 27.71 27.93 26.05 25.26 24.96 24.89 24.53 23.50 22.24 22.48 21.52 21.39 20.90 20.11 19.45 19.08 19.25 19.35 18.84
32.17 31.54 30.14 29.08 28.57 27.88 27.33 26.86 26.27 24.93 24.02 25.41 29.31 29.34 29.52 29.26 28.60 28.17 27.80 27.95 27.45 27.86 26.89 25.99 25.34 25.20 24.24 23.48 22.89 22.24 22.10 21.97 21.42 20.37 19.36 19.23 18.64 17.95 16.95 16.51 17.07 16.94 17.13
29.45 28.84 28.75 28.29 27.96 27.71 27.22 26.97 26.05 26.03 24.73 24.68 25.91 26.68 27.59 28.04 28.29 28.36 29.17 27.98 25.82 24.83 24.88 24.12 24.52 24.08 23.04 22.63 22.07 21.36 20.27 19.85 18.65 18.83 18.40 17.85 17.58 16.46 15.36 15.26 15.38 14.92 14.97
27.51 27.96 28.28 28.26 28.58 28.36 28.14 27.60 26.81 26.05 25.18 24.79 24.22 24.41 26.86 26.71 24.35 24.97 25.77 25.57 24.55 23.52 23.53 21.98 21.65 21.13 20.86 20.02 20.22 19.84 18.61 17.97 17.41 16.71 16.11 15.55 15.37 14.79 13.43 13.34 13.61 13.15 13.24
27.13 27.30 27.03 27.37 26.94 26.98 26.92 25.26 24.66 23.71 22.34 22.03 22.54 23.92 24.10 22.76 21.46 20.97 20.48 20.77 19.98 19.73 19.79 19.98 19.37 19.00 18.70 18.02 17.63 16.68 15.83 15.30 14.99 14.36 13.94 13.69 13.22 11.64 12.56 12.65 12.51 12.76 12.94
24.82 25.17 25.53 25.11 24.94 24.98 24.73 24.63 23.67 22.76 21.55 20.52 20.66 21.63 21.60 21.76 20.10 18.94 17.99 17.90 18.02 17.82 18.39 17.71 17.52 17.03 16.73 15.26 14.73 14.14 13.19 12.46 12.71 12.41 11.67 10.86 10.89 10.91 10.96 11.12 11.38 11.60 11.67
23.44 22.65 22.13 21.85 21.32 21.05 21.39 21.70 21.06 20.59 20.12 19.70 19.24 18.48 18.38 17.92 17.65 16.98 16.22 16.59 16.35 15.80 15.00 14.68 14.54 13.11 14.30 13.13 13.19 13.18 11.49 11.27 11.50 10.98 9.41 9.03 8.99 9.51 9.97 9.48 9.36 9.44 10.02
22.08 21.00 19.68 19.62 19.90 19.58 19.06 18.86 18.53 17.78 18.08 17.60 17.20 16.49 16.15 16.09 15.63 14.56 14.22 13.87 14.01 14.27 13.91 12.46 12.38 11.42 9.79 10.04 11.52 11.40 11.38 10.63 9.32 8.50 7.89 7.64 7.70 8.15 8.20 8.33 8.66 8.98 9.32
19.28 18.89 18.63 17.87 17.24 16.89 16.85 16.56 16.36 16.33 16.18 16.43 16.02 15.72 15.63 15.27 14.48 14.02 12.97 12.45 10.99 10.94 10.81 10.99 11.08 9.95 9.41 7.08 7.25 7.83 7.83 5.28 4.75 3.30 4.55 5.88 6.38 6.76 7.17 8.08 8.85 9.32 10.20
16.82 16.60 16.39 16.36 15.82 16.07 15.27 14.62 14.30 14.35 14.24 14.28 14.11 13.59 13.60 12.85 12.12 12.13 10.82 9.64 7.62 8.34 9.67 10.13 9.67 8.29 7.34 8.23 8.80 6.23 2.93 1.65 1.73 1.49 2.69 4.04 5.16 6.76 8.29 8.63 8.49 8.39 8.58

GFSGL_sfc_wetblb_084.txt.gz
Wetbulb
58.59 58.23 58.06 58.91 59.66 59.19 58.61 58.04 56.50 55.64 55.68 55.32 55.01 55.26 55.55 55.41 55.87 55.95 55.97 56.02 56.92 56.44 56.88 56.98 57.03 57.67 57.34 57.45 57.98 56.98 56.41 54.66 52.68 53.57 52.17 52.73 52.93 50.35 45.82 47.00 47.13 45.47 44.08
60.07 59.12 58.42 58.76 58.82 59.04 58.85 59.14 58.46 56.75 56.53 56.28 56.08 55.47 55.67 55.81 56.05 55.37 55.24 55.51 55.40 55.73 56.44 56.81 56.90 57.27 57.38 57.53 56.27 55.92 55.36 55.62 52.87 50.83 51.51 50.70 49.43 50.44 46.95 45.98 48.16 48.64 46.69
60.82 60.03 59.40 59.10 58.95 58.85 59.06 59.78 59.59 58.66 58.14 57.91 57.44 57.08 56.58 56.49 56.03 56.10 55.89 56.18 56.11 56.12 56.43 56.57 56.61 56.34 56.22 56.94 57.32 55.48 54.42 53.23 52.96 51.79 50.54 47.49 48.55 48.19 46.45 46.22 45.95 43.41 42.97
59.91 60.37 59.66 59.64 59.85 59.47 59.48 59.31 60.11 60.36 59.60 59.36 58.87 58.03 57.68 57.65 57.43 56.93 57.29 56.94 56.93 57.03 57.10 57.21 57.00 56.52 56.39 56.56 55.54 54.34 52.92 51.61 51.05 50.24 49.42 45.15 43.33 43.44 44.88 41.75 39.86 41.07 39.61
59.15 58.95 59.42 60.09 60.37 60.67 60.30 59.75 59.75 59.93 60.12 59.88 58.99 58.33 58.24 58.06 58.00 57.50 57.44 57.08 56.83 57.08 57.40 57.00 56.79 55.47 51.28 53.84 55.02 53.99 52.06 50.42 49.68 48.23 43.49 40.48 38.82 38.69 40.99 40.47 40.27 37.36 37.22
60.01 59.03 59.59 60.08 60.31 59.94 59.62 59.62 59.52 59.47 59.44 59.17 58.67 58.49 57.93 58.08 50.70 46.97 52.96 57.01 56.91 56.30 55.93 56.06 56.30 49.70 49.50 45.77 45.68 45.74 49.54 49.75 48.02 46.97 46.86 43.21 42.50 40.39 38.13 36.30 33.47 31.59 30.77
60.79 60.85 60.38 59.87 59.55 59.97 59.71 59.06 59.04 59.07 59.29 58.44 58.03 58.10 57.75 58.18 47.65 46.06 45.13 56.41 56.64 56.31 55.58 55.27 52.69 49.64 46.79 47.66 39.00 38.22 36.47 36.19 35.93 46.35 44.67 38.51 34.59 34.90 34.82 32.99 32.51 32.06 32.00
60.93 61.00 61.27 60.68 59.69 59.71 59.65 58.81 58.32 58.54 58.25 58.27 58.36 58.42 58.01 58.24 46.73 44.72 43.20 52.84 55.33 55.14 52.88 51.89 51.41 45.40 44.53 40.49 37.21 35.73 34.98 33.20 33.92 35.41 35.16 33.71 34.31 36.07 35.28 34.27 33.21 33.47 34.35
60.71 60.79 61.14 60.95 60.23 59.88 58.93 58.60 58.80 58.36 57.93 57.72 57.78 57.36 56.90 56.85 45.24 43.44 43.85 51.73 53.41 44.58 40.35 40.28 41.89 38.60 37.40 38.87 34.61 31.99 30.88 29.90 32.77 33.30 33.03 32.72 32.19 32.03 32.09 33.03 30.08 29.64 29.46
58.40 60.81 61.36 61.14 60.33 59.72 59.68 59.09 58.82 59.01 58.26 58.05 56.60 50.85 43.11 53.18 39.94 39.94 43.22 44.42 36.74 33.78 33.48 33.29 33.93 34.08 34.10 34.95 33.68 31.84 28.09 26.90 27.55 27.53 27.60 28.62 30.01 29.66 28.42 29.36 29.07 28.67 28.62
57.76 58.05 58.96 60.88 60.22 60.15 59.58 59.45 59.00 58.29 52.01 43.90 38.11 37.40 40.08 40.87 39.98 38.95 38.57 37.21 34.42 32.04 31.24 30.91 31.65 32.58 32.69 32.76 32.11 30.12 28.23 28.01 28.04 28.51 28.82 28.81 29.36 29.39 29.30 28.53 28.70 28.41 27.62
52.77 50.68 49.54 50.07 52.78 55.81 56.42 49.67 47.85 44.79 39.67 35.58 33.74 32.47 33.17 33.75 35.13 35.69 35.42 34.05 33.74 31.29 29.64 29.92 30.75 31.25 31.00 30.69 29.59 29.66 29.32 29.40 28.70 27.58 27.85 27.49 27.91 27.97 28.50 28.27 28.53 28.36 28.61
42.85 41.61 41.03 41.94 41.89 42.59 46.41 44.98 42.07 40.25 36.99 33.82 32.62 30.56 29.80 31.27 31.87 33.03 32.93 32.17 30.97 29.28 29.37 29.93 30.23 29.80 29.04 28.24 29.36 29.44 28.78 28.08 27.74 27.00 27.04 27.36 26.79 26.35 26.71 27.01 27.69 27.84 27.72
37.14 36.02 34.89 33.91 33.63 34.15 35.55 36.19 36.31 35.58 34.13 32.96 31.41 29.13 28.11 28.56 28.92 29.89 30.25 29.90 30.22 28.81 27.96 27.36 26.40 25.58 25.38 26.72 27.47 27.98 26.73 25.78 26.00 25.68 25.71 26.26 26.88 26.71 26.09 26.53 25.14 25.28 24.09
34.76 33.60 32.52 31.81 30.81 29.34 29.09 30.05 31.57 31.86 33.83 31.82 30.18 28.73 26.30 25.13 27.62 29.41 29.50 27.60 26.85 26.95 26.86 26.50 25.21 25.01 24.89 26.02 26.97 26.31 26.13 26.49 24.95 24.57 24.62 24.76 24.59 24.17 23.63 23.72 22.39 21.31 19.42
32.79 31.85 31.30 30.86 30.14 29.28 27.68 27.37 30.62 30.31 30.43 30.31 29.87 28.63 29.23 30.40 31.10 31.08 30.29 29.80 29.72 29.41 27.36 25.96 25.93 26.55 26.36 25.88 24.90 24.53 23.96 23.76 23.28 22.72 22.22 21.79 20.88 20.41 19.96 20.62 20.79 19.43 18.40
31.36 31.33 30.39 29.76 29.14 28.60 27.76 26.79 25.00 28.31 30.53 30.51 30.54 30.54 30.19 30.17 30.50 30.50 30.72 31.21 31.57 30.01 26.78 25.80 24.55 24.07 23.91 24.51 23.95 23.13 20.75 21.29 22.37 20.80 19.69 18.94 18.59 18.26 17.55 16.95 16.91 16.88 16.36
28.58 28.30 27.96 27.65 27.28 26.82 25.99 25.64 25.67 24.46 23.76 25.13 28.49 28.58 29.39 29.52 29.68 30.10 29.85 28.26 25.51 26.28 24.92 23.65 22.88 22.70 22.64 21.84 21.25 20.48 19.92 19.34 17.34 16.20 15.12 13.66 12.17 14.53 14.39 14.35 14.39 12.81 13.40
28.51 28.16 27.78 27.24 27.03 26.77 26.32 26.03 25.16 24.40 23.91 23.56 24.77 25.94 26.85 27.78 27.71 27.91 27.29 24.52 23.12 22.20 22.26 21.32 21.31 20.86 20.15 19.88 19.32 18.36 17.70 15.18 13.34 11.55 14.17 14.12 10.73 11.37 9.11 11.68 11.54 9.36 10.23
27.07 27.95 28.33 28.01 27.94 27.07 26.09 24.58 23.92 23.58 23.58 23.62 23.80 23.46 23.19 21.43 19.38 19.39 20.31 20.09 19.90 20.24 19.85 19.24 19.01 18.56 17.97 17.57 16.75 15.23 13.18 11.97 11.09 11.55 7.67 5.42 6.87 7.90 5.74 5.52 5.18 7.10 9.60
25.55 25.38 26.05 25.52 24.82 24.04 22.84 21.44 21.04 20.43 19.61 19.64 20.15 21.43 21.15 18.80 17.56 17.20 16.98 16.84 16.89 16.71 17.07 17.44 16.65 15.95 15.39 14.57 13.96 11.62 10.16 6.76 7.89 7.06 6.61 6.08 -0.50 1.30 6.32 5.46 5.77 8.26 9.71
23.55 22.73 22.48 21.82 22.52 22.24 21.99 21.96 21.12 20.00 19.26 18.31 18.45 19.13 19.32 18.05 16.91 15.99 15.59 15.20 14.53 14.59 14.82 14.33 13.32 12.94 11.87 11.40 10.34 7.03 6.46 3.99 3.95 3.99 2.01 2.47 3.68 4.19 4.24 4.31 3.39 3.30 6.63
21.95 21.39 20.98 20.41 19.89 19.52 19.51 19.48 18.82 17.96 17.24 16.84 16.40 15.70 15.43 14.93 14.56 14.10 13.77 14.11 13.77 12.93 12.26 11.61 10.13 10.03 8.55 6.14 7.91 8.73 5.85 6.92 6.80 2.69 -1.70 -1.73 1.44 2.54 0.27 1.66 3.74 4.51 4.94
20.80 19.86 18.27 17.75 17.69 17.95 17.52 17.13 17.02 16.69 16.34 15.66 14.95 14.61 14.11 13.91 12.52 11.77 10.76 10.26 10.64 10.53 9.11 8.32 9.29 6.39 5.85 3.82 4.24 3.77 7.33 4.26 2.81 1.83 -1.31 -2.78 -0.56 2.70 1.43 3.17 3.74 2.51 4.46
18.15 17.23 16.65 16.21 15.88 15.12 14.62 14.38 14.13 13.97 13.89 13.66 13.16 12.97 13.16 12.26 11.69 9.97 9.78 7.73 6.40 5.90 6.38 7.59 6.54 5.42 3.93 0.04 2.44 2.91 -1.06 -3.16 -6.43 -5.16 -4.88 -1.77 -1.34 -2.64 0.42 3.92 4.87 6.83 5.61
15.46 14.92 14.53 14.32 13.60 13.50 12.87 12.18 11.84 11.82 11.25 11.25 11.05 10.73 9.93 9.15 8.92 7.43 6.35 1.59 0.04 3.65 3.48 3.39 5.64 1.58 1.72 3.72 2.13 -2.21 -5.13 -4.31 -5.86 -3.62 -5.16 0.24 -2.10 0.38 4.03 3.16 1.44 3.34 4.98

GFSGL_sfc_wetblb_087.txt.gz
Wetbulb
56.37 58.02 58.00 58.05 56.53 55.42 54.72 54.34 53.78 53.37 53.53 53.61 53.51 54.66 55.15 55.16 55.54 55.35 55.33 55.82 55.80 55.61 55.79 55.99 55.51 55.13 55.09 56.08 56.69 56.41 55.80 55.35 52.84 53.65 51.38 51.25 51.80 51.67 51.41 50.23 50.16 48.38 46.73
56.71 56.82 57.37 58.03 58.12 56.91 56.39 55.47 55.36 53.88 53.81 53.54 53.52 53.92 54.71 55.00 55.27 54.87 54.64 54.95 54.81 55.16 55.74 55.78 55.62 55.87 55.29 55.31 55.40 55.05 55.46 56.12 54.25 52.38 52.83 50.07 51.39 52.31 51.45 47.79 48.35 49.01 46.49
56.98 56.53 56.51 56.81 57.65 57.90 57.34 57.42 56.90 55.33 54.07 53.85 53.68 53.23 53.19 53.69 54.00 54.27 54.41 54.09 53.96 54.25 54.56 54.52 55.09 55.09 54.92 55.64 55.27 55.13 55.33 55.27 54.87 53.91 52.92 51.20 51.64 49.24 46.37 45.70 46.17 46.42 45.83
57.50 56.56 55.92 56.04 56.48 57.12 58.52 58.24 58.52 57.61 55.65 54.20 54.05 53.80 53.35 53.13 53.54 54.20 54.28 53.83 53.79 53.87 54.01 54.07 54.93 55.12 55.24 55.48 55.17 55.49 55.59 54.53 53.58 52.74 52.12 51.73 46.40 46.47 48.13 46.14 43.23 42.51 43.08
56.89 57.67 56.62 56.78 57.11 57.13 56.84 57.53 58.27 58.32 57.30 56.00 54.82 54.34 54.16 53.68 53.40 53.60 54.16 54.07 53.87 53.61 54.06 54.67 54.98 54.41 51.05 53.06 55.18 55.21 55.09 53.99 52.81 51.54 50.72 48.51 44.81 40.31 44.17 45.83 45.40 43.79 39.25
57.03 56.66 57.94 58.02 57.82 57.41 57.42 57.46 57.55 57.84 58.53 57.84 56.84 55.79 54.94 55.02 49.20 46.05 51.10 54.41 54.35 54.10 54.07 54.77 55.39 49.70 49.52 45.96 46.55 47.90 52.68 54.10 52.43 50.74 50.26 48.18 45.93 46.60 48.08 44.68 41.66 34.36 35.31
57.70 57.46 57.27 57.81 58.06 58.27 58.50 58.14 57.55 57.09 57.40 57.88 58.01 57.94 57.19 56.85 47.47 45.53 44.61 55.11 55.50 55.33 54.82 54.79 54.62 54.69 48.38 52.27 44.02 41.86 38.55 37.53 36.04 49.77 49.74 49.29 47.32 42.42 37.07 34.17 33.32 32.89 32.33
58.61 58.40 58.04 57.46 57.48 58.08 58.21 57.93 57.81 57.77 57.38 56.95 57.30 57.67 57.29 57.50 46.44 45.03 42.74 52.44 55.16 55.08 54.79 54.37 53.77 51.85 49.00 48.82 43.35 37.55 33.59 33.55 34.00 35.41 35.07 34.23 35.48 36.39 36.32 35.36 34.16 32.90 33.04
54.78 54.98 56.25 58.48 57.74 57.29 57.08 57.61 57.85 57.22 57.09 57.22 57.41 57.53 57.01 57.01 45.59 44.80 44.18 51.96 53.23 53.59 46.10 42.05 49.04 47.55 40.75 41.81 37.45 33.10 31.28 30.39 34.00 34.73 34.40 34.39 34.24 34.65 34.94 33.95 31.44 30.95 29.36
51.43 51.30 51.01 49.60 56.48 58.21 57.46 57.27 57.74 57.39 56.97 57.32 56.91 56.98 53.05 56.83 44.22 43.98 44.67 53.25 50.85 36.70 34.30 34.47 35.55 37.17 35.77 35.87 35.19 32.08 28.79 28.33 29.41 29.09 28.47 29.74 30.91 31.14 31.33 32.06 31.36 29.44 29.09
47.45 45.55 44.64 44.33 46.41 48.60 53.80 57.22 56.42 56.59 56.16 51.98 43.40 37.33 37.45 36.97 38.42 39.29 40.54 43.66 43.28 34.42 32.06 31.49 32.81 34.06 34.27 34.13 32.95 30.99 28.77 28.34 28.19 27.91 27.80 28.65 29.53 29.95 29.48 29.16 29.85 29.20 27.51
41.87 40.24 39.27 38.17 38.68 41.43 42.44 45.33 46.21 47.60 43.57 37.02 34.63 33.01 32.60 33.49 34.53 35.43 35.14 34.83 35.44 32.71 30.68 31.38 31.85 32.44 31.98 30.76 29.73 30.27 30.32 29.23 28.70 27.98 27.58 27.58 27.41 26.64 27.10 27.25 28.09 27.65 28.13
37.93 36.18 35.03 33.97 32.70 33.91 35.28 36.04 38.57 40.06 39.63 38.12 36.81 33.29 31.65 32.21 31.94 32.53 32.53 32.02 31.26 30.18 30.69 31.09 31.45 30.83 30.50 29.76 30.04 29.77 28.91 28.19 27.78 27.03 25.39 25.15 25.94 26.73 27.60 27.69 28.27 28.12 28.02
34.90 33.44 32.90 30.95 30.21 30.21 31.28 31.68 30.48 32.41 34.69 33.83 31.51 28.85 28.36 28.81 29.05 29.40 29.10 29.07 29.03 26.52 25.39 26.23 26.96 27.58 27.51 26.82 26.60 26.83 27.05 26.82 26.05 24.73 24.37 25.58 26.96 26.31 24.97 25.48 24.05 23.66 23.15
33.23 32.76 31.11 29.58 29.40 28.74 28.85 29.13 29.42 30.08 31.58 30.11 28.59 28.69 27.37 26.90 27.87 28.71 27.68 26.51 25.78 26.04 25.92 25.94 25.52 25.92 25.29 24.86 25.19 25.54 25.37 24.98 23.73 23.49 22.69 22.68 22.77 22.60 21.64 22.35 21.58 20.84 19.02
31.06 30.36 30.19 29.38 28.82 28.38 27.65 27.47 30.75 30.57 31.14 31.24 30.85 29.54 29.47 30.28 30.79 30.85 30.78 30.42 29.93 29.21 26.92 25.72 25.49 24.87 23.70 23.60 22.43 21.12 22.02 22.32 22.56 21.69 20.74 20.42 19.33 18.71 18.54 19.29 19.05 17.67 16.17
28.66 28.61 28.17 28.00 27.55 26.99 26.64 25.87 24.05 27.38 30.16 30.35 30.83 31.12 31.32 31.24 31.32 31.21 30.42 29.71 29.01 27.59 24.29 23.53 22.70 22.69 22.25 21.90 21.21 20.50 19.12 19.44 19.97 18.61 18.01 17.26 17.33 16.98 16.00 15.42 14.92 14.60 13.62
28.01 27.40 26.78 26.55 26.15 25.98 25.27 24.93 24.89 23.88 23.04 23.84 27.69 29.51 29.75 29.56 29.29 28.87 28.07 26.41 23.22 23.81 22.42 21.19 20.56 20.53 20.24 19.60 19.45 18.64 17.55 17.38 17.40 16.19 14.56 13.31 12.83 13.19 12.25 11.77 11.87 10.01 10.49
27.84 27.38 27.14 26.78 26.44 25.64 25.16 24.70 24.34 23.85 23.29 22.46 22.15 22.02 23.87 25.52 25.21 25.34 24.74 21.20 19.57 18.88 19.33 18.72 18.73 18.68 18.26 17.91 16.96 15.74 14.49 13.13 12.46 11.27 10.75 10.12 7.58 10.13 8.19 9.01 8.55 6.26 7.02
25.61 25.58 24.81 24.10 23.26 22.80 22.31 21.03 20.44 20.45 20.04 19.57 19.00 18.64 19.43 18.53 16.73 16.56 17.48 17.69 17.49 17.10 17.08 16.40 16.14 15.42 15.02 14.24 13.05 12.68 11.78 10.97 10.31 9.91 6.05 4.02 2.62 5.29 4.15 4.30 4.63 4.19 7.49
22.38 22.53 22.73 22.63 21.74 21.04 20.47 19.63 19.40 18.83 17.88 17.59 17.17 17.92 17.84 15.97 14.59 14.05 13.49 13.36 13.44 13.89 14.13 13.43 12.59 12.26 11.88 10.66 10.12 8.88 7.67 6.75 7.32 6.37 6.17 5.47 -2.74 0.06 3.73 2.61 0.56 4.22 6.71
21.23 20.53 20.12 19.77 19.72 18.92 18.47 18.27 17.43 16.68 15.99 15.27 15.49 16.01 16.09 14.90 13.89 12.90 11.88 10.84 10.48 11.45 11.45 10.72 9.00 8.59 8.77 8.38 7.82 5.66 4.75 2.49 0.76 -1.16 -1.32 -1.86 -0.28 -0.22 -0.34 -1.59 -2.99 -4.55 1.22
19.12 18.64 18.80 18.58 18.24 17.68 17.03 16.94 15.75 15.04 14.31 13.90 12.85 11.87 11.67 10.46 9.75 9.19 9.29 9.30 8.05 7.16 8.75 7.70 5.38 5.39 5.02 3.94 3.95 5.17 2.92 0.41 -2.76 -6.56 -8.18 -7.81 -3.52 -4.23 -9.26 -6.72 -4.20 -2.81 -1.80
17.88 17.36 16.54 15.52 15.19 14.19 13.58 13.34 13.22 12.16 11.71 10.22 9.02 10.03 9.64 8.09 6.32 4.17 3.59 3.71 4.59 2.35 4.37 3.18 4.36 3.35 3.50 -1.09 -1.89 1.68 0.17 -6.97 -4.48 -7.36 -11.84 -12.53 -8.36 -1.87 -5.82 -3.38 -2.00 -3.33 1.96
14.97 14.23 13.64 13.21 12.50 11.35 10.63 10.45 9.80 9.26 8.03 7.73 8.24 7.67 7.06 6.91 4.33 1.14 -2.69 -0.89 1.88 3.44 5.11 2.54 -0.34 -2.68 -4.75 -2.36 -3.83 -4.44 -7.14 -6.78 -11.41 -9.09 -10.95 -9.53 -11.08 -11.80 -7.99 -1.04 1.10 -0.81 -3.99
12.32 11.57 10.57 10.45 9.28 7.69 6.92 6.66 5.13 4.25 1.72 4.21 5.08 -3.02 -2.16 4.13 0.85 -7.83 -5.62 -2.87 -0.72 -0.74 -3.52 -3.85 -3.52 -3.55 -2.65 -2.78 -3.57 -5.23 -7.68 -5.27 -7.48 -5.04 -9.08 -5.64 -6.36 -5.82 -7.09 -7.64 -4.12 -3.19 1.38

GFSGL_sfc_wetblb_090.txt.gz
Wetbulb
56.84 56.77 56.53 56.20 55.38 54.41 52.62 51.49 51.09 51.64 52.31 52.55 54.06 54.60 55.70 55.57 55.28 55.19 55.45 55.24 54.77 54.85 55.00 54.49 55.13 55.52 55.09 55.51 55.87 55.48 54.73 54.47 51.85 53.46 54.82 55.11 52.35 53.40 54.37 52.41 53.91 53.17 52.93
56.33 57.09 57.08 56.83 56.07 54.61 53.26 52.64 52.52 51.47 52.09 52.66 52.81 53.46 54.14 54.73 55.60 54.76 54.08 54.62 54.26 54.00 53.89 53.81 54.75 55.10 54.06 54.43 54.77 54.59 54.67 55.00 53.69 51.54 53.17 53.43 51.18 52.20 52.79 50.47 50.39 50.54 50.48
56.04 56.35 56.52 57.46 56.57 55.46 54.67 53.76 53.61 52.67 52.18 52.29 52.48 52.07 52.77 53.60 53.82 53.82 54.42 53.88 53.92 54.97 55.14 54.66 54.42 54.72 54.16 54.47 54.22 53.83 54.18 53.94 54.35 53.49 53.05 54.77 53.53 49.59 49.87 49.23 47.89 48.99 49.67
55.96 55.38 55.61 55.73 56.69 56.86 56.37 55.59 54.42 53.96 52.94 52.43 52.55 52.52 52.58 52.76 53.29 53.45 53.59 53.38 53.42 53.54 54.04 54.89 55.13 54.83 54.55 54.24 53.59 53.67 53.77 53.38 53.44 53.13 53.23 53.43 51.88 49.42 48.94 48.07 44.13 46.14 47.48
55.93 55.57 55.16 55.75 56.14 56.75 57.26 56.92 56.63 55.28 54.19 53.81 52.78 52.70 52.74 52.76 52.72 52.84 53.04 52.74 52.60 52.63 53.09 53.17 53.14 52.92 49.98 51.93 53.84 53.65 53.71 52.89 53.11 53.03 52.64 52.50 50.14 42.08 46.81 48.30 48.69 48.57 40.97
56.21 55.66 56.27 55.93 56.06 55.84 55.98 56.80 56.73 56.47 56.31 55.14 53.76 52.93 52.35 52.74 47.53 44.44 49.02 51.95 52.05 51.83 51.56 52.30 52.95 47.89 48.27 45.29 45.79 46.26 51.32 53.35 52.79 53.06 52.55 51.32 51.20 50.70 50.13 48.14 46.67 38.07 38.53
56.61 56.70 57.05 56.88 56.11 56.02 56.34 56.26 56.17 56.68 56.80 56.39 55.27 54.11 53.01 53.40 45.69 44.24 42.91 51.25 51.37 51.59 51.98 52.34 52.06 52.68 47.89 52.26 45.50 42.41 39.88 37.15 37.44 52.27 53.06 52.88 51.92 51.73 49.60 39.37 36.27 35.80 33.92
52.99 54.55 55.01 56.40 57.19 57.32 56.82 56.23 56.13 56.22 56.06 56.17 56.66 56.58 55.68 55.30 45.84 44.36 41.84 49.73 51.33 51.68 52.12 52.46 52.67 52.20 52.24 51.36 51.16 44.37 39.02 35.65 36.34 37.99 40.75 39.99 36.90 37.95 39.96 38.42 35.71 33.10 33.06
47.55 47.66 48.73 49.62 51.47 54.69 56.73 57.00 57.23 56.83 56.57 56.35 56.67 56.86 57.08 57.01 46.05 45.06 44.08 50.94 52.05 52.63 53.69 53.82 53.92 52.46 48.77 44.25 44.99 37.59 32.47 31.70 34.77 35.40 35.25 34.92 35.12 35.43 36.36 35.63 32.57 33.24 29.80
44.00 43.95 44.25 44.40 46.81 47.14 48.76 53.05 57.73 57.90 57.26 57.40 56.82 56.80 53.37 56.73 48.10 44.39 45.52 54.51 52.54 51.98 52.97 41.26 36.83 45.65 43.78 39.98 48.15 38.81 32.83 30.24 30.22 30.29 30.35 30.15 30.88 30.89 31.17 32.54 32.40 29.78 28.78
41.50 40.66 39.83 39.24 41.20 41.53 43.48 44.50 45.30 49.14 56.51 55.82 52.81 39.79 37.09 35.13 37.50 37.54 41.69 50.69 51.95 49.66 43.54 32.47 33.16 34.71 35.47 35.98 37.39 37.21 34.10 30.21 28.77 28.51 28.40 28.55 29.04 29.04 29.02 28.99 29.05 29.56 28.38
38.27 36.55 35.19 34.60 35.55 36.55 37.93 38.57 39.21 40.99 40.91 39.32 35.93 33.75 33.52 33.25 33.58 33.76 34.62 36.54 39.30 35.23 31.37 31.72 31.64 32.25 32.25 31.61 30.70 30.79 30.43 29.64 29.13 28.08 27.07 25.72 25.65 25.94 26.89 27.76 28.33 28.05 28.21
35.53 33.11 31.70 30.74 31.09 31.79 32.11 32.86 35.78 37.53 36.33 33.34 31.87 30.39 29.60 30.44 30.99 31.63 32.31 31.98 31.90 31.12 32.31 30.91 30.92 30.79 30.03 29.21 29.86 29.62 29.29 28.63 27.00 25.17 24.18 24.54 25.81 27.05 27.97 27.54 27.65 27.98 27.80
33.26 31.32 30.08 29.56 29.01 29.71 30.24 30.23 29.79 32.10 32.31 32.34 31.80 29.85 29.16 27.64 27.47 27.83 27.66 27.75 28.70 27.93 27.40 27.11 26.82 26.81 26.72 26.68 26.51 26.60 26.53 26.17 25.04 24.23 23.76 24.52 24.61 23.09 22.57 23.63 21.92 22.76 22.23
31.54 31.19 29.51 29.26 28.62 28.08 28.73 29.23 29.29 29.91 30.04 28.63 28.63 28.73 26.66 25.85 27.37 28.27 27.70 26.73 26.86 27.00 27.25 26.51 25.35 24.98 23.94 23.45 23.58 23.46 23.68 23.64 22.49 22.77 21.85 21.10 20.96 20.84 19.98 20.74 19.86 19.39 17.62
29.18 28.83 28.69 28.33 27.42 27.13 26.95 27.06 30.51 30.59 31.29 31.17 30.66 28.78 29.56 30.50 30.73 30.90 30.90 30.50 29.90 28.99 25.98 23.99 22.96 22.41 20.71 20.55 20.65 20.53 21.22 20.84 20.48 19.85 19.21 19.05 17.89 17.88 17.07 17.22 17.01 15.62 14.02
27.78 27.69 27.40 27.46 27.07 26.22 25.92 24.87 23.62 26.18 28.01 30.02 30.54 30.81 30.90 30.25 29.92 29.85 29.07 28.64 28.18 26.10 22.69 21.75 20.74 20.39 20.05 20.04 18.88 17.97 17.01 18.63 19.39 17.52 16.60 16.06 15.83 15.22 14.55 13.14 12.33 11.73 11.25
27.28 26.87 26.36 25.94 25.51 24.81 24.33 23.61 21.38 19.84 18.47 19.14 24.56 26.11 27.15 27.29 26.99 26.89 26.13 24.11 20.58 21.21 20.14 19.18 18.32 18.51 18.77 18.26 17.70 17.04 16.82 16.02 15.29 14.09 12.83 12.26 12.46 12.36 11.10 10.09 9.70 8.59 9.30
25.09 25.03 24.75 24.52 24.10 23.53 23.04 22.09 21.15 19.26 18.17 18.13 19.01 19.65 20.68 23.29 22.91 22.84 22.18 18.47 17.18 16.74 17.00 16.52 16.40 15.82 15.63 15.06 13.97 13.38 12.65 11.69 11.01 9.76 8.52 7.82 3.83 8.22 7.12 7.49 7.50 7.29 7.18
22.64 23.04 22.22 21.67 20.91 20.45 20.19 19.32 18.05 16.89 15.72 15.06 14.93 15.34 16.60 15.96 13.64 13.31 14.20 15.12 14.73 14.50 14.32 13.79 13.53 13.39 12.98 12.65 11.64 11.02 10.17 9.61 8.64 6.71 -0.88 -0.14 -0.42 5.38 4.45 3.76 3.44 2.28 5.59
19.79 19.94 20.65 20.40 19.58 19.12 18.44 17.38 16.94 15.67 14.45 13.80 13.85 15.10 14.48 12.75 11.25 10.92 10.92 10.80 11.13 11.09 10.10 9.70 8.94 8.70 9.25 7.89 7.62 5.61 4.35 1.57 3.41 2.16 0.42 -0.81 -8.61 -3.55 1.33 1.98 0.95 2.21 5.06
19.67 18.94 19.20 18.25 18.26 17.38 16.67 16.60 15.62 14.68 14.12 12.82 12.21 11.88 11.58 10.78 9.70 8.52 7.54 6.49 7.45 8.36 7.45 5.76 5.69 5.64 4.78 4.36 3.79 -1.00 -3.26 -6.30 -7.00 -7.03 -5.41 -4.15 -2.58 -3.25 -3.43 -3.58 -5.18 -7.34 -1.45
17.64 16.76 16.85 16.52 16.60 15.96 15.08 14.66 13.45 12.53 11.12 10.04 9.55 8.56 6.99 5.06 4.71 4.73 3.84 1.80 4.49 4.39 4.61 3.14 1.53 1.69 0.81 -1.29 0.10 -1.55 -3.82 -7.16 -9.70 -13.00 -13.88 -13.50 -7.54 -7.53 -12.23 -8.97 -6.62 -7.16 -6.43
16.12 15.30 14.53 13.48 13.17 12.58 11.66 10.68 10.77 10.59 9.78 8.16 7.63 6.80 4.50 2.28 -0.66 -2.19 -2.16 -2.11 -0.37 -0.80 -2.37 -2.42 0.29 0.50 0.70 -5.35 -4.70 -3.10 -2.10 -10.28 -7.26 -9.59 -15.15 -14.41 -9.70 -6.28 -10.96 -7.71 -6.25 -8.43 -7.52
12.36 11.52 10.71 9.72 9.38 8.57 8.18 7.41 5.93 5.54 5.57 4.87 3.52 4.86 3.02 -1.74 -3.22 -8.26 -5.71 -1.51 0.00 -2.34 -3.56 -6.86 -6.99 -5.89 -6.02 -7.30 -6.80 -5.99 -8.55 -8.43 -12.79 -11.34 -13.87 -12.62 -14.59 -14.41 -10.96 -7.88 -10.06 -6.63 -8.61
10.38 9.42 8.71 7.99 6.34 5.70 5.17 2.99 1.33 2.23 1.57 0.60 -1.79 -4.08 -5.55 -7.53 -9.15 -14.59 -10.97 -7.24 -7.61 -6.74 -6.65 -6.43 -5.94 -7.16 -7.18 -6.68 -6.07 -7.56 -8.61 -7.71 -12.10 -11.03 -16.40 -10.08 -12.78 -12.96 -12.78 -12.78 -9.16 -8.61 -2.52